[[{"header":{"parameterUnit":"m.s-1","parameterCategory":1,"la1":31.0,"la2":29.5877,"lo1":-88.7671,"lo2":-86.6584,"dy":0.0162,"dx":0.0185,"nx":115,"ny":88,"refTime":"2023-11-10T18:00:00:Z","depth":0,"parameterNumber":2,"parameterNumberName":"U-component_of_WINDS"},"data":[0.0,0.0,0.0,0.0,0.0,0.0,0.0,0.0,0.0,0.0,0.0,0.0,0.0,0.0,0.0,0.0,0.0,0.0,0.0,0.0,0.0,0.0,0.0,0.0,0.0,0.0,0.0,0.0,0.0,0.0,0.0,0.0,0.0,0.0,0.0,0.0,0.0,0.0,0.0,0.0,0.0,0.0,0.0,0.0,0.0,0.0,0.0,0.0,0.0,0.0,0.0,0.0,0.0,0.0,0.0,0.0,0.0,0.0,0.0,0.0,0.0,0.0,0.0,0.0,0.0,0.0,0.0,0.0,0.0,0.0,0.0,0.0,0.0,0.0,0.0,0.0,0.0,0.0,0.0,0.0,0.0,0.0,0.0,0.0,0.0,0.0,0.0,0.0,0.0,0.0,0.0,0.0,0.0,0.0,0.0,0.0,0.0,0.0,0.0,0.0,0.0,0.0,0.0,0.0,0.0,0.0,0.0,0.0,0.0,0.0,0.0,0.0,0.0,0.0,0.0,0.0,0.0,0.0,0.0,0.0,0.0,0.0,0.0,0.0,0.0,0.0,0.0,0.0,0.0,0.0,0.0,0.0,0.0,0.0,0.0,0.0,0.0,0.0,0.0,0.0,0.0,0.0,0.0,0.0,0.0,0.0,0.0,0.0,0.0,0.0,0.0,0.0,0.0,0.0,0.0,0.0,0.0,0.0,0.0,0.0,0.0,0.0,0.0,0.0,0.0,0.0,0.0,0.0,0.0,0.0,0.0,0.0,0.0,0.0,0.0,0.0,0.0,0.0,0.0,0.0,0.0,0.0,0.0,0.0,0.0,0.0,0.0,0.0,0.0,0.0,0.0,0.0,0.0,0.0,0.0,0.0,0.0,0.0,0.0,0.0,0.0,0.0,0.0,0.0,0.0,0.0,0.0,0.0,0.0,0.0,0.0,0.0,0.0,0.0,0.0,0.0,0.0,0.0,0.0,0.0,0.0,0.0,0.0,0.0,0.0,0.0,0.0,0.0,0.0,0.0,0.0,0.0,0.0,0.0,0.0,0.0,0.0,0.0,0.0,0.0,0.0,0.0,0.0,0.0,0.0,0.0,0.0,0.0,0.0,0.0,0.0,0.0,0.0,0.0,0.0,0.0,0.0,0.0,0.0,0.0,0.0,0.0,0.0,0.0,0.0,0.0,0.0,0.0,0.0,0.0,0.0,0.0,0.0,0.0,0.0,0.0,0.0,0.0,0.0,0.0,0.0,0.0,0.0,0.0,0.0,0.0,0.0,0.0,0.0,0.0,0.0,0.0,0.0,0.0,0.0,0.0,0.0,0.0,0.0,0.0,0.0,0.0,0.0,0.0,0.0,0.0,0.0,0.0,0.0,0.0,0.0,0.0,0.0,0.0,0.0,0.0,0.0,0.0,0.0,0.0,0.0,0.0,0.0,0.0,0.0,0.0,0.0,0.0,0.0,0.0,0.0,0.0,0.0,0.0,0.0,0.0,0.0,0.0,0.0,0.0,0.0,0.0,0.0,0.0,0.0,0.0,0.0,0.0,0.0,0.0,0.0,0.0,0.0,0.0,0.0,0.0,0.0,0.0,0.0,0.0,0.0,0.0,0.0,0.0,0.0,0.0,0.0,0.0,0.0,0.0,0.0,0.0,0.0,0.0,0.0,0.0,0.0,0.0,0.0,0.0,0.0,0.0,0.0,0.0,0.0,0.0,0.0,0.0,0.0,0.0,0.0,0.0,0.0,0.0,0.0,0.0,0.0,0.0,0.0,0.0,0.0,0.0,0.0,0.0,0.0,0.0,0.0,0.0,0.0,0.0,0.0,0.0,0.0,0.0,0.0,0.0,0.0,0.0,0.0,0.0,0.0,0.0,0.0,0.0,0.0,0.0,0.0,0.0,0.0,0.0,0.0,0.0,0.0,0.0,0.0,0.0,0.0,0.0,0.0,0.0,0.0,0.0,0.0,0.0,0.0,0.0,0.0,0.0,0.0,0.0,0.0,0.0,0.0,0.0,0.0,0.0,0.0,0.0,0.0,0.0,0.0,0.0,0.0,0.0,0.0,0.0,0.0,0.0,0.0,0.0,0.0,0.0,0.0,0.0,0.0,0.0,0.0,0.0,0.0,0.0,0.0,0.0,0.0,0.0,0.0,0.0,0.0,0.0,0.0,0.0,0.0,0.0,0.0,0.0,0.0,0.0,0.0,0.0,0.0,0.0,0.0,0.0,0.0,0.0,0.0,0.0,0.0,0.0,0.0,0.0,0.0,0.0,0.0,0.0,0.0,0.0,0.0,0.0,0.0,0.0,0.0,0.0,0.0,0.0,0.0,0.0,0.0,0.0,0.0,0.0,0.0,0.0,0.0,0.0,0.0,0.0,0.0,0.0,0.0,0.0,0.0,0.0,0.0,0.0,0.0,0.0,0.0,0.0,0.0,0.0,0.0,0.0,0.0,0.0,0.0,0.0,0.0,0.0,0.0,0.0,0.0,0.0,0.0,0.0,0.0,0.0,0.0,0.0,0.0,0.0,0.0,0.0,0.0,0.0,0.0,0.0,0.0,0.0,0.0,0.0,0.0,0.0,0.0,0.0,0.0,0.0,0.0,0.0,0.0,0.0,0.0,0.0,0.0,0.0,0.0,0.0,0.0,0.0,0.0,0.0,0.0,0.0,0.0,0.0,0.0,0.0,0.0,0.0,0.0,0.0,0.0,0.0,0.0,0.0,0.0,0.0,0.0,0.0,0.0,0.0,0.0,0.0,0.0,0.0,0.0,0.0,0.0,0.0,0.0,0.0,0.0,0.0,0.0,0.0,0.0,0.0,0.0,0.0,0.0,0.0,0.0,0.0,0.0,0.0,0.0,0.0,0.0,0.0,0.0,0.0,0.0,0.0,0.0,0.0,0.0,0.0,0.0,0.0,0.0,0.0,0.0,0.0,0.0,0.0,0.0,0.0,0.0,0.0,0.0,0.0,0.0,0.0,0.0,0.0,0.0,0.0,0.0,0.0,0.0,0.0,0.0,0.0,0.0,0.0,0.0,0.0,0.0,0.0,0.0,0.0,0.0,0.0,0.0,0.0,0.0,0.0,0.0,0.0,0.0,0.0,0.0,0.0,0.0,0.0,0.0,0.0,0.0,0.0,0.0,0.0,0.0,0.0,0.0,0.0,0.0,0.0,0.0,0.0,0.0,0.0,0.0,0.0,0.0,0.0,0.0,0.0,0.0,0.0,0.0,0.0,0.0,0.0,0.0,0.0,0.0,0.0,0.0,0.0,0.0,0.0,0.0,0.0,0.0,0.0,0.0,0.0,0.0,0.0,0.0,0.0,0.0,0.0,0.0,0.0,0.0,0.0,0.0,0.0,0.0,0.0,0.0,0.0,0.0,0.0,0.0,0.0,0.0,0.0,0.0,0.0,0.0,0.0,0.0,0.0,0.0,0.0,0.0,0.0,0.0,0.0,0.0,0.0,0.0,0.0,0.0,0.0,0.0,0.0,0.0,0.0,0.0,0.0,0.0,0.0,0.0,0.0,0.0,0.0,0.0,0.0,0.0,0.0,0.0,0.0,0.0,0.0,0.0,0.0,0.0,0.0,0.0,0.0,0.0,0.0,0.0,0.0,0.0,0.0,0.0,0.0,0.0,0.0,0.0,0.0,0.0,0.0,0.0,0.0,0.0,0.0,0.0,0.0,0.0,0.0,0.0,0.0,0.0,0.0,0.0,0.0,0.0,0.0,0.0,0.0,0.0,0.0,0.0,0.0,0.0,0.0,0.0,0.0,0.0,0.0,0.0,0.0,0.0,0.0,0.0,0.0,0.0,0.0,0.0,0.0,0.0,0.0,0.0,0.0,0.0,0.0,0.0,0.0,0.0,0.0,0.0,0.0,0.0,0.0,0.0,0.0,0.0,0.0,0.0,0.0,0.0,0.0,0.0,0.0,0.0,0.0,0.0,0.0,0.0,0.0,0.0,0.0,0.0,0.0,0.0,0.0,0.0,0.0,0.0,0.0,0.0,0.0,0.0,0.0,0.0,0.0,0.0,0.0,0.0,0.0,0.0,0.0,0.0,0.0,0.0,0.0,0.0,0.0,0.0,0.0,0.0,0.0,0.0,0.0,0.0,0.0,0.0,0.0,0.0,0.0,0.0,0.0,0.0,0.0,0.0,0.0,0.0,0.0,0.0,0.0,0.0,0.0,0.0,0.0,0.0,0.0,0.0,0.0,0.0,0.0,0.0,0.0,0.0,0.0,0.0,0.0,0.0,0.0,0.0,0.0,0.0,0.0,1.6292,0.0,0.0,0.0,0.0,0.0,0.0,0.0,0.0,0.0,0.0,0.0,0.0,0.0,0.0,0.0,0.0,0.0,0.0,0.0,0.0,0.0,0.0,0.0,0.0,0.0,0.0,0.0,0.0,0.0,0.0,0.0,0.0,0.0,0.0,0.0,0.0,0.0,0.0,0.0,0.0,0.0,0.0,0.0,0.0,0.0,0.0,0.0,0.0,0.0,0.0,0.0,0.0,0.0,0.0,0.0,0.0,0.0,0.0,0.0,0.0,0.0,0.0,0.0,0.0,0.0,0.0,0.0,0.0,0.0,0.0,0.0,0.0,0.0,0.0,0.0,0.0,0.0,0.0,0.0,0.0,0.0,0.0,0.0,0.0,0.0,0.0,0.0,0.0,0.0,0.0,0.0,0.0,0.0,0.0,0.0,0.0,0.0,0.0,0.0,0.0,0.0,0.0,0.0,0.0,0.0,0.0,0.0,0.0,0.0,0.0,1.6797,1.67,1.6829,1.6775,1.6506,0.0,0.0,0.0,0.0,0.0,0.0,0.0,0.0,0.0,0.0,0.0,0.0,0.0,0.0,0.0,0.0,0.0,0.0,0.0,0.0,0.0,0.0,0.0,0.0,0.0,0.0,0.0,0.0,0.0,0.0,0.0,0.0,0.0,0.0,0.0,0.0,0.0,0.0,0.0,0.0,0.0,0.0,0.0,0.0,0.0,0.0,0.0,0.0,0.0,0.0,0.0,0.0,0.0,0.0,0.0,0.0,0.0,0.0,0.0,0.0,0.0,0.0,0.0,0.0,0.0,0.0,0.0,0.0,0.0,0.0,0.0,0.0,0.0,0.0,0.0,0.0,0.0,0.0,0.0,0.0,0.0,0.0,0.0,0.0,0.0,0.0,0.0,0.0,0.0,0.0,0.0,0.0,0.0,0.0,0.0,0.0,0.0,0.0,0.0,0.0,0.0,0.0,0.0,0.0,0.0,0.0,0.0,0.0,0.0,0.0,0.0,0.0,1.7087,1.6915,1.6572,0.0,0.0,0.0,0.0,0.0,0.0,0.0,0.0,0.0,0.0,0.0,0.0,0.0,0.0,0.0,0.0,0.0,0.0,0.0,0.0,0.0,0.0,0.0,0.0,0.0,0.0,0.0,0.0,0.0,0.0,0.0,0.0,0.0,0.0,0.0,0.0,0.0,0.0,0.0,0.0,0.0,0.0,0.0,0.0,0.0,0.0,0.0,0.0,0.0,0.0,0.0,0.0,0.0,0.0,0.0,0.0,0.0,0.0,0.0,0.0,0.0,0.0,0.0,0.0,0.0,0.0,0.0,0.0,0.0,0.0,0.0,0.0,0.0,0.0,0.0,0.0,0.0,0.0,0.0,0.0,0.0,0.0,0.0,0.0,0.0,0.0,0.0,0.0,0.0,0.0,0.0,0.0,0.0,0.0,0.0,0.0,0.0,0.0,0.0,0.0,0.0,0.0,0.0,0.0,0.0,0.0,0.0,0.0,0.0,0.0,1.712,1.7368,1.7379,0.0,1.6286,0.0,0.0,0.0,0.0,0.0,0.0,0.0,0.0,0.0,0.0,0.0,0.0,0.0,0.0,0.0,0.0,0.0,0.0,0.0,0.0,0.0,0.0,0.0,0.0,0.0,0.0,0.0,0.0,0.0,0.0,0.0,0.0,0.0,0.0,0.0,0.0,0.0,0.0,0.0,0.0,0.0,0.0,0.0,0.0,0.0,0.0,0.0,0.0,0.0,0.0,0.0,0.0,0.0,0.0,0.0,0.0,0.0,0.0,0.0,0.0,0.0,0.0,0.0,0.0,0.0,0.0,0.0,0.0,0.0,0.0,0.0,0.0,0.0,0.0,0.0,0.0,0.0,0.0,0.0,0.0,0.0,0.0,0.0,0.0,0.0,0.0,0.0,0.0,0.0,0.0,0.0,0.0,0.0,0.0,0.0,0.0,0.0,0.0,0.0,0.0,0.0,0.0,0.0,0.0,0.0,0.0,0.0,0.0,0.0,0.0,1.727,1.7378,1.7378,1.6987,0.0,0.0,0.0,0.0,0.0,0.0,0.0,0.0,0.0,0.0,0.0,0.0,0.0,0.0,0.0,0.0,0.0,0.0,0.0,0.0,0.0,0.0,0.0,0.0,0.0,0.0,0.0,0.0,0.0,0.0,0.0,0.0,0.0,0.0,0.0,0.0,0.0,0.0,0.0,0.0,0.0,0.0,0.0,0.0,0.0,0.0,0.0,0.0,0.0,0.0,0.0,0.0,0.0,0.0,0.0,0.0,0.0,0.0,0.0,0.0,0.0,0.0,0.0,0.0,0.0,0.0,0.0,0.0,0.0,0.0,0.0,0.0,0.0,0.0,0.0,0.0,0.0,0.0,0.0,0.0,0.0,0.0,0.0,0.0,0.0,0.0,0.0,0.0,0.0,0.0,0.0,0.0,0.0,0.0,0.0,0.0,0.0,0.0,0.0,0.0,0.0,0.0,0.0,0.0,0.0,0.0,0.0,0.0,0.0,0.0,1.7217,1.7335,1.7464,1.754,1.7103,1.6087,0.0,0.0,0.0,0.0,0.0,0.0,0.0,0.0,0.0,0.0,0.0,0.0,0.0,0.0,0.0,0.0,0.0,0.0,0.0,0.0,0.0,0.0,0.0,0.0,0.0,0.0,0.0,0.0,0.0,0.0,0.0,0.0,0.0,0.0,0.0,0.0,0.0,0.0,0.0,0.0,0.0,0.0,0.0,0.0,0.0,0.0,0.0,0.0,0.0,0.0,0.0,0.0,0.0,0.0,0.0,0.0,0.0,0.0,0.0,0.0,0.0,0.0,0.0,0.0,0.0,0.0,0.0,0.0,0.0,0.0,0.0,0.0,0.0,0.0,0.0,0.0,0.0,0.0,0.0,0.0,0.0,0.0,0.0,0.0,0.0,0.0,0.0,0.0,0.0,0.0,0.0,0.0,0.0,0.0,0.0,0.0,0.0,0.0,0.0,0.0,0.0,0.0,0.0,0.0,0.0,0.0,0.0,0.0,1.7336,1.713,1.7238,1.7657,1.7938,1.7492,0.0,0.0,0.0,0.0,0.0,0.0,0.0,0.0,0.0,0.0,0.0,0.0,0.0,0.0,0.0,0.0,0.0,0.0,0.0,0.0,0.0,0.0,0.0,0.0,0.0,0.0,0.0,0.0,0.0,0.0,0.0,0.0,0.0,0.0,0.0,0.0,0.0,0.0,0.0,0.0,0.0,0.0,0.0,0.0,0.0,0.0,0.0,0.0,0.0,0.0,0.0,0.0,0.0,0.0,0.0,0.0,0.0,0.0,0.0,0.0,0.0,0.0,0.0,0.0,0.0,0.0,0.0,0.0,0.0,0.0,0.0,0.0,0.0,0.0,0.0,0.0,0.0,0.0,0.0,0.0,0.0,0.0,0.0,0.0,0.0,0.0,0.0,0.0,0.0,0.0,0.0,0.0,0.0,0.0,0.0,0.0,0.0,0.0,0.0,0.0,0.0,0.0,0.0,0.0,0.0,0.0,0.0,0.0,0.0,1.6678,1.6894,1.7227,1.7657,1.7318,1.6852,0.0,0.0,0.0,0.0,0.0,0.0,0.0,0.0,0.0,0.0,0.0,0.0,0.0,0.0,0.0,0.0,0.0,0.0,0.0,0.0,0.0,0.0,0.0,0.0,0.0,0.0,0.0,0.0,0.0,0.0,0.0,0.0,0.0,0.0,0.0,0.0,0.0,0.0,0.0,0.0,0.0,0.0,0.0,0.0,0.0,0.0,0.0,0.0,0.0,0.0,0.0,0.0,0.0,0.0,0.0,0.0,0.0,0.0,0.0,0.0,0.0,0.0,0.0,0.0,0.0,0.0,0.0,0.0,0.0,0.0,0.0,0.0,0.0,0.0,0.0,0.0,0.0,0.0,0.0,0.0,0.0,0.0,0.0,0.0,0.0,0.0,0.0,0.0,0.0,0.0,0.0,0.0,0.0,0.0,0.0,0.0,0.0,0.0,0.0,0.0,0.0,0.0,0.0,0.0,0.0,0.0,0.0,0.0,0.0,1.6381,0.0,1.7475,1.7657,1.7079,1.6519,0.0,0.0,0.0,0.0,0.0,0.0,0.0,0.0,0.0,0.0,0.0,0.0,0.0,0.0,0.0,0.0,0.0,0.0,0.0,0.0,0.0,0.0,0.0,0.0,0.0,0.0,0.0,0.0,0.0,0.0,0.0,0.0,0.0,0.0,0.0,0.0,0.0,0.0,0.0,0.0,0.0,0.0,0.0,0.0,0.0,0.0,0.0,0.0,0.0,0.0,0.0,0.0,0.0,0.0,0.0,0.0,0.0,0.0,0.0,0.0,0.0,0.0,0.0,0.0,0.0,0.0,0.0,0.0,0.0,0.0,0.0,0.0,0.0,0.0,0.0,0.0,0.0,0.0,0.0,0.0,0.0,0.0,0.0,0.0,0.0,0.0,0.0,0.0,0.0,0.0,0.0,0.0,0.0,0.0,0.0,0.0,0.0,0.0,0.0,0.0,0.0,0.0,0.0,0.0,0.0,0.0,0.0,0.0,1.5616,1.6495,1.7511,1.7927,1.7733,1.7332,1.6625,0.0,0.0,0.0,0.0,0.0,0.0,0.0,0.0,0.0,0.0,0.0,0.0,0.0,0.0,0.0,0.0,0.0,0.0,0.0,0.0,0.0,0.0,0.0,0.0,0.0,0.0,0.0,0.0,0.0,0.0,0.0,0.0,0.0,0.0,0.0,0.0,0.0,0.0,0.0,0.0,0.0,0.0,0.0,0.0,0.0,0.0,0.0,0.0,0.0,0.0,0.0,0.0,0.0,0.0,0.0,0.0,0.0,0.0,0.0,0.0,0.0,0.0,0.0,0.0,0.0,0.0,0.0,0.0,0.0,0.0,0.0,0.0,0.0,0.0,0.0,0.0,0.0,0.0,0.0,0.0,0.0,0.0,0.0,0.0,0.0,0.0,0.0,0.0,0.0,0.0,0.0,0.0,0.0,0.0,0.0,0.0,0.0,0.0,0.0,0.0,0.0,0.0,0.0,0.0,0.0,0.0,0.0,0.0,0.0,1.6392,1.7195,1.7756,1.7938,1.7027,1.6386,0.0,0.0,0.0,0.0,0.0,0.0,0.0,0.0,0.0,0.0,0.0,0.0,0.0,0.0,0.0,0.0,0.0,0.0,0.0,0.0,0.0,0.0,0.0,0.0,0.0,0.0,0.0,0.0,0.0,0.0,0.0,0.0,0.0,0.0,0.0,0.0,0.0,0.0,0.0,0.0,0.0,0.0,0.0,0.0,0.0,0.0,0.0,0.0,0.0,0.0,0.0,0.0,0.0,0.0,0.0,0.0,0.0,0.0,0.0,0.0,0.0,0.0,0.0,0.0,0.0,0.0,0.0,0.0,0.0,0.0,0.0,0.0,0.0,0.0,0.0,0.0,0.0,0.0,0.0,0.0,0.0,0.0,0.0,0.0,0.0,0.0,0.0,0.0,0.0,0.0,0.0,0.0,0.0,0.0,0.0,0.0,0.0,0.0,0.0,0.0,0.0,0.0,0.0,0.0,0.0,0.0,0.0,0.0,0.0,1.6803,1.7482,1.7965,1.8174,1.709,1.6458,1.6316,0.0,0.0,0.0,0.0,0.0,0.0,0.0,0.0,0.0,0.0,0.0,0.0,0.0,0.0,0.0,0.0,0.0,0.0,0.0,0.0,0.0,0.0,0.0,0.0,0.0,0.0,0.0,0.0,0.0,0.0,0.0,0.0,0.0,0.0,0.0,0.0,0.0,0.0,0.0,0.0,0.0,0.0,0.0,0.0,0.0,0.0,0.0,0.0,0.0,0.0,0.0,0.0,0.0,0.0,0.0,0.0,0.0,0.0,0.0,0.0,0.0,0.0,0.0,0.0,0.0,0.0,0.0,0.0,0.0,0.0,0.0,0.0,0.0,0.0,0.0,0.0,0.0,0.0,0.0,0.0,0.0,0.0,0.0,0.0,0.0,0.0,0.0,0.0,0.0,0.0,0.0,0.0,0.0,0.0,0.0,0.0,0.0,0.0,0.0,0.0,0.0,0.0,0.0,0.0,0.0,0.0,0.0,0.0,1.7628,1.8317,1.8553,1.8344,1.7569,1.6856,0.0,0.0,0.0,0.0,0.0,0.0,0.0,0.0,0.0,0.0,0.0,0.0,0.0,0.0,0.0,0.0,0.0,0.0,0.0,0.0,0.0,0.0,0.0,0.0,0.0,0.0,0.0,0.0,0.0,0.0,0.0,0.0,0.0,0.0,0.0,0.0,0.0,0.0,0.0,0.0,0.0,0.0,0.0,0.0,0.0,0.0,0.0,0.0,0.0,0.0,0.0,0.0,0.0,0.0,0.0,0.0,0.0,0.0,0.0,0.0,0.0,0.0,0.0,0.0,0.0,0.0,0.0,0.0,0.0,0.0,0.0,0.0,0.0,0.0,0.0,0.0,0.0,0.0,0.0,0.0,0.0,0.0,0.0,0.0,0.0,0.0,0.0,0.0,0.0,0.0,0.0,0.0,0.0,0.0,0.0,0.0,0.0,0.0,0.0,0.0,0.0,0.0,0.0,0.0,0.0,0.0,0.0,0.0,0.0,1.8198,1.8938,1.9226,1.8949,1.8,1.7267,0.0,0.0,0.0,0.0,0.0,0.0,0.0,0.0,0.0,0.0,0.0,0.0,0.0,0.0,0.0,0.0,0.0,0.0,0.0,0.0,0.0,0.0,0.0,0.0,0.0,0.0,0.0,0.0,0.0,0.0,0.0,0.0,0.0,0.0,0.0,0.0,0.0,0.0,0.0,0.0,0.0,0.0,0.0,0.0,0.0,0.0,0.0,0.0,0.0,0.0,0.0,0.0,0.0,0.0,0.0,0.0,0.0,0.0,0.0,0.0,0.0,0.0,0.0,0.0,0.0,0.0,0.0,0.0,0.0,0.0,0.0,0.0,0.0,0.0,0.0,0.0,0.0,0.0,0.0,0.0,0.0,0.0,0.0,0.0,0.0,0.0,0.0,0.0,0.0,0.0,0.0,0.0,0.0,0.0,0.0,0.0,0.0,0.0,0.0,0.0,0.0,0.0,0.0,0.0,0.0,0.0,0.0,0.0,1.8243,1.8674,1.9392,1.9777,1.9675,1.8717,1.7981,0.0,0.0,0.0,0.0,0.0,0.0,0.0,0.0,0.0,0.0,0.0,0.0,0.0,0.0,0.0,0.0,0.0,0.0,0.0,0.0,0.0,0.0,0.0,0.0,0.0,0.0,0.0,0.0,0.0,0.0,0.0,0.0,0.0,0.0,0.0,0.0,0.0,0.0,0.0,0.0,0.0,0.0,0.0,0.0,0.0,0.0,0.0,0.0,0.0,0.0,0.0,0.0,0.0,0.0,0.0,0.0,0.0,0.0,0.0,0.0,0.0,0.0,0.0,0.0,0.0,0.0,0.0,0.0,0.0,0.0,0.0,0.0,0.0,0.0,0.0,0.0,0.0,0.0,0.0,0.0,0.0,0.0,0.0,0.0,0.0,0.0,0.0,0.0,0.0,0.0,0.0,0.0,0.0,0.0,0.0,0.0,0.0,0.0,0.0,0.0,0.0,0.0,0.0,0.0,0.0,0.0,0.0,0.0,1.8681,1.9124,1.9811,2.0275,2.0356,1.9578,1.8735,0.0,0.0,0.0,0.0,0.0,0.0,0.0,0.0,0.0,0.0,0.0,0.0,0.0,0.0,0.0,0.0,0.0,0.0,0.0,0.0,0.0,0.0,0.0,0.0,0.0,0.0,0.0,0.0,0.0,0.0,0.0,0.0,0.0,0.0,0.0,0.0,0.0,0.0,0.0,0.0,0.0,0.0,0.0,0.0,0.0,0.0,0.0,0.0,0.0,0.0,0.0,0.0,0.0,0.0,0.0,0.0,0.0,0.0,0.0,0.0,0.0,0.0,0.0,0.0,0.0,0.0,0.0,0.0,0.0,0.0,0.0,0.0,0.0,0.0,0.0,0.0,0.0,0.0,0.0,0.0,0.0,0.0,0.0,0.0,0.0,0.0,0.0,0.0,0.0,0.0,0.0,0.0,0.0,0.0,0.0,0.0,0.0,0.0,0.0,0.0,0.0,0.0,0.0,0.0,0.0,0.0,0.0,0.0,1.9338,1.9798,2.0399,2.0755,2.0779,1.9841,1.9087,0.0,0.0,0.0,0.0,0.0,0.0,0.0,0.0,0.0,0.0,0.0,0.0,0.0,0.0,0.0,0.0,0.0,0.0,0.0,0.0,0.0,0.0,0.0,0.0,0.0,0.0,0.0,0.0,0.0,0.0,0.0,0.0,0.0,0.0,0.0,0.0,0.0,0.0,0.0,0.0,0.0,0.0,0.0,0.0,0.0,0.0,0.0,0.0,2.1138,0.0,0.0,0.0,0.0,0.0,0.0,0.0,0.0,0.0,0.0,0.0,0.0,0.0,0.0,0.0,0.0,0.0,0.0,0.0,0.0,0.0,0.0,0.0,0.0,0.0,0.0,0.0,0.0,0.0,0.0,0.0,0.0,0.0,0.0,0.0,0.0,0.0,0.0,0.0,0.0,0.0,0.0,0.0,0.0,0.0,0.0,0.0,0.0,0.0,0.0,0.0,0.0,0.0,0.0,0.0,0.0,0.0,0.0,0.0,1.9715,2.0299,2.0751,2.1019,2.1089,2.0501,1.9889,0.0,0.0,0.0,0.0,0.0,0.0,0.0,0.0,0.0,0.0,0.0,0.0,0.0,0.0,0.0,0.0,0.0,0.0,0.0,0.0,0.0,0.0,0.0,0.0,0.0,0.0,0.0,0.0,0.0,0.0,0.0,0.0,0.0,0.0,0.0,0.0,0.0,0.0,0.0,0.0,0.0,0.0,0.0,0.0,0.0,0.0,0.0,0.0,0.0,0.0,0.0,0.0,0.0,0.0,0.0,0.0,0.0,0.0,0.0,0.0,0.0,0.0,0.0,0.0,0.0,0.0,0.0,0.0,0.0,0.0,0.0,0.0,0.0,0.0,0.0,0.0,0.0,0.0,0.0,0.0,0.0,0.0,0.0,0.0,0.0,0.0,0.0,0.0,0.0,0.0,0.0,0.0,0.0,0.0,0.0,0.0,0.0,0.0,0.0,0.0,0.0,0.0,0.0,0.0,0.0,0.0,0.0,1.9282,1.9973,2.0773,2.1383,2.172,2.1899,2.1795,2.1367,2.0564,0.0,0.0,0.0,0.0,0.0,0.0,0.0,0.0,0.0,0.0,0.0,0.0,0.0,0.0,0.0,0.0,0.0,0.0,0.0,0.0,0.0,0.0,0.0,0.0,0.0,0.0,0.0,0.0,0.0,0.0,0.0,0.0,0.0,0.0,0.0,0.0,0.0,0.0,2.0376,2.0855,0.0,0.0,0.0,0.0,0.0,0.0,0.0,0.0,2.1689,0.0,0.0,0.0,0.0,0.0,0.0,0.0,0.0,0.0,0.0,0.0,0.0,0.0,0.0,0.0,0.0,0.0,0.0,0.0,0.0,0.0,0.0,0.0,0.0,0.0,0.0,0.0,0.0,0.0,0.0,0.0,0.0,0.0,0.0,0.0,0.0,0.0,0.0,0.0,0.0,0.0,0.0,0.0,0.0,0.0,0.0,0.0,0.0,0.0,0.0,0.0,0.0,0.0,0.0,0.0,0.0,1.9405,1.9545,2.0144,2.1272,2.3187,2.4227,2.4282,2.4719,2.4329,2.3031,0.0,0.0,0.0,0.0,0.0,0.0,0.0,0.0,0.0,0.0,0.0,0.0,0.0,0.0,0.0,0.0,0.0,0.0,0.0,0.0,0.0,0.0,0.0,0.0,0.0,0.0,0.0,0.0,0.0,0.0,0.0,0.0,0.0,0.0,0.0,0.0,0.0,0.0,0.0,2.132,2.1154,0.0,0.0,0.0,0.0,0.0,0.0,0.0,0.0,2.1781,0.0,0.0,0.0,0.0,0.0,0.0,0.0,0.0,0.0,0.0,0.0,0.0,0.0,0.0,0.0,0.0,0.0,0.0,0.0,0.0,0.0,0.0,0.0,0.0,0.0,0.0,0.0,0.0,0.0,0.0,0.0,0.0,0.0,0.0,0.0,0.0,0.0,0.0,0.0,0.0,0.0,0.0,0.0,0.0,0.0,0.0,0.0,0.0,0.0,0.0,0.0,0.0,0.0,0.0,0.0,1.9484,2.0055,2.0711,2.1642,2.2715,2.3915,2.5082,2.3809,2.3342,0.0,0.0,0.0,0.0,0.0,0.0,0.0,0.0,0.0,0.0,0.0,0.0,0.0,0.0,0.0,0.0,0.0,0.0,0.0,0.0,0.0,0.0,0.0,0.0,0.0,0.0,0.0,0.0,0.0,0.0,0.0,0.0,0.0,0.0,0.0,0.0,0.0,0.0,0.0,0.0,2.1268,2.1002,2.0083,0.0,0.0,0.0,0.0,0.0,0.0,2.1036,2.1642,0.0,0.0,0.0,0.0,0.0,0.0,0.0,0.0,0.0,0.0,0.0,0.0,0.0,0.0,0.0,0.0,0.0,0.0,0.0,0.0,0.0,0.0,0.0,0.0,0.0,0.0,0.0,0.0,0.0,0.0,0.0,0.0,0.0,0.0,0.0,0.0,0.0,0.0,0.0,0.0,0.0,0.0,0.0,0.0,0.0,0.0,0.0,0.0,0.0,0.0,0.0,0.0,0.0,0.0,0.0,1.9764,2.1002,2.1934,2.2631,2.3596,2.4975,2.6798,2.3955,2.3054,0.0,0.0,0.0,0.0,0.0,0.0,0.0,0.0,0.0,0.0,0.0,0.0,0.0,0.0,0.0,0.0,0.0,0.0,0.0,0.0,0.0,0.0,0.0,0.0,0.0,0.0,0.0,0.0,0.0,0.0,0.0,0.0,0.0,0.0,0.0,0.0,0.0,0.0,0.0,0.0,0.0,2.0811,2.0702,2.0993,0.0,0.0,0.0,0.0,2.0498,2.0982,0.0,0.0,0.0,0.0,0.0,0.0,0.0,0.0,0.0,0.0,0.0,0.0,0.0,0.0,0.0,0.0,0.0,0.0,0.0,0.0,0.0,0.0,0.0,0.0,0.0,0.0,0.0,0.0,0.0,0.0,0.0,0.0,0.0,0.0,0.0,0.0,0.0,0.0,0.0,0.0,0.0,0.0,0.0,0.0,0.0,0.0,0.0,0.0,0.0,0.0,0.0,0.0,0.0,0.0,0.0,0.0,2.0709,2.2954,2.4419,2.5253,2.9172,3.1535,3.1707,2.9468,2.7571,0.0,0.0,0.0,0.0,0.0,0.0,0.0,0.0,0.0,0.0,0.0,0.0,0.0,0.0,0.0,0.0,0.0,0.0,0.0,0.0,0.0,0.0,0.0,0.0,0.0,0.0,0.0,0.0,0.0,0.0,0.0,0.0,0.0,0.0,0.0,0.0,0.0,0.0,0.0,0.0,0.0,2.0562,2.0984,2.0534,2.03,0.0,0.0,2.0409,2.0616,2.0993,0.0,0.0,0.0,0.0,0.0,0.0,0.0,0.0,0.0,0.0,0.0,0.0,0.0,0.0,0.0,0.0,0.0,0.0,0.0,0.0,0.0,0.0,0.0,0.0,0.0,0.0,0.0,0.0,0.0,0.0,0.0,0.0,0.0,0.0,0.0,0.0,0.0,0.0,0.0,0.0,0.0,0.0,0.0,0.0,0.0,0.0,0.0,0.0,0.0,0.0,0.0,0.0,0.0,0.0,0.0,1.9561,2.1041,2.2493,2.4056,2.5836,2.7881,3.0075,3.2424,2.8463,2.6314,0.0,0.0,0.0,0.0,0.0,0.0,0.0,0.0,0.0,0.0,0.0,0.0,0.0,0.0,0.0,0.0,0.0,0.0,0.0,0.0,0.0,0.0,0.0,0.0,0.0,0.0,0.0,0.0,0.0,0.0,0.0,0.0,0.0,0.0,0.0,0.0,0.0,0.0,0.0,0.0,0.0,0.0,2.0872,2.1219,0.0,0.0,0.0,2.1358,2.0875,0.0,0.0,0.0,0.0,0.0,0.0,0.0,0.0,0.0,0.0,0.0,0.0,0.0,0.0,0.0,0.0,0.0,0.0,0.0,0.0,0.0,0.0,0.0,0.0,0.0,0.0,0.0,0.0,0.0,0.0,0.0,0.0,0.0,0.0,0.0,0.0,0.0,0.0,0.0,0.0,0.0,0.0,0.0,0.0,0.0,0.0,0.0,0.0,0.0,0.0,0.0,0.0,0.0,0.0,0.0,0.0,0.0,2.2495,2.4111,2.5931,2.7827,2.8348,3.0102,3.3112,2.8438,0.0,0.0,0.0,0.0,0.0,0.0,0.0,0.0,0.0,0.0,0.0,0.0,0.0,0.0,0.0,0.0,0.0,0.0,0.0,0.0,0.0,0.0,0.0,0.0,0.0,0.0,0.0,1.2528,0.0,0.0,0.0,0.0,0.0,0.0,0.0,0.0,0.0,0.0,0.0,0.0,0.0,0.0,2.1027,2.1066,2.1753,2.2049,0.0,0.0,2.2027,2.1283,2.0964,2.0831,0.0,0.0,0.0,0.0,0.0,0.0,0.0,0.0,0.0,0.0,0.0,0.0,0.0,0.0,0.0,0.0,0.0,0.0,0.0,0.0,0.0,0.0,0.0,0.0,0.0,0.0,0.0,0.0,0.0,0.0,0.0,0.0,0.0,0.0,0.0,0.0,0.0,0.0,0.0,0.0,0.0,0.0,0.0,0.0,0.0,0.0,0.0,0.0,0.0,0.0,0.0,0.0,0.0,0.0,2.4632,2.6062,3.0294,3.252,3.2824,3.4526,3.5541,3.5793,3.2304,2.9043,0.0,0.0,0.0,0.0,0.0,0.0,0.0,0.0,0.0,0.0,0.0,0.0,0.0,0.0,0.0,0.0,0.0,0.0,0.0,0.0,0.0,0.0,0.0,0.0,0.0,0.0,0.0,0.0,0.0,0.0,0.0,0.0,0.0,0.0,0.0,0.0,0.0,0.0,0.0,0.0,0.0,2.1039,2.19,2.1716,2.1548,0.0,2.1573,2.1576,2.187,2.1445,2.1021,2.0912,0.0,0.0,0.0,0.0,0.0,0.0,0.0,0.0,0.0,0.0,0.0,0.0,0.0,0.0,0.0,0.0,0.0,0.0,0.0,0.0,0.0,0.0,0.0,0.0,0.0,0.0,0.0,0.0,0.0,0.0,0.0,0.0,0.0,0.0,0.0,0.0,0.0,0.0,0.0,0.0,0.0,0.0,0.0,0.0,0.0,0.0,0.0,0.0,0.0,0.0,0.0,0.0,0.0,2.5353,2.5651,2.9214,3.1634,3.2724,3.3452,3.4191,3.4984,3.2319,2.9308,0.0,0.0,0.0,0.0,0.0,0.0,0.0,0.0,0.0,0.0,0.0,0.0,0.0,0.0,0.0,0.0,0.0,0.0,0.0,0.0,0.0,0.0,0.0,0.0,0.0,0.0,0.0,0.0,1.4259,1.4694,1.4412,0.0,0.0,0.0,0.0,0.0,0.0,0.0,0.0,0.0,0.0,2.0342,2.0728,2.1583,0.0,0.0,2.1847,2.2177,2.2184,2.1717,2.1156,2.0446,2.0027,0.0,0.0,0.0,0.0,0.0,0.0,0.0,0.0,0.0,0.0,0.0,0.0,0.0,0.0,0.0,0.0,0.0,0.0,0.0,0.0,0.0,0.0,0.0,0.0,0.0,0.0,0.0,0.0,0.0,0.0,0.0,0.0,0.0,0.0,0.0,0.0,0.0,0.0,0.0,0.0,0.0,0.0,0.0,0.0,0.0,0.0,0.0,0.0,0.0,0.0,0.0,0.0,2.6471,2.6049,2.9687,3.2139,3.324,3.306,3.3408,3.4234,3.2593,3.0073,0.0,0.0,0.0,0.0,0.0,0.0,0.0,0.0,0.0,0.0,0.0,0.0,0.0,0.0,0.0,0.0,0.0,0.0,0.0,0.0,0.0,0.0,0.0,0.0,0.0,0.0,0.0,0.0,1.4437,1.4664,1.4237,0.0,0.0,0.0,0.0,0.0,0.0,0.0,0.0,0.0,0.0,2.0075,2.0438,2.1295,2.1722,2.1382,2.1509,2.1679,2.1566,2.1239,2.0794,2.0251,0.0,0.0,0.0,0.0,0.0,0.0,0.0,0.0,0.0,0.0,0.0,0.0,0.0,0.0,0.0,0.0,0.0,0.0,0.0,0.0,0.0,0.0,0.0,0.0,0.0,0.0,0.0,1.7397,0.0,0.0,1.7073,0.0,0.0,0.0,0.0,0.0,0.0,0.0,0.0,0.0,0.0,0.0,0.0,0.0,0.0,0.0,0.0,0.0,0.0,0.0,0.0,0.0,0.0,2.8391,2.7912,3.3031,3.5609,3.5108,3.4551,3.4271,3.4284,3.3663,3.2019,2.9117,0.0,0.0,0.0,0.0,0.0,0.0,0.0,0.0,0.0,0.0,0.0,0.0,0.0,0.0,0.0,0.0,0.0,0.0,0.0,0.0,0.0,0.0,0.0,0.0,0.0,0.0,1.2488,1.3132,1.3567,0.0,0.0,0.0,0.0,0.0,0.0,0.0,0.0,0.0,1.8752,1.9577,2.0388,2.1401,2.0729,2.0393,2.1154,2.0399,1.9737,1.989,1.9739,1.9759,0.0,0.0,0.0,0.0,0.0,0.0,0.0,0.0,0.0,0.0,0.0,0.0,0.0,0.0,0.0,0.0,0.0,0.0,0.0,0.0,0.0,0.0,0.0,0.0,0.0,0.0,0.0,1.8098,1.787,0.0,0.0,0.0,0.0,0.0,0.0,0.0,0.0,0.0,0.0,0.0,1.973,2.0339,0.0,0.0,0.0,0.0,0.0,0.0,0.0,0.0,0.0,0.0,0.0,0.0,2.7862,2.747,3.2666,3.5309,3.4882,3.4669,3.4474,3.4236,3.2332,2.9225,2.4733,0.0,0.0,0.0,0.0,0.0,0.0,0.0,0.0,0.0,0.0,0.0,0.0,0.0,0.0,0.0,0.0,0.0,0.0,0.0,0.0,0.0,0.0,0.0,0.0,0.0,1.3451,0.0,0.0,0.0,0.0,0.0,0.0,0.0,0.0,0.0,0.0,0.0,1.6965,1.8031,1.8813,1.945,1.9659,2.0107,2.0365,0.0,0.0,0.0,0.0,0.0,0.0,0.0,0.0,0.0,0.0,0.0,0.0,0.0,0.0,1.9402,1.8409,1.9111,1.9887,2.0182,0.0,0.0,0.0,0.0,0.0,0.0,0.0,0.0,0.0,0.0,0.0,0.0,0.0,0.0,1.8575,1.7978,1.8215,0.0,0.0,0.0,0.0,0.0,0.0,0.0,0.0,2.0406,2.0855,2.092,2.1573,2.1844,0.0,2.3024,2.3028,0.0,0.0,0.0,0.0,0.0,0.0,0.0,0.0,2.7378,2.7046,3.2338,3.4925,3.4488,3.3611,3.3054,3.2816,3.037,2.6908,2.2607,2.0858,1.8755,0.0,0.0,0.0,0.0,0.0,0.0,0.0,0.0,0.0,0.0,0.0,0.0,0.0,0.0,0.0,0.0,0.0,0.0,0.0,0.0,0.0,0.0,0.0,1.3885,0.0,0.0,0.0,0.0,0.0,0.0,0.0,0.0,0.0,1.5329,1.6241,1.7069,1.7805,1.8546,1.9097,1.923,0.0,0.0,0.0,0.0,0.0,0.0,0.0,1.9407,1.9112,1.893,1.8849,1.8961,1.9423,1.9835,2.0098,0.0,0.0,1.9353,2.0015,2.0759,2.1053,2.0834,2.0744,2.1164,2.1182,2.1182,0.0,0.0,0.0,0.0,1.904,0.0,0.0,0.0,1.9664,1.898,0.0,1.9103,0.0,0.0,0.0,0.0,1.7534,1.857,0.0,0.0,2.1728,2.2293,2.1975,2.1879,2.2027,2.237,2.4158,2.4128,2.249,2.2273,0.0,0.0,0.0,0.0,0.0,0.0,2.7026,2.6885,3.2102,3.4574,3.384,3.149,3.0138,2.9975,2.7708,2.5234,2.2895,2.26,2.1422,1.8797,1.6611,0.0,0.0,0.0,0.0,0.0,0.0,0.0,0.0,0.0,0.0,0.0,0.0,0.0,0.0,0.0,0.0,0.0,0.0,0.0,0.0,1.4027,0.0,0.0,0.0,0.0,0.0,0.0,0.0,0.0,0.0,0.0,1.6045,1.6792,1.7559,1.8159,0.0,0.0,0.0,0.0,1.9055,1.9996,1.9087,1.8348,1.8551,1.8602,1.8826,1.946,0.0,0.0,2.0355,2.0039,1.9934,2.0317,2.1272,2.1758,2.1105,2.1174,2.1423,2.163,2.1363,2.1199,2.1397,2.1665,2.176,1.997,0.0,0.0,0.0,0.0,1.997,2.0325,2.0941,2.0941,2.0595,1.9975,2.0326,0.0,0.0,0.0,0.0,0.0,0.0,2.0431,2.113,2.1829,2.3307,2.5288,2.3493,2.3642,2.541,2.4189,2.3341,2.2838,2.2792,2.2237,2.12,0.0,0.0,0.0,0.0,2.6738,2.6842,3.0032,3.0851,2.9028,2.8256,2.7098,2.5526,2.4759,2.3097,2.0489,2.0371,1.9568,1.7883,1.7165,0.0,0.0,0.0,0.0,0.0,0.0,0.0,0.0,0.0,0.0,0.0,0.0,0.0,0.0,0.0,0.0,0.0,0.0,0.0,1.4163,1.4977,1.5171,0.0,0.0,0.0,0.0,0.0,0.0,0.0,0.0,0.0,1.7645,1.8185,1.8614,0.0,0.0,1.9123,1.9363,1.9167,1.9103,1.9406,1.9294,0.0,1.8948,1.8863,1.8903,1.909,2.0084,2.0922,2.1131,2.1872,2.2434,2.2544,2.2862,2.2941,2.2797,2.2604,2.2513,2.2611,2.248,2.2431,2.2537,2.2595,2.2611,2.0773,2.0375,1.9726,2.0039,2.0934,2.0832,2.1186,2.1884,2.1884,2.1444,2.073,2.1362,2.0797,1.9327,1.9252,0.0,0.0,0.0,2.1247,2.2107,2.2322,2.3962,2.657,2.5261,2.5884,2.8342,2.7884,2.7102,2.6234,2.7057,2.6426,2.4419,0.0,0.0,2.4967,2.7463,2.8138,2.7101,2.9399,2.9472,2.7112,2.6052,2.4392,2.2107,2.1994,2.1231,1.9589,1.9522,1.9149,1.8348,1.7846,1.6897,0.0,0.0,0.0,0.0,0.0,0.0,0.0,0.0,0.0,0.0,0.0,1.3464,1.2786,0.0,0.0,0.0,1.4977,1.522,1.5621,1.598,0.0,0.0,0.0,0.0,0.0,0.0,0.0,1.7621,1.8047,1.8487,1.885,1.921,1.9341,1.9097,1.9152,1.9214,1.9202,0.0,1.9369,1.9393,1.9548,1.9614,1.9467,1.9394,1.9331,1.9362,2.0117,2.0886,2.1302,2.2024,2.2626,2.2886,2.313,2.3313,2.3313,2.3379,2.3366,2.3244,2.3211,2.3211,2.3211,2.3203,2.3211,2.1187,2.0624,1.9979,2.0359,2.1454,2.1578,2.195,2.253,2.2546,2.1808,2.0756,2.2073,2.1588,1.9741,2.0016,0.0,2.1278,2.1287,2.1904,2.3016,2.3033,2.4499,2.7104,2.6938,2.8382,3.1273,3.3315,3.3151,3.0886,3.2729,3.2163,2.8997,2.6843,2.6487,2.7949,3.0175,2.9929,2.7192,2.9234,2.9207,2.675,2.4424,2.2092,1.982,1.9766,1.9773,1.9759,1.9766,1.9712,1.9725,1.8691,1.8051,1.7868,0.0,0.0,0.0,0.0,0.0,0.0,0.0,0.0,0.0,0.0,0.0,0.0,0.0,0.0,0.0,1.6429,0.0,1.7671,1.7041,0.0,0.0,0.0,1.7179,1.7184,1.8248,1.8877,1.8686,0.0,0.0,1.9639,1.9771,1.9768,1.9389,1.9503,1.9605,1.953,1.9683,1.9791,1.9741,1.9829,1.9897,1.9856,1.9926,1.9979,2.0025,2.0161,2.0478,2.0973,2.1243,2.1457,2.2,2.2573,2.2998,2.3006,2.3407,2.3836,2.3504,2.3508,2.3569,2.3569,2.3569,2.3569,2.1426,2.1221,2.0755,2.0897,2.1515,2.2034,2.2424,2.2651,2.2659,2.256,2.2396,2.2763,2.2643,2.2164,2.2237,2.2384,2.2562,2.2692,2.2961,2.3255,2.3341,2.5767,2.9884,2.8119,2.956,3.3689,3.2562,3.0734,2.85,2.8939,2.8216,2.6318,2.5681,2.6038,2.7266,2.7364,2.6411,2.4467,2.4439,2.3582,2.1852,2.1218,2.0608,2.0058,2.0105,2.0119,2.0003,2.0112,2.0112,1.9997,1.9725,1.9101,1.8077,1.6463,0.0,0.0,0.0,0.0,0.0,0.0,0.0,0.0,0.0,1.4617,1.3491,0.0,1.515,0.0,1.7385,1.8174,1.8012,1.7998,0.0,0.0,1.7886,1.8179,1.8747,1.9217,1.9497,1.9368,1.9705,1.9882,1.9882,1.9969,1.9954,1.9941,1.9845,1.9829,1.9803,1.99,1.9935,1.9953,2.0003,2.0036,2.0083,2.0092,2.0114,2.014,2.054,2.0906,2.1092,2.1527,2.1829,2.1953,2.2139,2.2263,2.227,2.2387,2.2681,2.3089,2.3566,2.3996,2.3934,2.3934,2.3934,2.1115,2.0898,2.0929,2.109,2.1358,2.2008,2.2523,2.2846,2.2846,2.2903,2.3,2.3081,2.3163,2.3236,2.3236,2.3236,2.3244,2.3333,2.3382,2.3442,2.4606,2.732,3.1058,3.0987,3.2988,3.6689,3.5506,3.4203,3.2895,3.1754,3.0452,2.9009,2.7844,2.6683,2.5633,2.5727,2.484,2.2953,2.1518,2.0613,2.0215,2.0261,2.0017,1.9434,1.9481,1.9144,1.8538,1.8593,1.8593,1.8518,1.8511,1.8199,1.7514,1.6286,1.51,0.0,0.0,0.0,0.0,0.0,0.0,0.0,0.0,0.0,0.0,0.0,1.6096,1.6673,1.8005,1.8742,1.8378,1.8537,1.869,1.8663,1.8825,1.9178,1.9682,1.9881,1.9935,1.9897,2.0111,2.0228,2.0228,2.0228,2.0251,2.0405,2.0317,2.0221,1.9999,2.0062,2.0138,2.0152,2.023,2.0295,2.0295,2.0295,2.0295,2.0302,2.0546,2.086,2.086,2.1111,2.1354,2.1354,2.1612,2.1863,2.1863,2.2113,2.2426,2.2801,2.3176,2.355,2.4035,2.4126,2.4126,2.0555,2.0271,2.0767,2.1027,2.1019,2.1694,2.2339,2.3033,2.3033,2.3049,2.3073,2.3228,2.3382,2.3528,2.3528,2.3528,2.3528,2.3528,2.3476,2.3681,2.5826,2.8205,3.0787,3.3623,3.6257,3.8624,3.9302,3.9435,3.9104,3.6725,3.4555,3.2562,3.0156,2.6968,2.3324,2.4068,2.3597,2.1612,1.9781,1.9264,2.009,2.009,1.9509,1.8379,1.8325,1.7812,1.6619,1.6605,1.6619,1.6585,1.6619,1.6761,1.6932,1.5542,1.4434,0.0,1.2277,0.0,0.0,0.0,0.0,0.0,0.0,0.0,0.0,1.6846,1.7206,1.7341,1.8018,1.8317,1.7825,1.7961,1.8127,1.8323,1.8726,1.9057,1.9116,1.924,1.9267,1.9267,1.9687,2.002,1.9866,2.0275,2.0648,2.075,2.0793,2.066,2.0358,2.0302,2.039,2.0417,2.0455,2.06,2.06,2.0537,2.0537,2.0537,2.06,2.0537,2.06,2.06,2.06,2.0664,2.111,2.1492,2.1492,2.2001,2.2382,2.2509,2.2573,2.2848,2.3628,2.3914,2.4067,2.0657,2.016,2.0407,2.0524,2.0599,2.1323,2.2262,2.3263,2.3263,2.3293,2.3431,2.3463,2.3496,2.3528,2.3528,2.3528,2.3528,2.3528,2.3609,2.3755,2.4235,2.5929,2.8611,3.1258,3.3811,3.6303,3.8537,3.862,3.6757,3.5669,3.2305,2.6736,2.5567,2.3318,2.0042,0.0,0.0,0.0,1.8917,1.9217,1.9373,1.8491,1.7833,1.746,1.7568,0.0,1.6709,1.706,1.7141,1.6917,1.7121,0.0,0.0,0.0,0.0,0.0,0.0,0.0,0.0,0.0,0.0,0.0,0.9807,1.1412,1.3979,1.6528,1.7257,1.5493,1.5635,1.5128,1.3502,1.3436,1.3532,1.3628,1.3778,1.3861,1.3875,1.3902,1.39,1.3965,1.5933,1.7377,1.7501,1.9404,2.079,2.0622,2.096,2.0926,2.0644,2.0638,2.0865,2.0878,2.0872,2.0906,2.0912,2.0899,2.0885,2.0912,2.0912,2.0906,2.0899,2.0899,2.0906,2.0899,2.1049,2.11,2.11,2.1236,2.1538,2.2004,2.2133,2.2232,2.2736,2.3291,2.3677,2.1033,2.0867,2.1316,2.1466,0.0,2.2228,2.2869,2.339,2.339,2.3447,2.3528,2.3528,2.3528,2.3528,2.3528,2.3524,2.3666,2.3666,2.3764,2.3987,2.5266,2.6577,2.8014,3.0678,3.2619,3.3893,3.5051,3.4986,3.3757,3.179,2.8925,2.5216,2.3617,2.1842,1.9915,1.9647,1.9137,1.8481,1.9122,1.9719,2.0254,1.9793,1.9196,1.8552,1.8586,0.0,0.0,0.0,0.0,0.0,0.0,0.0,0.0,1.4217,0.0,1.1226,0.923,0.7779,0.7055,0.6883,0.6761,0.6672,0.7915,0.9742,1.2137,1.4242,1.4866,1.3678,1.3666,1.3358,1.2376,1.2316,1.2345,1.2345,1.2385,1.2413,1.2417,1.2384,1.2412,1.2478,1.3655,1.457,1.4575,1.575,1.676,1.6875,1.6886,1.7039,1.728,1.9372,2.1001,2.1001,2.1001,2.1001,2.1001,2.1001,2.1007,2.1001,2.1001,2.1001,2.1001,2.1001,2.1001,2.1001,2.1001,2.1001,2.1001,2.1001,2.113,2.139,2.152,2.1543,2.1818,2.2623,2.3296,2.1192,2.137,2.1895,2.2123,2.2184,2.2879,2.3303,2.3577,2.3484,0.0,0.0,2.35,2.3577,2.3577,2.3609,2.3707,2.3845,2.3853,2.3942,2.4237,2.63,2.7292,2.7452,3.0014,3.1326,3.1275,3.1319,3.134,3.1216,2.8414,2.6501,2.5403,2.3288,2.1704,2.0963,2.1313,2.0973,1.9922,1.978,2.0214,2.1163,2.0992,2.0402,1.9401,1.9253,1.8653,1.7486,1.7374,1.7266,1.7206,1.6582,1.5344,1.3368,1.2439,1.0699,0.804,0.7532,0.6777,0.5299,0.5133,0.4851,0.4273,0.6255,0.8444,1.0359,1.1694,1.2174,1.172,1.1654,1.1496,1.0972,1.0906,1.0972,1.0975,1.0986,1.0928,1.0931,1.0945,1.0696,1.1014,1.1285,1.1738,1.1811,1.2337,1.2547,1.2743,1.3227,1.2788,1.3374,1.6593,1.9325,1.992,1.9992,2.0299,2.0951,2.1095,2.1075,2.1102,2.1095,2.1075,2.1075,2.1075,2.1075,2.1109,2.1082,2.1089,2.1089,2.1102,2.1075,2.1082,2.1075,2.1075,2.114,2.1922,2.2637,2.0326,2.0271,2.0264,2.027,2.0386,2.1409,2.2586,2.3755,2.3601,2.3528,2.3536,2.3699,2.3764,2.378,2.3918,2.4069,2.4023,2.4023,2.4121,2.43,2.4665,2.4927,2.5202,2.7208,2.8208,2.8333,2.9829,3.0647,3.0522,2.9537,2.7935,2.5833,2.4787,2.3309,2.1531,2.1665,2.1726,2.1523,2.0546,2.0119,2.0268,1.8701,1.7723,1.7402,1.6858,1.6227,1.5778,1.6045,1.6015,1.5748,1.3611,1.2535,1.2883,0.9099,0.692,0.7166,0.5732,0.4661,0.4366,0.4368,0.4317,0.4214,0.4547,0.5903,0.846,1.0977,1.1416,0.919,0.8877,0.7894,0.5729,0.5535,0.5735,0.5537,0.5499,0.5451,0.5716,0.5744,0.5829,0.5896,0.7636,0.9099,0.9293,1.1027,1.2293,1.265,1.1908,1.2591,1.2465,1.3458,1.5105,1.7031,1.7767,1.8767,2.0078,2.1241,2.0818,2.1374,2.1089,2.101,2.0937,2.1208,2.1274,2.1301,2.128,2.1287,2.1294,2.138,2.1287,2.1346,2.1274,2.1346,2.1346,2.1545,2.1798,2.0658,2.0727,2.1044,2.1176,2.1231,2.1778,2.2543,2.3389,2.3302,2.3515,2.3829,2.391,2.395,2.395,2.4085,2.4121,2.421,2.4218,2.4308,2.447,2.447,2.433,2.4142,2.5017,2.5261,2.4946,2.5361,2.5676,2.5621,2.5083,2.4167,2.3127,2.2996,2.2448,2.163,2.1855,2.1841,2.1559,2.1229,2.0913,2.0594,1.976,1.9052,1.8679,1.8299,1.8119,1.7935,1.804,1.7246,1.5503,1.4163,1.2245,0.9545,0.7203,0.5522,0.447,0.3571,0.3248,0.3646,0.3993,0.4067,0.3734,0.4067,0.4733,0.5995,0.7296,0.7478,0.6292,0.6113,0.5663,0.44,0.4267,0.4267,0.4268,0.4281,0.4287,0.429,0.43,0.4308,0.4377,0.545,0.6253,0.6253,0.7392,0.8197,0.8262,0.8262,0.8264,0.8329,0.8329,0.9867,1.3809,1.4877,1.5348,1.6619,1.6819,1.6752,1.6752,1.8156,1.8959,1.9292,2.0101,2.1236,2.1375,2.1368,2.1375,2.1375,2.1368,2.1375,2.1375,2.1375,2.1375,2.1375,2.1375,2.1426,2.102,2.1132,2.1713,2.2042,2.2139,2.2176,2.2471,2.2951,2.3169,2.3534,2.393,2.4083,2.4059,2.3943,2.3976,2.3948,2.3943,2.3896,2.396,2.4142,2.415,2.3834,2.3392,2.3265,2.2886,2.2316,2.1682,2.1379,2.1365,2.0972,2.0811,2.0912,2.1319,2.1537,2.1518,2.1739,2.1596,2.106,2.1279,2.1288,2.0851,2.0651,2.0288,1.9897,1.9683,1.9279,1.8643,1.8484,1.7035,1.4092,1.3117,1.0567,0.6324,0.5389,0.4099,0.2187,0.2064,0.2337,0.2939,0.349,0.3568,0.3029,0.35,0.3904,0.4037,0.402,0.414,0.4277,0.4428,0.4374,0.4305,0.4307,0.4309,0.4309,0.4309,0.4307,0.4308,0.4309,0.4309,0.4309,0.4309,0.4377,0.4309,0.4309,0.4577,0.4644,0.4309,0.4309,0.4309,0.4309,0.6389,0.9468,1.1474,1.2406,1.2674,1.3141,1.3208,1.2941,1.4743,1.5948,1.6614,1.8555,2.0161,2.0294,2.1037,2.1302,2.1375,2.1375,2.1375,2.1375,2.1375,2.1375,2.1375,2.1375,2.1341,2.0912,2.1014,2.0969,2.1159,2.1562,2.1754,2.2101,2.261,2.3381,2.3683,2.363,2.4131,2.3941,2.3457,2.3583,2.3345,2.2855,2.2736,2.2807,2.2815,2.2822,2.2759,2.2632,2.2062,2.1745,2.1618,2.0991,2.0748,2.0922,2.0841,2.0912,2.119,2.1625,2.1497,2.1015,2.1125,2.0928,2.018,2.0224,2.0224,2.0167,1.9544,1.914,1.9077,1.8388,1.678,1.4257,1.397,1.2605,0.9552,0.7007,0.5255,0.4411,0.2696,0.1477,0.1276,0.1815,0.2219,0.2287,0.2355,0.2423,0.2288,0.2355,0.2693,0.3231,0.3296,0.3632,0.4102,0.4239,0.4308,0.4309,0.4309,0.4309,0.4309,0.4309,0.4309,0.4309,0.4309,0.4309,0.4309,0.4309,0.4309,0.4309,0.4309,0.4309,0.4309,0.4309,0.4309,0.4309,0.4309,0.4377,0.5651,0.7258,0.9867,1.1671,1.2807,1.2139,1.241,1.2941,1.3275,1.3809,1.5543,1.7612,1.7751,1.9624,2.0838,2.1103,2.1375,2.1375,2.1375,2.1375,2.1375,2.1375,2.1375,2.1355,2.0939,2.1001,2.1021,2.113,2.1335,2.1397,2.1667,2.2159,2.2849,2.3108,2.3075,2.3637,2.3732,2.3417,2.3171,2.2886,2.2632,2.2632,2.2632,2.2632,2.2632,2.2379,2.1999,2.1745,2.1365,2.0998,2.0755,2.0709,2.0726,2.0557,2.0554,2.0692,2.0621,2.0377,2.0194,2.0382,2.01,1.9423,1.7667,1.6551,1.6209,1.6278,1.6139,1.5513,1.37,1.2094,1.0905,1.0765,0.9356,0.6476,0.5105,0.3632,0.1846,0.0948,0.0404,0.0471,0.1145,0.1346,0.0943,0.1683,0.2019,0.1615,0.1952,0.2355,0.2557,0.2625,0.276,0.3097,0.377,0.4309,0.4309,0.4309,0.4309,0.4309,0.4309,0.4309,0.4309,0.4309,0.4309,0.4309,0.4309,0.4309,0.4309,0.4309,0.4309,0.4309,0.4309,0.4309,0.4309,0.4309,0.4309,0.4444,0.5383,0.632,0.7795,0.7795,0.7929,0.813,0.9331,1.0333,1.0734,1.274,1.461,1.4676,1.708,1.8754,1.8754,2.0499,2.1375,2.1375,2.1375,2.1375,2.1375,2.1375,2.1375,2.1082,2.1129,2.1231,2.1272,2.1272,2.1272,2.1391,2.1681,2.2377,2.2517,2.2453,2.289,2.3058,2.2956,2.2506,2.2274,2.2128,2.2128,2.2157,2.213,2.213,2.186,2.1372,2.1372,2.1089,2.0637,2.0695,2.0746,2.0589,2.0161,2.0012,1.9987,1.9712,1.9015,1.823,1.8343,1.7622,1.611,1.3988,1.2682,1.2199,1.1866,1.1877,1.1954,1.0068,0.8532,0.7694,0.7694,0.6296,0.3431,0.3249,0.2265,0.0,0.0,0.0,0.0,0.0471,0.0539,0.0,0.101,0.1346,0.0943,0.1346,0.1683,0.1885,0.1884,0.2019,0.2288,0.3164,0.3702,0.3971,0.4175,0.4309,0.4309,0.4309,0.4309,0.4309,0.4309,0.4309,0.4309,0.4309,0.4309,0.4309,0.4309,0.4309,0.4309,0.4309,0.4309,0.4309,0.4309,0.4309,0.4309,0.4309,0.4377,0.4309,0.4779,0.4309,0.4644,0.6387,0.7392,0.7658,0.9934,1.1671,1.2002,1.4405,1.5876,1.6214,1.8089,2.0765,2.1169,2.1368,2.1368,2.1375,2.1375,2.1375,2.1285,2.1408,2.1355,2.1421,2.1362,2.1355,2.1333,2.1294,2.1962,2.2125,2.1868,2.1911,2.1832,2.1767,2.1718,2.1393,2.0999,2.1013,2.1024,2.1141,2.1154,2.1021,2.0834,2.0821,2.0752,2.0537,2.0658,2.0466,1.9997,1.9489,1.937,1.9177,1.883,1.7544,1.4863,1.4539,1.2943,1.037,0.9529,0.914,0.88,0.6482,0.643,0.8592,0.8812,0.7205,0.5109,0.469,0.3361,0.0351,0.0,0.0,0.0,0.0,0.0,0.0,0.0,0.0,0.0,0.0,0.0,0.0,0.0,0.0404,0.1077,0.1144,0.1413,0.2087,0.2221,0.2625,0.3164,0.377,0.4175,0.4242,0.4242,0.4309,0.4309,0.4309,0.4309,0.4309,0.4309,0.4309,0.4309,0.4309,0.4309,0.4309,0.4309,0.4309,0.4309,0.4309,0.4309,0.4309,0.4309,0.4309,0.4309,0.4309,0.4309,0.4442,0.4712,0.4846,0.5584,0.6521,0.7926,0.9395,1.1537,1.2941,1.3542,1.5481,1.8422,1.9895,2.1037,2.1309,2.1375,2.1375,2.1375,2.1784,2.1375,2.1375,2.1375,2.1375,2.1375,2.1353,2.1276,2.1932,2.182,2.1457,2.1753,2.166,2.1217,2.1224,2.1068,2.0848,2.0872,2.0946,2.1001,2.1001,2.0973,2.0912,2.0824,2.0804,2.078,2.0368,1.9027,1.6933,1.6204,1.4948,1.3275,1.2706,1.1805,1.0908,1.0803,1.0089,0.8837,0.7146,0.6055,0.5851,0.3176,0.2214,0.3113,0.3207,0.2732,0.1682,0.1612,0.1121,0.0,0.0,0.0,0.0,0.0,0.0,0.0,0.0,0.0,0.0,0.0,0.0,0.0,0.0,0.0,0.0337,0.0404,0.0539,0.0808,0.1279,0.1615,0.2019,0.2895,0.3635,0.3635,0.4039,0.4242,0.4309,0.4309,0.4309,0.4309,0.4309,0.4309,0.4309,0.4309,0.4309,0.4309,0.4309,0.4309,0.4309,0.4309,0.4309,0.4309,0.4309,0.4309,0.4309,0.4309,0.4309,0.4309,0.4444,0.451,0.4913,0.5046,0.6185,0.6721,0.8664,1.0199,1.1002,1.3805,1.6547,1.8017,1.9292,2.0698,2.1375,2.1169,2.1236,2.1839,2.1441,2.1375,2.1375,2.1375,2.1375,2.1314,2.1285,2.1746,2.1597,2.1219,2.1524,2.1432,2.1079,2.1048,2.1014,2.0926,2.1028,2.1095,2.1143,2.1143,2.1116,2.1048,2.0919,2.0769,2.0337,1.8682,1.6293,1.3516,1.2607,1.127,0.9459,0.8792,0.8143,0.7499,0.7369,0.7051,0.5856,0.4031,0.3078,0.2737,0.1098,0.0,0.0,0.0,0.0,0.0,0.0,0.0,0.0,0.0,0.0,0.0,0.0,0.0,0.0,0.0,0.0,0.0,0.0,0.0,0.0,0.0,0.0,0.0,0.0,0.0,0.0,0.0404,0.0741,0.0943,0.1817,0.2625,0.2895,0.35,0.3904,0.3971,0.4175,0.4309,0.4309,0.4309,0.4309,0.4309,0.4309,0.4309,0.4309,0.4309,0.4309,0.4309,0.4309,0.4309,0.4309,0.432,0.4324,0.4332,0.4339,0.4323,0.432,0.4317,0.4315,0.4316,0.4315,0.4381,0.4715,0.5651,0.7191,0.9395,1.2202,1.4076,1.5615,1.7551,1.9159,1.9962,2.0831,2.0765,2.1441,2.1375,2.1375,2.1375,2.1375,2.1389,2.1382,2.1441,2.1448,2.1387,2.1285,2.131,2.1263,2.1089,2.1197,2.1218,2.1204,2.1211,2.1279,2.1321,2.1335,2.1326,2.119,2.0996,2.0214,1.9185,1.5599,1.2382,0.9721,0.8993,0.846,0.8326,0.779,0.6385,0.4304,0.4172,0.2961,0.0,0.0,0.0,0.0,0.0,0.0,0.0,0.0,0.0,0.0,0.0,0.0,0.0,0.0,0.0,0.0,0.0,0.0,0.0,0.0,0.0,0.0,0.0,0.0,0.0,0.0,0.0,0.0,0.0,0.0,0.0,0.0,0.0,0.0,0.0741,0.1481,0.2086,0.276,0.3164,0.3299,0.3838,0.4242,0.4246,0.425,0.4312,0.4312,0.432,0.4323,0.4322,0.432,0.4322,0.4324,0.4324,0.4315,0.432,0.4338,0.4354,0.4365,0.4373,0.435,0.4332,0.433,0.4328,0.4334,0.4335,0.4338,0.454,0.454,0.6024,0.7213,0.9761,1.1083,1.2686,1.5086,1.7019,1.7485,1.8156,1.9829,2.1375,2.1375,2.1375,2.1375,2.1389,2.155,2.1597,2.1611,2.1699,2.1713,2.1679,2.1672,2.1597,2.1489,2.1509,2.1469,2.1307,2.1367,2.1328,2.1362,2.1375,2.136,2.1093,2.0646,1.8773,1.5614,1.2453,0.9235,0.6511,0.5779,0.4773,0.3094,0.0,0.222,0.0,0.1279,0.0741,0.0,0.0,0.0,0.0,0.0,0.0,0.0,0.0,0.0,0.0,0.0,0.0,0.0,0.0,0.0,0.0,0.0,0.0,0.0,0.0,0.0,0.0,0.0,0.0,0.0,0.0,0.0,0.0,0.0,0.0,0.0,0.0,0.0,0.0,0.0202,0.0674,0.1346,0.2086,0.2492,0.263,0.3178,0.3525,0.3664,0.4086,0.4302,0.4371,0.4371,0.4298,0.4367,0.4368,0.4368,0.4369,0.4365,0.4372,0.4375,0.4386,0.4386,0.4392,0.4401,0.4394,0.4375,0.4365,0.4353,0.4357,0.4358,0.4361,0.4362,0.4364,0.4765,0.5967,0.7103,0.8576,1.0023,1.2225,1.3421,1.4147,1.5481,1.7152,2.1375,2.1375,2.1375,2.1375,2.1395,2.1604,2.1672,2.1692,2.1821,2.1882,2.1869,2.1821,2.1753,2.1739,2.1618,2.153,2.1375,2.1375,2.1375,2.1375,2.1375,2.1221,2.0502,1.863,1.5913,1.2152,0.9093,0.5976,0.2825,0.2624,0.1817,0.0,0.0,0.0,0.0,0.0,0.0,0.0,0.0,0.0,0.0,0.0,0.0,0.0,0.0,0.0,0.0,0.0,0.0,0.0,0.0,0.0,0.0,0.0,0.0,0.0,0.0,0.0,0.0,0.0,0.0,0.0,0.0,0.0,0.0,0.0,0.0,0.0,0.0,0.0,0.0,0.0,0.0,0.061,0.1354,0.1895,0.217,0.2587,0.2867,0.3007,0.3221,0.3641,0.3918,0.3987,0.4126,0.4263,0.4401,0.4401,0.4401,0.4399,0.4402,0.4406,0.441,0.4412,0.4416,0.4424,0.4433,0.4421,0.4409,0.4394,0.4386,0.4386,0.4387,0.4386,0.4386,0.4383,0.5324,0.58,0.6948,0.8335,0.9513,1.052,1.1529,1.2953,1.4481,2.1375,2.1375,2.1375,2.1382,2.1416,2.1631,2.1713,2.1733,2.1869,2.1937,2.1909,2.1815,2.1787,2.1665,2.157,2.1416,2.1375,2.1375,2.1309,2.1302,2.1149,2.0673,1.8983,1.5502,1.2129,0.8983,0.5693,0.2825,0.0,0.0,0.0,0.0,0.0,0.0,0.0,0.0,0.0,0.0,0.0,0.0,0.0,0.0,0.0,0.0,0.0,0.0,0.0,0.0,0.0,0.0,0.0,0.0,0.0,0.0,0.0,0.0,0.0,0.0,0.0,0.0,0.0,0.0,0.0,0.0,0.0,0.0,0.0,0.0,0.0,0.0,0.0,0.0,0.0,0.0,0.0683,0.1297,0.1921,0.2061,0.2132,0.2133,0.2201,0.2478,0.3172,0.3241,0.3516,0.393,0.4138,0.421,0.4279,0.4214,0.4341,0.4418,0.4437,0.4441,0.4447,0.4451,0.4459,0.4454,0.4444,0.4433,0.4421,0.442,0.4421,0.4418,0.4413,0.4407,0.4539,0.5086,0.5217,0.5881,0.695,0.7954,0.8949,1.0071,1.1383,2.1375,2.1375,2.1375,2.1509,2.1625,2.1767,2.1889,2.2004,2.2147,2.2194,2.2174,2.2059,2.1909,2.1815,2.1665,2.155,2.1395,2.1375,2.111,2.0692,2.0528,1.8473,1.5437,1.2078,0.8879,0.5753,0.2955,0.0741,0.0,0.0,0.0,0.0,0.0,0.0,0.0,0.0,0.0,0.0,0.0,0.0,0.0,0.0,0.0,0.0,0.0,0.0,0.0,0.0,0.0,0.0,0.0,0.0,0.0,0.0,0.0,0.0,0.0,0.0,0.0,0.0,0.0,0.0,0.0,0.0,0.0,0.0,0.0,0.0,0.0,0.0,0.0,0.0,0.0,0.0,0.0069,0.0274,0.0688,0.1036,0.1385,0.1454,0.1808,0.216,0.2369,0.2509,0.2649,0.2928,0.3275,0.3624,0.3689,0.3968,0.4033,0.4391,0.4473,0.4474,0.4477,0.4481,0.4484,0.4481,0.4476,0.4471,0.4465,0.4463,0.4466,0.4466,0.4455,0.4448,0.4437,0.4637,0.4421,0.4414,0.5016,0.6162,0.5753,0.6358,0.7823,2.1375,2.1375,2.1375,2.153,2.1679,2.1828,2.1971,2.212,2.2269,2.2227,2.2221,2.2079,2.1937,2.1787,2.1638,2.153,2.1382,2.111,2.0745,1.9993,1.8277,1.6075,1.3177,0.9516,0.6113,0.423,0.1346,0.0,0.0,0.0,0.0,0.0,0.0,0.0,0.0,0.0,0.0,0.0,0.0,0.0,0.0,0.0,0.0,0.0,-0.1817,-0.1817,0.0,0.0,0.0,0.0,0.0,0.0,0.0,0.0,0.0,0.0,0.0,0.0,0.0,0.0,0.0,0.0,0.0,0.0,0.0,0.0,0.0,0.0,0.0,0.0,0.0,-0.1037,-0.118,-0.0418,-0.1111,-0.1316,0.0,0.0417,0.0627,0.0,0.098,0.1403,0.1684,0.1754,0.1894,0.2174,0.2663,0.2803,0.2943,0.3367,0.3647,0.3717,0.3997,0.3925,0.4064,0.4136,0.4278,0.4346,0.4488,0.4488,0.4488,0.4488,0.4486,0.4484,0.4486,0.4484,0.4467,0.4458,0.4458,0.4447,0.4429,0.4418,0.4418,0.4414,0.5629,2.1375,2.1375,2.1375,2.1536,2.1706,2.1828,2.1984,2.2147,2.2283,2.2255,2.2113,2.1957,2.1828,2.1732,2.1543,2.1382,2.1242,2.0711,1.982,1.7923,1.4988,1.2012,1.1211,0.7038,0.4336,0.3225,0.1077,0.0,0.0,0.0,0.0,0.0,0.0,0.0,0.0,0.0,0.0,0.0,0.0,0.0,0.0,0.0,0.0,-0.4437,-0.4704,-0.4771,-0.4168,-0.2758,0.0,0.0,-0.0404,0.0,0.0,0.0,0.0,0.0,0.0,0.0,0.0,0.0,0.0,0.0,0.0,-0.027,0.0,0.0,0.0,0.0,0.0,0.0,0.0,-0.3627,-0.3355,-0.203,-0.3078,-0.2801,0.0,0.0,0.0,0.0,0.0,0.0351,0.0701,0.0,0.1193,0.1333,0.1824,0.2035,0.2245,0.2526,0.2665,0.2666,0.2946,0.3297,0.3506,0.3717,0.3927,0.4137,0.4418,0.4488,0.4488,0.4488,0.4488,0.4488,0.4488,0.4488,0.4484,0.4481,0.4481,0.4476,0.4456,0.445,0.4446,0.4439,0.5184,2.1375,2.1375,2.1375,2.1597,2.1815,2.1876,2.2038,2.2214,2.2254,2.2249,2.2099,2.195,2.1801,2.1652,2.1443,2.111,2.0572,2.0028,1.87,1.4466,0.8888,0.6501,0.6181,0.4324,0.3006,0.0,0.0,0.0,0.0,0.0,0.0,0.0,0.0,0.0,0.0,0.0,0.0,0.0,-0.2153,-0.3429,-0.3966,-0.5443,-0.6783,-0.7723,-0.7723,-0.7655,-0.7655,-0.7119,-0.6783,-0.5711,0.0,0.0,0.0,-0.2355,-0.3295,-0.3765,-0.5309,-0.5577,-0.3899,-0.3363,-0.3363,-0.3231,-0.1895,-0.095,-0.3053,-0.1433,-0.158,-0.2826,-0.3595,-0.4369,-0.6063,-0.7336,-0.6436,-0.462,-0.4341,-0.3781,0.0,0.0,0.0,0.0,0.0,0.0,0.0,0.0,0.0,0.0,0.0,0.0,0.0,0.0,0.1754,0.1754,0.2105,0.2455,0.2596,0.2945,0.3296,0.3577,0.3857,0.4207,0.4278,0.4348,0.4278,0.4348,0.4488,0.4488,0.4488,0.4488,0.4485,0.4482,0.4481,0.4474,0.4466,0.4461,0.4455,2.1375,2.1375,2.1375,2.157,2.1774,2.1855,2.2018,2.2215,2.2247,2.2215,2.2025,2.1909,2.1632,2.1103,2.095,2.0579,1.9539,1.7897,1.5102,1.1032,0.6348,0.3647,0.2266,0.2138,0.0,0.0,0.0,0.0,0.0,0.0,0.0,0.0,0.0,0.0,0.0,-0.1346,0.0,0.0,-0.5173,-0.6848,-0.7251,-0.8519,-1.033,-1.0801,-1.0805,-1.0604,-1.0604,-0.913,-0.8661,-0.7857,-0.5779,-0.4034,-0.4101,-0.5443,-0.6181,-0.6649,-0.7454,-0.8058,-0.6651,-0.6399,-0.6413,-0.6411,-0.4892,-0.5315,-0.5942,-0.4943,-0.4966,-0.6093,-0.6667,-0.7318,-0.8806,-1.0556,-0.937,-0.7694,-0.7834,-0.7275,-0.455,0.0,0.0,0.0,0.0,0.0,0.0,0.0,0.0,0.0,0.0,0.0,0.0,0.0,0.0,0.0982,0.1403,0.1684,0.1754,0.2105,0.2526,0.2736,0.2946,0.3437,0.3718,0.3927,0.4067,0.4278,0.4488,0.4488,0.4488,0.4488,0.4488,0.4486,0.4485,0.4486,0.4485,0.4476,0.4471,2.1375,2.1375,2.1375,2.153,2.1686,2.1821,2.1977,2.2127,2.2242,2.214,2.1916,2.1794,2.1149,2.0558,2.0253,1.9702,1.7672,1.4551,1.1117,0.7722,0.4625,0.2191,0.0,0.0,0.0,0.0,0.0,0.0,0.0,0.0,0.0,0.0,0.0,0.0,0.0,-0.343,-0.504,-0.5643,-0.8455,-1.0393,-1.0794,-1.1727,-1.34,-1.4347,-1.4352,-1.4085,-1.3684,-1.2143,-1.0467,-1.0065,-0.9934,-0.9867,-0.98,-0.9331,-0.9264,-0.9331,-1.0148,-1.0228,-0.9639,-0.9402,-0.9438,-0.9441,-0.8818,-0.9122,-0.9276,-0.8834,-0.8734,-0.9515,-1.0167,-1.0759,-1.0556,-1.2581,-1.2442,-1.0765,-1.1954,-1.1745,-0.8812,-0.3991,0.0,0.0,0.0,0.0,0.0,0.0,0.0,0.0,0.0,0.0,0.0,0.0,0.0,0.0,0.0772,0.0912,0.0982,0.1473,0.1894,0.2035,0.2175,0.2666,0.3087,0.3157,0.3436,0.4207,0.4488,0.4418,0.4418,0.4488,0.4488,0.4488,0.4488,0.4488,0.4488,0.4488,0.4485,2.1375,2.1375,2.1375,2.153,2.1679,2.1821,2.1964,2.2099,2.214,2.2052,2.1815,2.1148,2.0748,2.0212,1.9709,1.7844,1.4952,1.1343,0.7975,0.5168,0.0,0.0,0.0,0.0,0.0,0.0,0.0,0.0,0.0,0.0,0.0,0.0,-0.2489,-0.3564,-0.4437,-0.6316,-0.8323,-0.9189,-1.1868,-1.3609,-1.4472,-1.6015,-1.7285,-1.7967,-1.7635,-1.7629,-1.7768,-1.7102,-1.6635,-1.6568,-1.604,-1.5639,-1.4781,-1.3233,-1.2363,-1.2572,-1.3973,-1.4143,-1.2735,-1.2463,-1.2502,-1.198,-1.0873,-1.0775,-1.1348,-1.0766,-1.1077,-1.2694,-1.4591,-1.6084,-1.6432,-1.6363,-1.5449,-1.3843,-1.2934,-1.2651,-0.9579,-0.6576,-0.4271,-0.4271,0.0,0.0,0.0,0.0,0.0,0.0,0.0,0.0,0.0,0.0,0.0,0.0,0.014,0.014,0.021,0.0772,0.1263,0.1403,0.1543,0.1964,0.2315,0.2385,0.2805,0.3577,0.4067,0.4207,0.4278,0.4348,0.4488,0.4418,0.4488,0.4488,0.4488,0.4488,0.4488,2.1375,2.1375,2.1375,2.1482,2.1584,2.1787,2.1923,2.1998,2.2072,2.182,2.1334,2.0785,2.004,1.9407,1.8911,1.6699,1.2867,0.8307,0.5616,0.3654,0.0,0.0,0.0,0.0,0.0,0.0,0.0,-0.1279,0.0,0.0,-0.2086,-0.2959,-0.5107,-0.6649,-0.7653,-0.9931,-1.1534,-1.2999,-1.5415,-1.7363,-1.769,-1.937,-1.9775,-1.9842,-1.9509,-1.9304,-1.9237,-1.9044,-1.8511,-1.8129,-1.7913,-1.7674,-1.7019,-1.6239,-1.5167,-1.5417,-1.6571,-1.6971,-1.5693,-1.543,-1.5556,-1.5438,-1.4066,-1.4252,-1.4963,-1.4717,-1.4048,-1.5449,-1.6502,-1.7908,-1.7694,-1.7908,-1.7132,-1.6219,-1.5662,-1.4892,-1.3282,-1.0696,-0.923,-0.7764,0.0,0.0,0.0,0.0,0.0,0.0,0.0,0.0,0.0,0.0,0.0,0.0,0.0,0.0,0.0,0.0,0.0,0.0,0.0912,0.1333,0.1543,0.1614,0.2104,0.2805,0.3296,0.3366,0.3787,0.3788,0.4067,0.4348,0.4418,0.4418,0.4488,0.4488,0.4488,2.0858,2.1335,2.1362,2.1375,2.1416,2.1726,2.1774,2.1659,2.1685,2.1258,2.047,1.9487,1.8347,1.7335,1.6066,1.4083,1.0727,0.593,0.4164,0.2727,0.0,0.0,0.0,0.0,0.0,0.0,-0.3093,-0.3228,-0.222,-0.3832,-0.4973,-0.6045,-0.8125,-0.9931,-1.0999,-1.3475,-1.501,-1.6752,-1.8627,-2.0319,-2.0585,-2.0585,-2.0585,-2.0585,-2.0041,-1.9769,-1.9908,-1.9642,-1.9207,-1.8715,-1.8378,-1.8111,-1.7543,-1.7511,-1.7527,-1.7467,-1.7527,-1.7565,-1.7467,-1.7479,-1.7273,-1.7204,-1.764,-1.7747,-1.7688,-1.7191,-1.7485,-1.7908,-1.7908,-1.7908,-1.7908,-1.7908,-1.7838,-1.7763,-1.7624,-1.7555,-1.6502,-1.4609,-1.2512,-0.9719,-0.5039,0.0,0.0,0.0,0.0,0.0,0.0,0.0,0.0,0.0,0.0,0.0,0.0,0.0,0.0,0.0,0.0,0.0,0.0,0.0561,0.0772,0.0842,0.0,0.0,0.1753,0.1894,0.2526,0.3227,0.3437,0.3717,0.4067,0.4348,0.4418,0.4488,0.4488,1.9055,2.1186,2.1321,2.1375,2.1329,2.1558,2.129,2.0679,2.0557,2.0362,1.8754,1.6266,1.4697,1.3792,1.0965,0.8196,0.5921,0.4418,0.2714,0.1067,0.0,0.0,0.0,0.0,0.0,-0.4031,-0.5236,-0.4703,-0.5105,-0.7186,-0.8192,-0.8926,-1.1537,-1.3475,-1.4076,-1.6553,-1.8971,-1.9642,-2.018,-2.0711,-2.111,-2.1176,-2.1176,-2.1176,-2.111,-2.097,-2.0844,-2.0459,-1.9977,-1.9402,-1.8766,-1.8162,-1.7647,-1.7636,-1.7685,-1.7685,-1.7696,-1.7701,-1.7717,-1.7799,-1.7864,-1.7859,-1.7897,-1.7908,-1.7908,-1.7908,-1.7908,-1.7908,-1.7908,-1.7908,-1.7908,-1.7908,-1.7908,-1.7908,-1.7908,-1.7908,-1.7485,-1.6641,-1.4748,-1.3212,-0.9091,-0.6646,0.0,0.0,0.0,0.0,0.0,0.0,0.0,0.0,0.0,0.0,0.0,0.0,0.0,0.0,0.0,0.0,0.0,0.0,0.0,0.0,0.0,0.0,0.0,0.0,0.1684,0.2315,0.2736,0.3087,0.3437,0.3927,0.4418,0.4418,0.4348,1.3896,1.6577,1.8227,1.8959,1.9231,2.0377,1.9857,1.8286,1.7684,1.6189,1.4098,1.2455,1.1343,1.0208,0.7473,0.5523,0.4099,0.2649,0.0,0.0,0.0,0.0,0.0,0.0,0.0,-0.5907,-0.8851,-1.1125,-1.0928,-1.1263,-1.2202,-1.267,-1.5215,-1.7296,-1.7163,-1.9038,-2.0107,-2.0711,-2.0977,-2.111,-2.1302,-2.1375,-2.1375,-2.1375,-2.1375,-2.1375,-2.1322,-2.127,-2.0782,-2.0147,-1.956,-1.8945,-1.8337,-1.8025,-1.7821,-1.7826,-1.7821,-1.7826,-1.7832,-1.788,-1.7897,-1.7908,-1.7908,-1.7908,-1.7908,-1.7908,-1.7908,-1.7908,-1.7908,-1.7908,-1.7908,-1.7908,-1.7908,-1.7908,-1.7908,-1.7908,-1.7763,-1.7202,-1.601,-1.4753,-1.3352,-1.0835,-0.8253,0.0,0.0,0.0,0.0,0.0,0.0,0.0,0.0,0.0,0.0,0.0,0.0,0.0,0.0,0.0,0.0,0.0,0.0,0.0,0.0,0.0,0.0,0.0,0.0,0.1403,0.1894,0.2315,0.2736,0.3227,0.3647,0.3858,0.3858,0.8686,1.0935,1.4533,1.5989,1.5989,1.76,1.6861,1.4707,1.3986,1.2237,0.9909,0.8742,0.7667,0.6229,0.4267,0.3097,0.2994,0.0933,0.0,0.0,-0.0202,0.0,-0.1346,-0.3562,-0.6041,-0.7043,-1.2127,-1.4938,-1.6209,-1.6547,-1.6409,-1.6209,-1.7962,-1.9443,-2.018,-2.0512,-2.0911,-2.1242,-2.1309,-2.1375,-2.1375,-2.1375,-2.1375,-2.1375,-2.1375,-2.1375,-2.1462,-2.1584,-2.1256,-2.0689,-2.0313,-1.9759,-1.8869,-1.846,-1.8089,-1.7955,-1.7886,-1.7891,-1.7891,-1.7902,-1.7908,-1.7908,-1.7908,-1.7908,-1.7908,-1.7908,-1.7908,-1.7908,-1.7908,-1.7908,-1.7908,-1.7908,-1.7908,-1.7908,-1.7908,-1.7908,-1.7838,-1.7416,-1.7202,-1.6502,-1.5314,-1.4191,-1.1606,-0.8951,0.0,0.0,0.0,-0.0631,0.0,0.0,0.0,0.0,0.0,0.0,0.0,0.0,0.0,0.0,0.0,0.0,0.0,0.0,0.0,0.0,0.0,0.0,0.0,0.0,0.1052,0.1543,0.2035,0.2385,0.2736,0.3087,0.3437,0.4522,0.5178,1.0719,1.2674,1.2224,1.2285,1.1634,1.0392,1.0117,0.9392,0.7745,0.5946,0.3389,0.0,0.0,0.0725,0.04,0.0133,0.0,0.0,-0.0673,-0.1413,-0.2891,-0.5372,-0.8586,-1.1259,-1.5138,-1.8083,-1.9962,-1.9829,-1.963,-1.9376,-1.9842,-2.0247,-2.0579,-2.0977,-2.1176,-2.1375,-2.1375,-2.1375,-2.1375,-2.1375,-2.1375,-2.1375,-2.1375,-2.1375,-2.1448,-2.1604,-2.1531,-2.0963,-2.081,-2.0395,-1.9509,-1.8921,-1.8527,-1.818,-1.7977,-1.7908,-1.7908,-1.7908,-1.7908,-1.7908,-1.7908,-1.7908,-1.7908,-1.7908,-1.7908,-1.7908,-1.7908,-1.7908,-1.7908,-1.7908,-1.7908,-1.7908,-1.7908,-1.7908,-1.7908,-1.7908,-1.7699,-1.7838,-1.7063,-1.5871,-1.517,-1.2512,-0.7834,-0.4061,-0.1542,0.0,0.0,0.0,0.0,0.0,0.0,0.0,0.0,0.0,0.0,0.0,0.0,0.0,0.0,0.0,0.0,0.0,0.0,0.0,0.0,0.0,0.0,0.0,0.1333,0.1614,0.2175,0.2666,0.3017,0.3502,0.3694,0.55,0.7355,0.9201,0.9979,0.913,0.7172,0.6497,0.5062,0.0,0.2075,0.1039,0.0,0.0,-0.0264,-0.06,-0.067,-0.1007,-0.2016,-0.3094,-0.4167,-0.5976,-0.9189,-1.3266,-1.4872,-1.7612,-1.969,-2.1037,-2.1368,-2.1236,-2.0844,-2.0844,-2.0977,-2.1176,-2.1242,-2.1375,-2.1375,-2.1375,-2.1375,-2.1375,-2.1375,-2.1375,-2.1375,-2.1375,-2.1375,-2.1409,-2.1686,-2.1599,-2.1516,-2.1292,-2.0796,-2.0167,-1.9556,-1.9007,-1.8597,-1.8249,-1.7972,-1.7977,-1.7908,-1.7908,-1.7908,-1.7908,-1.7908,-1.7908,-1.7908,-1.7908,-1.7908,-1.7908,-1.7908,-1.7908,-1.7908,-1.7908,-1.7908,-1.7908,-1.7908,-1.7908,-1.7908,-1.7908,-1.7908,-1.7833,-1.7271,-1.678,-1.6149,-1.0905,-0.5879,-0.3501,0.0,0.0,0.0,0.0,0.0,0.0,0.0,0.0,0.0,0.0,0.0,0.0,0.0,0.0,0.0,0.0,0.0,0.0,0.0,0.0,0.0,0.0,0.0,0.0,0.0701,0.1403,0.2175,0.2455,0.2774,0.2706,0.2081,0.3185,0.5491,0.6527,0.5758,0.3951,0.3164,0.1933,0.0,0.0,-0.013,-0.0262,-0.0395,-0.073,-0.1269,-0.1544,-0.242,-0.3765,-0.5441,-0.705,-0.9657,-1.2732,-1.581,-1.728,-1.9491,-2.1368,-2.1375,-2.1375,-2.1302,-2.1302,-2.1375,-2.1375,-2.1375,-2.1375,-2.1375,-2.1375,-2.1375,-2.1375,-2.1375,-2.1375,-2.1375,-2.1375,-2.1375,-2.1375,-2.1509,-2.1692,-2.1848,-2.1767,-2.1647,-2.1468,-2.0941,-2.0324,-1.9631,-1.9146,-1.8736,-1.8249,-1.818,-1.7977,-1.7908,-1.7908,-1.7908,-1.7908,-1.7908,-1.7908,-1.7908,-1.7908,-1.7908,-1.7908,-1.7908,-1.7908,-1.7908,-1.7908,-1.7908,-1.7908,-1.7908,-1.7908,-1.7908,-1.7908,-1.7838,-1.7763,-1.6924,-1.6149,-1.2512,-0.7624,-0.4829,0.0,0.0,0.0,0.0,0.0,0.0,0.0,0.0,0.0,0.0,0.0,0.0,0.0,0.0,0.0,0.0,0.0,0.0,0.0,0.0,0.0,0.0,0.0,0.0,0.0,0.0631,0.1333,0.1684,0.2073,0.1937,0.132,0.114,0.1532,0.1277,0.1026,0.0,0.0,0.0,0.0,0.0,-0.0455,-0.092,-0.0989,-0.1463,-0.2213,-0.2556,-0.3766,-0.5978,-0.8321,-0.9593,-1.2198,-1.5405,-1.7884,-1.8017,-1.9829,-2.1375,-2.1375,-2.1375,-2.1375,-2.1375,-2.1375,-2.1375,-2.1375,-2.1375,-2.1375,-2.1375,-2.1375,-2.1375,-2.1375,-2.1375,-2.1375,-2.1375,-2.1375,-2.1375,-2.1436,-2.1726,-2.1869,-2.1862,-2.2037,-2.1833,-2.1362,-2.1079,-2.0595,-2.0116,-1.9423,-1.9007,-1.8944,-1.8319,-1.7977,-1.7908,-1.7908,-1.7908,-1.7908,-1.7908,-1.7908,-1.7908,-1.7908,-1.7908,-1.7908,-1.7908,-1.7908,-1.7908,-1.7908,-1.7908,-1.7908,-1.7908,-1.7908,-1.7908,-1.7908,-1.7763,-1.6854,-1.5518,-1.2864,-0.951,-0.6366,0.0,0.0,0.0,0.0,0.0,0.0,0.0,0.0,0.0,0.0,0.0,0.0,0.0,0.0,0.0,0.0,0.0,0.0,0.0,0.0,0.0,0.0,0.0,0.0,0.0,0.0,0.0,0.0,0.1366,0.1301,0.0621,0.0313,0.0317,0.0318,0.0192,0.0,0.0,0.0,0.0,-0.0454,-0.0784,-0.1185,-0.1856,-0.2467,-0.3292,-0.5377,-0.6918,-0.8256,-1.1534,-1.4005,-1.6143,-1.795,-1.9763,-2.0161,-2.1169,-2.1375,-2.1375,-2.1375,-2.1375,-2.1375,-2.1375,-2.1375,-2.1375,-2.1375,-2.1375,-2.1375,-2.1375,-2.1375,-2.1375,-2.1375,-2.1375,-2.1375,-2.1375,-2.1375,-2.1389,-2.1726,-2.1855,-2.1909,-2.2174,-2.2103,-2.1777,-2.157,-2.1155,-2.0733,-2.0186,-1.9493,-1.9007,-1.8388,-1.7977,-1.7908,-1.7908,-1.7908,-1.7908,-1.7908,-1.7908,-1.7908,-1.7908,-1.7908,-1.7908,-1.7908,-1.7908,-1.7908,-1.7908,-1.7908,-1.7908,-1.7908,-1.7908,-1.7908,-1.7908,-1.7908,-1.7346,-1.678,-1.447,-1.1327,-0.8183,-0.5529,0.0,0.0,0.0,0.0,0.0,0.0,0.0,0.0,0.0,0.0,0.0,0.0,0.0,0.0,0.0,0.0,0.0,0.0,0.0,0.0,0.0,0.0,0.0,0.0,0.0,0.0,0.0,0.0679,0.0617,0.0185,0.0,0.0,0.0,-0.0128,-0.0322,-0.0387,-0.0452,-0.084,-0.13,-0.2357,-0.3163,-0.3849,-0.5407,-0.6582,-0.8326,-1.0664,-1.1801,-1.5077,-1.7213,-1.8887,-2.03,-2.0831,-2.1375,-2.1375,-2.1375,-2.1375,-2.1375,-2.1375,-2.1375,-2.1375,-2.1375,-2.1375,-2.1375,-2.1375,-2.1375,-2.1375,-2.1375,-2.1375,-2.1375,-2.1375,-2.1375,-2.1375,-2.1375,-2.1502,-2.1652,-2.1835,-2.1937,-2.2093,-2.2283,-2.2109,-2.1922,-2.157,-2.1362,-2.0872,-2.0186,-1.9493,-1.8736,-1.8458,-1.8388,-1.8111,-1.7908,-1.7908,-1.7908,-1.7908,-1.7908,-1.7908,-1.7908,-1.7908,-1.7908,-1.7908,-1.7908,-1.7908,-1.7908,-1.7908,-1.7908,-1.7908,-1.7908,-1.7908,-1.7908,-1.7908,-1.7624,-1.6641,-1.3282,-0.9998,-0.7415,-0.4621,0.0,0.0,0.0,0.0,0.0,0.0,0.0,0.0,0.0,0.0,0.0,0.0,0.0,0.0,0.0,0.0,0.0,0.0,0.0,0.0,0.0,0.0,0.0,0.0,0.0,0.0,0.0,0.0,0.0,0.0,0.0,0.0,-0.0764,-0.1032,-0.1032,-0.1484,-0.2324,-0.2537,-0.432,-0.7106,-0.7622,-0.9206,-1.1656,-1.2473,-1.4209,-1.6009,-1.7485,-1.9159,-2.0367,-2.1236,-2.1375,-2.1375,-2.1375,-2.1375,-2.1375,-2.1375,-2.1375,-2.1375,-2.1375,-2.1375,-2.1375,-2.1375,-2.1375,-2.1375,-2.1375,-2.1375,-2.1375,-2.1375,-2.1375,-2.1375,-2.1375,-2.1375,-2.1496,-2.1611,-2.1753,-2.1889,-2.2038,-2.2188,-2.2214,-2.2268,-2.2274,-2.206,-2.1494,-2.0803,-2.0186,-1.9423,-1.9077,-1.8938,-1.8388,-1.8111,-1.7908,-1.7908,-1.7908,-1.7908,-1.7908,-1.7908,-1.7908,-1.7908,-1.7908,-1.7908,-1.7908,-1.7908,-1.7908,-1.7908,-1.7908,-1.7908,-1.7908,-1.7908,-1.7908,-1.7763,-1.7485,-1.5662,-1.2303,-0.8951,-0.5949,0.0,0.0,0.0,0.0,0.0,0.0,0.0,0.0,0.0,0.0,0.0,0.0,0.0,0.0,0.0,0.0,0.0,0.0,0.0,0.0,0.0,0.0,0.0,0.0,0.0,0.0,0.0,0.0,-0.0494,-0.0682,-0.1062,-0.3349,-0.313,-0.1225,-0.1548,-0.2902,-0.5027,-0.5677,-0.7675,-1.0323,-1.1041,-1.2038,-1.34,-1.4877,-1.6081,-1.7618,-1.9092,-2.0433,-2.1103,-2.1375,-2.1375,-2.1375,-2.1375,-2.1375,-2.1375,-2.1375,-2.1375,-2.1375,-2.1375,-2.1375,-2.1375,-2.1375,-2.1375,-2.1375,-2.1375,-2.1375,-2.1375,-2.1375,-2.1375,-2.1375,-2.1375,-2.1375,-2.1475,-2.1577,-2.172,-2.1869,-2.2025,-2.2181,-2.2323,-2.2344,-2.2274,-2.2199,-2.1639,-2.1079,-2.0809,-2.0186,-1.977,-1.9631,-1.9077,-1.8388,-1.8111,-1.7977,-1.7977,-1.7908,-1.7908,-1.7908,-1.7908,-1.7908,-1.7908,-1.7908,-1.7908,-1.7908,-1.7908,-1.7908,-1.7908,-1.7908,-1.7908,-1.7908,-1.7908,-1.7908,-1.7555,-1.671,-1.4609,-1.0975,-0.7345,-0.3292,0.0,0.0,0.0,0.0,0.0,0.0,0.0,0.0,0.0,0.0,0.0,0.0,0.0,0.0,0.0,0.0,0.0,0.0,0.0,0.0,0.0,0.0,0.0,0.0,0.0,-0.098,-0.1972,-0.2651,-0.3533,-0.4881,-0.7066,-0.6753,-0.5335,-0.5537,-0.6949,-0.8567,-0.9204,-1.1034,-1.3485,-1.4371,-1.5343,-1.6681,-1.8023,-1.9026,-1.9497,-2.0499,-2.1037,-2.1368,-2.1375,-2.1375,-2.1375,-2.1375,-2.1375,-2.1375,-2.1375,-2.1375,-2.1375,-2.1375,-2.1375,-2.1375,-2.1375,-2.1375,-2.1375,-2.1375,-2.1375,-2.1375,-2.1375,-2.1375,-2.1375,-2.1375,-2.1375,-2.1375,-2.1557,-2.1652,-2.1794,-2.1943,-2.2093,-2.2235,-2.2296,-2.2337,-2.2199,-2.1991,-2.1708,-2.1501,-2.0947,-2.067,-2.0393,-1.9839,-1.9354,-1.8736,-1.8388,-1.8111,-1.7908,-1.7908,-1.7908,-1.7908,-1.7908,-1.7908,-1.7908,-1.7908,-1.7908,-1.7908,-1.7908,-1.7908,-1.7908,-1.7908,-1.7908,-1.7908,-1.7908,-1.7694,-1.6993,-1.517,-1.1954,-0.8532,-0.4969,-0.1892,0.0,0.0,0.0,0.0,0.0,0.0,0.0,0.0,0.0,0.0,0.0,0.0,0.0,0.0,0.0,0.0,0.0,0.0,0.0,0.0,0.0,0.0,0.0,0.0,-0.3117,-0.5346,-0.6027,-0.7625,-1.0043,-1.1004,-1.1473,-1.1743,-1.1819,-1.2203,-1.2629,-1.2787,-1.4435,-1.6711,-1.7434,-1.8682,-1.9563,-2.0566,-2.0632,-2.1309,-2.1169,-2.1375,-2.1375,-2.1375,-2.1375,-2.1375,-2.1375,-2.1375,-2.1375,-2.1375,-2.1375,-2.1375,-2.1375,-2.1375,-2.1375,-2.1375,-2.1375,-2.1375,-2.1375,-2.1375,-2.1375,-2.1375,-2.1375,-2.1375,-2.1375,-2.1375,-2.1375,-2.1402,-2.1509,-2.1665,-2.1815,-2.1964,-2.2154,-2.2269,-2.2323,-2.2274,-2.2199,-2.2129,-2.1991,-2.1576,-2.1362,-2.1086,-2.0595,-2.0255,-1.9701,-1.8799,-1.8388,-1.818,-1.818,-1.7977,-1.7908,-1.7908,-1.7908,-1.7908,-1.7908,-1.7908,-1.7908,-1.7908,-1.7908,-1.7908,-1.7908,-1.7908,-1.7908,-1.7908,-1.7908,-1.7271,-1.6149,-1.3212,-1.0138,-0.6856,-0.3711,-0.1051,0.0,0.0,0.0,0.0,0.0,0.0,0.0,0.0,0.0,0.0,0.0,0.0,0.0,0.0,0.0,0.0,0.0,0.0,0.0,0.0,0.0,0.0,0.0,-0.7868,-0.8534,-0.9319,-1.0415,-1.1866,-1.401,-1.5078,-1.5408,-1.746,-1.7008,-1.5715,-1.5892,-1.7255,-1.94,-1.9889,-2.0752,-2.1103,-2.1395,-2.1375,-2.1395,-2.1395,-2.1489,-2.1389,-2.1422,-2.1395,-2.1375,-2.1375,-2.1382,-2.1375,-2.1375,-2.1375,-2.1375,-2.1375,-2.1375,-2.1375,-2.1375,-2.1375,-2.1375,-2.1375,-2.1375,-2.1375,-2.1375,-2.1375,-2.1375,-2.1375,-2.1375,-2.1375,-2.1375,-2.153,-2.1665,-2.1808,-2.2018,-2.2269,-2.2316,-2.2337,-2.2344,-2.2344,-2.2344,-2.2274,-2.206,-2.1922,-2.1777,-2.1432,-2.1086,-2.0457,-1.9423,-1.873,-1.8597,-1.8388,-1.8116,-1.7908,-1.7908,-1.7908,-1.7908,-1.7908,-1.7908,-1.7908,-1.7908,-1.7908,-1.7908,-1.7908,-1.7908,-1.7908,-1.7908,-1.7908,-1.7838,-1.7694,-1.5801,-1.2725,-0.951,-0.5669,-0.2872,-0.0491,0.0,0.0,0.0,0.0,0.0,0.0,0.0,0.0,0.0,0.0,0.0,0.0,0.0,0.0,0.0,0.0,0.0,0.0,0.0,0.0,0.0,0.0,-1.0731,-1.1968,-1.3954,-1.5022,-1.5802,-1.7311,-1.8022,-1.8457,-1.9871,-1.9643,-1.8394,-1.8634,-1.9553,-2.0942,-2.1179,-2.1408,-2.1448,-2.1523,-2.155,-2.1557,-2.1584,-2.1597,-2.1591,-2.1591,-2.1591,-2.157,-2.1543,-2.153,-2.1389,-2.1375,-2.1375,-2.1375,-2.1375,-2.1375,-2.1375,-2.1375,-2.1375,-2.1375,-2.1375,-2.1375,-2.1375,-2.1375,-2.1375,-2.1375,-2.1375,-2.1375,-2.1375,-2.1375,-2.1422,-2.1618,-2.176,-2.2032,-2.2242,-2.2337,-2.2344,-2.2344,-2.2344,-2.2344,-2.2344,-2.2344,-2.2344,-2.2129,-2.206,-2.1639,-2.157,-2.0538,-1.9493,-1.9285,-1.8799,-1.8527,-1.8047,-1.7908,-1.7908,-1.7908,-1.7908,-1.7908,-1.7908,-1.7908,-1.7908,-1.7908,-1.7908,-1.7908,-1.7908,-1.7908,-1.7908,-1.7908,-1.7838,-1.678,-1.4052,-1.2094,-0.8253,-0.4831,-0.2522,0.0,0.0,0.0,0.0,0.0,0.0,0.0,0.0,0.0,0.0,0.0,0.0,0.0,0.0,0.0,0.0,0.0,0.0,0.0,0.0,0.0,0.0,-1.3122,-1.5482,-1.8303,-1.9685,-1.9888,-1.9975,-2.0068,-2.0217,-2.0415,-2.0476,-2.0298,-2.0426,-2.0831,-2.1007,-2.115,-2.1313,-2.1462,-2.1584,-2.1645,-2.1726,-2.1801,-2.176,-2.176,-2.1794,-2.1733,-2.1679,-2.1645,-2.1543,-2.1375,-2.1375,-2.1375,-2.1375,-2.1375,-2.1375,-2.1375,-2.1375,-2.1375,-2.1375,-2.1375,-2.1375,-2.1375,-2.1375,-2.1375,-2.1375,-2.1375,-2.1375,-2.1375,-2.1375,-2.1375,-2.1557,-2.1726,-2.1998,-2.2201,-2.2316,-2.2344,-2.2344,-2.2344,-2.2344,-2.2344,-2.2344,-2.2344,-2.2274,-2.2344,-2.2205,-2.206,-2.1576,-2.0532,-1.9909,-1.9423,-1.8805,-1.8319,-1.7977,-1.7977,-1.7908,-1.7908,-1.7908,-1.7908,-1.7908,-1.7908,-1.7908,-1.7908,-1.7908,-1.7908,-1.7908,-1.7908,-1.7908,-1.7346,-1.6079,-1.4748,-1.3352,-1.0905,-0.7484,-0.4621,0.0,0.0,0.0,0.0,0.0,0.0,0.0,0.0,0.0,0.0,0.0,0.0,0.0,0.0,0.0,0.0,0.0,0.0,0.0,0.0,0.0,0.0,-1.7804,-1.8525,-1.9415,-1.9746,-1.9881,-2.0037,-2.0187,-2.028,-2.0415,-2.0539,-2.0546,-2.058,-2.0729,-2.1007,-2.115,-2.134,-2.1584,-2.1686,-2.1767,-2.1848,-2.1923,-2.1882,-2.1862,-2.1896,-2.1794,-2.1747,-2.1692,-2.1584,-2.1489,-2.1389,-2.1375,-2.1375,-2.1375,-2.1375,-2.1375,-2.1375,-2.1375,-2.1375,-2.1375,-2.1375,-2.1375,-2.1375,-2.1375,-2.1375,-2.1375,-2.1375,-2.1375,-2.1375,-2.1375,-2.153,-2.1713,-2.1957,-2.214,-2.2276,-2.233,-2.2344,-2.2344,-2.2344,-2.2344,-2.2344,-2.2344,-2.2344,-2.2344,-2.2274,-2.2199,-2.2205,-2.1369,-2.074,-2.0186,-1.9285,-1.8666,-1.818,-1.8041,-1.7977,-1.7908,-1.7908,-1.7908,-1.7908,-1.7908,-1.7908,-1.7908,-1.7908,-1.7908,-1.7908,-1.7908,-1.7908,-1.7908,-1.6785,-1.6502,-1.4962,-1.3352,-1.0556,-0.7415,0.0,0.0,0.0,0.0,0.0,0.0,0.0,0.0,0.0,0.0,0.0,0.0,0.0,0.0,0.0,0.0,0.0,0.0,0.0,0.0,0.0,0.0]},{"header":{"parameterUnit":"m.s-1","parameterCategory":1,"la1":31.0,"la2":29.5877,"lo1":-88.7671,"lo2":-86.6584,"dy":0.0162,"dx":0.0185,"nx":115,"ny":88,"refTime":"2023-11-10T18:00:00:Z","depth":0,"parameterNumber":3,"parameterNumberName":"V-component_of_WINDS"},"data":[0.0,0.0,0.0,0.0,0.0,0.0,0.0,0.0,0.0,0.0,0.0,0.0,0.0,0.0,0.0,0.0,0.0,0.0,0.0,0.0,0.0,0.0,0.0,0.0,0.0,0.0,0.0,0.0,0.0,0.0,0.0,0.0,0.0,0.0,0.0,0.0,0.0,0.0,0.0,0.0,0.0,0.0,0.0,0.0,0.0,0.0,0.0,0.0,0.0,0.0,0.0,0.0,0.0,0.0,0.0,0.0,0.0,0.0,0.0,0.0,0.0,0.0,0.0,0.0,0.0,0.0,0.0,0.0,0.0,0.0,0.0,0.0,0.0,0.0,0.0,0.0,0.0,0.0,0.0,0.0,0.0,0.0,0.0,0.0,0.0,0.0,0.0,0.0,0.0,0.0,0.0,0.0,0.0,0.0,0.0,0.0,0.0,0.0,0.0,0.0,0.0,0.0,0.0,0.0,0.0,0.0,0.0,0.0,0.0,0.0,0.0,0.0,0.0,0.0,0.0,0.0,0.0,0.0,0.0,0.0,0.0,0.0,0.0,0.0,0.0,0.0,0.0,0.0,0.0,0.0,0.0,0.0,0.0,0.0,0.0,0.0,0.0,0.0,0.0,0.0,0.0,0.0,0.0,0.0,0.0,0.0,0.0,0.0,0.0,0.0,0.0,0.0,0.0,0.0,0.0,0.0,0.0,0.0,0.0,0.0,0.0,0.0,0.0,0.0,0.0,0.0,0.0,0.0,0.0,0.0,0.0,0.0,0.0,0.0,0.0,0.0,0.0,0.0,0.0,0.0,0.0,0.0,0.0,0.0,0.0,0.0,0.0,0.0,0.0,0.0,0.0,0.0,0.0,0.0,0.0,0.0,0.0,0.0,0.0,0.0,0.0,0.0,0.0,0.0,0.0,0.0,0.0,0.0,0.0,0.0,0.0,0.0,0.0,0.0,0.0,0.0,0.0,0.0,0.0,0.0,0.0,0.0,0.0,0.0,0.0,0.0,0.0,0.0,0.0,0.0,0.0,0.0,0.0,0.0,0.0,0.0,0.0,0.0,0.0,0.0,0.0,0.0,0.0,0.0,0.0,0.0,0.0,0.0,0.0,0.0,0.0,0.0,0.0,0.0,0.0,0.0,0.0,0.0,0.0,0.0,0.0,0.0,0.0,0.0,0.0,0.0,0.0,0.0,0.0,0.0,0.0,0.0,0.0,0.0,0.0,0.0,0.0,0.0,0.0,0.0,0.0,0.0,0.0,0.0,0.0,0.0,0.0,0.0,0.0,0.0,0.0,0.0,0.0,0.0,0.0,0.0,0.0,0.0,0.0,0.0,0.0,0.0,0.0,0.0,0.0,0.0,0.0,0.0,0.0,0.0,0.0,0.0,0.0,0.0,0.0,0.0,0.0,0.0,0.0,0.0,0.0,0.0,0.0,0.0,0.0,0.0,0.0,0.0,0.0,0.0,0.0,0.0,0.0,0.0,0.0,0.0,0.0,0.0,0.0,0.0,0.0,0.0,0.0,0.0,0.0,0.0,0.0,0.0,0.0,0.0,0.0,0.0,0.0,0.0,0.0,0.0,0.0,0.0,0.0,0.0,0.0,0.0,0.0,0.0,0.0,0.0,0.0,0.0,0.0,0.0,0.0,0.0,0.0,0.0,0.0,0.0,0.0,0.0,0.0,0.0,0.0,0.0,0.0,0.0,0.0,0.0,0.0,0.0,0.0,0.0,0.0,0.0,0.0,0.0,0.0,0.0,0.0,0.0,0.0,0.0,0.0,0.0,0.0,0.0,0.0,0.0,0.0,0.0,0.0,0.0,0.0,0.0,0.0,0.0,0.0,0.0,0.0,0.0,0.0,0.0,0.0,0.0,0.0,0.0,0.0,0.0,0.0,0.0,0.0,0.0,0.0,0.0,0.0,0.0,0.0,0.0,0.0,0.0,0.0,0.0,0.0,0.0,0.0,0.0,0.0,0.0,0.0,0.0,0.0,0.0,0.0,0.0,0.0,0.0,0.0,0.0,0.0,0.0,0.0,0.0,0.0,0.0,0.0,0.0,0.0,0.0,0.0,0.0,0.0,0.0,0.0,0.0,0.0,0.0,0.0,0.0,0.0,0.0,0.0,0.0,0.0,0.0,0.0,0.0,0.0,0.0,0.0,0.0,0.0,0.0,0.0,0.0,0.0,0.0,0.0,0.0,0.0,0.0,0.0,0.0,0.0,0.0,0.0,0.0,0.0,0.0,0.0,0.0,0.0,0.0,0.0,0.0,0.0,0.0,0.0,0.0,0.0,0.0,0.0,0.0,0.0,0.0,0.0,0.0,0.0,0.0,0.0,0.0,0.0,0.0,0.0,0.0,0.0,0.0,0.0,0.0,0.0,0.0,0.0,0.0,0.0,0.0,0.0,0.0,0.0,0.0,0.0,0.0,0.0,0.0,0.0,0.0,0.0,0.0,0.0,0.0,0.0,0.0,0.0,0.0,0.0,0.0,0.0,0.0,0.0,0.0,0.0,0.0,0.0,0.0,0.0,0.0,0.0,0.0,0.0,0.0,0.0,0.0,0.0,0.0,0.0,0.0,0.0,0.0,0.0,0.0,0.0,0.0,0.0,0.0,0.0,0.0,0.0,0.0,0.0,0.0,0.0,0.0,0.0,0.0,0.0,0.0,0.0,0.0,0.0,0.0,0.0,0.0,0.0,0.0,0.0,0.0,0.0,0.0,0.0,0.0,0.0,0.0,0.0,0.0,0.0,0.0,0.0,0.0,0.0,0.0,0.0,0.0,0.0,0.0,0.0,0.0,0.0,0.0,0.0,0.0,0.0,0.0,0.0,0.0,0.0,0.0,0.0,0.0,0.0,0.0,0.0,0.0,0.0,0.0,0.0,0.0,0.0,0.0,0.0,0.0,0.0,0.0,0.0,0.0,0.0,0.0,0.0,0.0,0.0,0.0,0.0,0.0,0.0,0.0,0.0,0.0,0.0,0.0,0.0,0.0,0.0,0.0,0.0,0.0,0.0,0.0,0.0,0.0,0.0,0.0,0.0,0.0,0.0,0.0,0.0,0.0,0.0,0.0,0.0,0.0,0.0,0.0,0.0,0.0,0.0,0.0,0.0,0.0,0.0,0.0,0.0,0.0,0.0,0.0,0.0,0.0,0.0,0.0,0.0,0.0,0.0,0.0,0.0,0.0,0.0,0.0,0.0,0.0,0.0,0.0,0.0,0.0,0.0,0.0,0.0,0.0,0.0,0.0,0.0,0.0,0.0,0.0,0.0,0.0,0.0,0.0,0.0,0.0,0.0,0.0,0.0,0.0,0.0,0.0,0.0,0.0,0.0,0.0,0.0,0.0,0.0,0.0,0.0,0.0,0.0,0.0,0.0,0.0,0.0,0.0,0.0,0.0,0.0,0.0,0.0,0.0,0.0,0.0,0.0,0.0,0.0,0.0,0.0,0.0,0.0,0.0,0.0,0.0,0.0,0.0,0.0,0.0,0.0,0.0,0.0,0.0,0.0,0.0,0.0,0.0,0.0,0.0,0.0,0.0,0.0,0.0,0.0,0.0,0.0,0.0,0.0,0.0,0.0,0.0,0.0,0.0,0.0,0.0,0.0,0.0,0.0,0.0,0.0,0.0,0.0,0.0,0.0,0.0,0.0,0.0,0.0,0.0,0.0,0.0,0.0,0.0,0.0,0.0,0.0,0.0,0.0,0.0,0.0,0.0,0.0,0.0,0.0,0.0,0.0,0.0,0.0,0.0,0.0,0.0,0.0,0.0,0.0,0.0,0.0,0.0,0.0,0.0,0.0,0.0,0.0,0.0,0.0,0.0,0.0,0.0,0.0,0.0,0.0,0.0,0.0,0.0,0.0,0.0,0.0,0.0,0.0,0.0,0.0,0.0,0.0,0.0,0.0,0.0,0.0,0.0,0.0,0.0,0.0,0.0,0.0,0.0,0.0,0.0,0.0,0.0,0.0,0.0,0.0,0.0,0.0,0.0,0.0,0.0,0.0,0.0,0.0,0.0,0.0,0.0,0.0,0.0,0.0,0.0,0.0,0.0,0.0,0.0,0.0,0.0,0.0,0.0,0.0,0.0,0.0,0.0,0.0,0.0,0.0,0.0,0.0,0.0,0.0,0.0,0.0,0.0,0.0,0.0,0.0,0.0,0.0,0.0,0.0,0.0,0.0,0.0,0.0,0.0,0.0,0.0,0.0,0.0,0.0,0.0,0.0,0.0,0.0,0.0,0.0,0.0,0.0,0.0,0.0,0.0,0.0,0.0,5.6933,0.0,0.0,0.0,0.0,0.0,0.0,0.0,0.0,0.0,0.0,0.0,0.0,0.0,0.0,0.0,0.0,0.0,0.0,0.0,0.0,0.0,0.0,0.0,0.0,0.0,0.0,0.0,0.0,0.0,0.0,0.0,0.0,0.0,0.0,0.0,0.0,0.0,0.0,0.0,0.0,0.0,0.0,0.0,0.0,0.0,0.0,0.0,0.0,0.0,0.0,0.0,0.0,0.0,0.0,0.0,0.0,0.0,0.0,0.0,0.0,0.0,0.0,0.0,0.0,0.0,0.0,0.0,0.0,0.0,0.0,0.0,0.0,0.0,0.0,0.0,0.0,0.0,0.0,0.0,0.0,0.0,0.0,0.0,0.0,0.0,0.0,0.0,0.0,0.0,0.0,0.0,0.0,0.0,0.0,0.0,0.0,0.0,0.0,0.0,0.0,0.0,0.0,0.0,0.0,0.0,0.0,0.0,0.0,0.0,0.0,5.8577,5.8239,5.8568,5.838,5.7563,0.0,0.0,0.0,0.0,0.0,0.0,0.0,0.0,0.0,0.0,0.0,0.0,0.0,0.0,0.0,0.0,0.0,0.0,0.0,0.0,0.0,0.0,0.0,0.0,0.0,0.0,0.0,0.0,0.0,0.0,0.0,0.0,0.0,0.0,0.0,0.0,0.0,0.0,0.0,0.0,0.0,0.0,0.0,0.0,0.0,0.0,0.0,0.0,0.0,0.0,0.0,0.0,0.0,0.0,0.0,0.0,0.0,0.0,0.0,0.0,0.0,0.0,0.0,0.0,0.0,0.0,0.0,0.0,0.0,0.0,0.0,0.0,0.0,0.0,0.0,0.0,0.0,0.0,0.0,0.0,0.0,0.0,0.0,0.0,0.0,0.0,0.0,0.0,0.0,0.0,0.0,0.0,0.0,0.0,0.0,0.0,0.0,0.0,0.0,0.0,0.0,0.0,0.0,0.0,0.0,0.0,0.0,0.0,0.0,0.0,0.0,0.0,5.9591,5.9112,5.8153,0.0,0.0,0.0,0.0,0.0,0.0,0.0,0.0,0.0,0.0,0.0,0.0,0.0,0.0,0.0,0.0,0.0,0.0,0.0,0.0,0.0,0.0,0.0,0.0,0.0,0.0,0.0,0.0,0.0,0.0,0.0,0.0,0.0,0.0,0.0,0.0,0.0,0.0,0.0,0.0,0.0,0.0,0.0,0.0,0.0,0.0,0.0,0.0,0.0,0.0,0.0,0.0,0.0,0.0,0.0,0.0,0.0,0.0,0.0,0.0,0.0,0.0,0.0,0.0,0.0,0.0,0.0,0.0,0.0,0.0,0.0,0.0,0.0,0.0,0.0,0.0,0.0,0.0,0.0,0.0,0.0,0.0,0.0,0.0,0.0,0.0,0.0,0.0,0.0,0.0,0.0,0.0,0.0,0.0,0.0,0.0,0.0,0.0,0.0,0.0,0.0,0.0,0.0,0.0,0.0,0.0,0.0,0.0,0.0,0.0,5.9703,6.0445,6.0482,0.0,5.8356,0.0,0.0,0.0,0.0,0.0,0.0,0.0,0.0,0.0,0.0,0.0,0.0,0.0,0.0,0.0,0.0,0.0,0.0,0.0,0.0,0.0,0.0,0.0,0.0,0.0,0.0,0.0,0.0,0.0,0.0,0.0,0.0,0.0,0.0,0.0,0.0,0.0,0.0,0.0,0.0,0.0,0.0,0.0,0.0,0.0,0.0,0.0,0.0,0.0,0.0,0.0,0.0,0.0,0.0,0.0,0.0,0.0,0.0,0.0,0.0,0.0,0.0,0.0,0.0,0.0,0.0,0.0,0.0,0.0,0.0,0.0,0.0,0.0,0.0,0.0,0.0,0.0,0.0,0.0,0.0,0.0,0.0,0.0,0.0,0.0,0.0,0.0,0.0,0.0,0.0,0.0,0.0,0.0,0.0,0.0,0.0,0.0,0.0,0.0,0.0,0.0,0.0,0.0,0.0,0.0,0.0,0.0,0.0,0.0,0.0,6.0229,6.0604,6.0604,6.0106,0.0,0.0,0.0,0.0,0.0,0.0,0.0,0.0,0.0,0.0,0.0,0.0,0.0,0.0,0.0,0.0,0.0,0.0,0.0,0.0,0.0,0.0,0.0,0.0,0.0,0.0,0.0,0.0,0.0,0.0,0.0,0.0,0.0,0.0,0.0,0.0,0.0,0.0,0.0,0.0,0.0,0.0,0.0,0.0,0.0,0.0,0.0,0.0,0.0,0.0,0.0,0.0,0.0,0.0,0.0,0.0,0.0,0.0,0.0,0.0,0.0,0.0,0.0,0.0,0.0,0.0,0.0,0.0,0.0,0.0,0.0,0.0,0.0,0.0,0.0,0.0,0.0,0.0,0.0,0.0,0.0,0.0,0.0,0.0,0.0,0.0,0.0,0.0,0.0,0.0,0.0,0.0,0.0,0.0,0.0,0.0,0.0,0.0,0.0,0.0,0.0,0.0,0.0,0.0,0.0,0.0,0.0,0.0,0.0,0.0,6.0041,6.0454,6.0905,6.1168,6.0642,5.9261,0.0,0.0,0.0,0.0,0.0,0.0,0.0,0.0,0.0,0.0,0.0,0.0,0.0,0.0,0.0,0.0,0.0,0.0,0.0,0.0,0.0,0.0,0.0,0.0,0.0,0.0,0.0,0.0,0.0,0.0,0.0,0.0,0.0,0.0,0.0,0.0,0.0,0.0,0.0,0.0,0.0,0.0,0.0,0.0,0.0,0.0,0.0,0.0,0.0,0.0,0.0,0.0,0.0,0.0,0.0,0.0,0.0,0.0,0.0,0.0,0.0,0.0,0.0,0.0,0.0,0.0,0.0,0.0,0.0,0.0,0.0,0.0,0.0,0.0,0.0,0.0,0.0,0.0,0.0,0.0,0.0,0.0,0.0,0.0,0.0,0.0,0.0,0.0,0.0,0.0,0.0,0.0,0.0,0.0,0.0,0.0,0.0,0.0,0.0,0.0,0.0,0.0,0.0,0.0,0.0,0.0,0.0,0.0,6.0332,5.9741,6.0116,6.1703,6.2557,6.1506,0.0,0.0,0.0,0.0,0.0,0.0,0.0,0.0,0.0,0.0,0.0,0.0,0.0,0.0,0.0,0.0,0.0,0.0,0.0,0.0,0.0,0.0,0.0,0.0,0.0,0.0,0.0,0.0,0.0,0.0,0.0,0.0,0.0,0.0,0.0,0.0,0.0,0.0,0.0,0.0,0.0,0.0,0.0,0.0,0.0,0.0,0.0,0.0,0.0,0.0,0.0,0.0,0.0,0.0,0.0,0.0,0.0,0.0,0.0,0.0,0.0,0.0,0.0,0.0,0.0,0.0,0.0,0.0,0.0,0.0,0.0,0.0,0.0,0.0,0.0,0.0,0.0,0.0,0.0,0.0,0.0,0.0,0.0,0.0,0.0,0.0,0.0,0.0,0.0,0.0,0.0,0.0,0.0,0.0,0.0,0.0,0.0,0.0,0.0,0.0,0.0,0.0,0.0,0.0,0.0,0.0,0.0,0.0,0.0,5.8164,5.8915,6.0079,6.1703,6.115,6.051,0.0,0.0,0.0,0.0,0.0,0.0,0.0,0.0,0.0,0.0,0.0,0.0,0.0,0.0,0.0,0.0,0.0,0.0,0.0,0.0,0.0,0.0,0.0,0.0,0.0,0.0,0.0,0.0,0.0,0.0,0.0,0.0,0.0,0.0,0.0,0.0,0.0,0.0,0.0,0.0,0.0,0.0,0.0,0.0,0.0,0.0,0.0,0.0,0.0,0.0,0.0,0.0,0.0,0.0,0.0,0.0,0.0,0.0,0.0,0.0,0.0,0.0,0.0,0.0,0.0,0.0,0.0,0.0,0.0,0.0,0.0,0.0,0.0,0.0,0.0,0.0,0.0,0.0,0.0,0.0,0.0,0.0,0.0,0.0,0.0,0.0,0.0,0.0,0.0,0.0,0.0,0.0,0.0,0.0,0.0,0.0,0.0,0.0,0.0,0.0,0.0,0.0,0.0,0.0,0.0,0.0,0.0,0.0,0.0,5.772,0.0,6.0942,6.1703,6.0811,6.0075,0.0,0.0,0.0,0.0,0.0,0.0,0.0,0.0,0.0,0.0,0.0,0.0,0.0,0.0,0.0,0.0,0.0,0.0,0.0,0.0,0.0,0.0,0.0,0.0,0.0,0.0,0.0,0.0,0.0,0.0,0.0,0.0,0.0,0.0,0.0,0.0,0.0,0.0,0.0,0.0,0.0,0.0,0.0,0.0,0.0,0.0,0.0,0.0,0.0,0.0,0.0,0.0,0.0,0.0,0.0,0.0,0.0,0.0,0.0,0.0,0.0,0.0,0.0,0.0,0.0,0.0,0.0,0.0,0.0,0.0,0.0,0.0,0.0,0.0,0.0,0.0,0.0,0.0,0.0,0.0,0.0,0.0,0.0,0.0,0.0,0.0,0.0,0.0,0.0,0.0,0.0,0.0,0.0,0.0,0.0,0.0,0.0,0.0,0.0,0.0,0.0,0.0,0.0,0.0,0.0,0.0,0.0,0.0,5.6191,5.9352,6.1704,6.2519,6.1844,6.1714,6.0329,0.0,0.0,0.0,0.0,0.0,0.0,0.0,0.0,0.0,0.0,0.0,0.0,0.0,0.0,0.0,0.0,0.0,0.0,0.0,0.0,0.0,0.0,0.0,0.0,0.0,0.0,0.0,0.0,0.0,0.0,0.0,0.0,0.0,0.0,0.0,0.0,0.0,0.0,0.0,0.0,0.0,0.0,0.0,0.0,0.0,0.0,0.0,0.0,0.0,0.0,0.0,0.0,0.0,0.0,0.0,0.0,0.0,0.0,0.0,0.0,0.0,0.0,0.0,0.0,0.0,0.0,0.0,0.0,0.0,0.0,0.0,0.0,0.0,0.0,0.0,0.0,0.0,0.0,0.0,0.0,0.0,0.0,0.0,0.0,0.0,0.0,0.0,0.0,0.0,0.0,0.0,0.0,0.0,0.0,0.0,0.0,0.0,0.0,0.0,0.0,0.0,0.0,0.0,0.0,0.0,0.0,0.0,0.0,0.0,5.7758,6.0088,6.1796,6.2557,6.0501,5.9463,0.0,0.0,0.0,0.0,0.0,0.0,0.0,0.0,0.0,0.0,0.0,0.0,0.0,0.0,0.0,0.0,0.0,0.0,0.0,0.0,0.0,0.0,0.0,0.0,0.0,0.0,0.0,0.0,0.0,0.0,0.0,0.0,0.0,0.0,0.0,0.0,0.0,0.0,0.0,0.0,0.0,0.0,0.0,0.0,0.0,0.0,0.0,0.0,0.0,0.0,0.0,0.0,0.0,0.0,0.0,0.0,0.0,0.0,0.0,0.0,0.0,0.0,0.0,0.0,0.0,0.0,0.0,0.0,0.0,0.0,0.0,0.0,0.0,0.0,0.0,0.0,0.0,0.0,0.0,0.0,0.0,0.0,0.0,0.0,0.0,0.0,0.0,0.0,0.0,0.0,0.0,0.0,0.0,0.0,0.0,0.0,0.0,0.0,0.0,0.0,0.0,0.0,0.0,0.0,0.0,0.0,0.0,0.0,0.0,6.0847,6.3172,6.4781,6.5534,6.2956,6.1023,5.9847,0.0,0.0,0.0,0.0,0.0,0.0,0.0,0.0,0.0,0.0,0.0,0.0,0.0,0.0,0.0,0.0,0.0,0.0,0.0,0.0,0.0,0.0,0.0,0.0,0.0,0.0,0.0,0.0,0.0,0.0,0.0,0.0,0.0,0.0,0.0,0.0,0.0,0.0,0.0,0.0,0.0,0.0,0.0,0.0,0.0,0.0,0.0,0.0,0.0,0.0,0.0,0.0,0.0,0.0,0.0,0.0,0.0,0.0,0.0,0.0,0.0,0.0,0.0,0.0,0.0,0.0,0.0,0.0,0.0,0.0,0.0,0.0,0.0,0.0,0.0,0.0,0.0,0.0,0.0,0.0,0.0,0.0,0.0,0.0,0.0,0.0,0.0,0.0,0.0,0.0,0.0,0.0,0.0,0.0,0.0,0.0,0.0,0.0,0.0,0.0,0.0,0.0,0.0,0.0,0.0,0.0,0.0,0.0,6.7704,7.035,7.1257,7.0141,6.8243,6.4595,0.0,0.0,0.0,0.0,0.0,0.0,0.0,0.0,0.0,0.0,0.0,0.0,0.0,0.0,0.0,0.0,0.0,0.0,0.0,0.0,0.0,0.0,0.0,0.0,0.0,0.0,0.0,0.0,0.0,0.0,0.0,0.0,0.0,0.0,0.0,0.0,0.0,0.0,0.0,0.0,0.0,0.0,0.0,0.0,0.0,0.0,0.0,0.0,0.0,0.0,0.0,0.0,0.0,0.0,0.0,0.0,0.0,0.0,0.0,0.0,0.0,0.0,0.0,0.0,0.0,0.0,0.0,0.0,0.0,0.0,0.0,0.0,0.0,0.0,0.0,0.0,0.0,0.0,0.0,0.0,0.0,0.0,0.0,0.0,0.0,0.0,0.0,0.0,0.0,0.0,0.0,0.0,0.0,0.0,0.0,0.0,0.0,0.0,0.0,0.0,0.0,0.0,0.0,0.0,0.0,0.0,0.0,0.0,0.0,7.3845,7.9454,8.0469,7.6356,7.0391,6.6466,0.0,0.0,0.0,0.0,0.0,0.0,0.0,0.0,0.0,0.0,0.0,0.0,0.0,0.0,0.0,0.0,0.0,0.0,0.0,0.0,0.0,0.0,0.0,0.0,0.0,0.0,0.0,0.0,0.0,0.0,0.0,0.0,0.0,0.0,0.0,0.0,0.0,0.0,0.0,0.0,0.0,0.0,0.0,0.0,0.0,0.0,0.0,0.0,0.0,0.0,0.0,0.0,0.0,0.0,0.0,0.0,0.0,0.0,0.0,0.0,0.0,0.0,0.0,0.0,0.0,0.0,0.0,0.0,0.0,0.0,0.0,0.0,0.0,0.0,0.0,0.0,0.0,0.0,0.0,0.0,0.0,0.0,0.0,0.0,0.0,0.0,0.0,0.0,0.0,0.0,0.0,0.0,0.0,0.0,0.0,0.0,0.0,0.0,0.0,0.0,0.0,0.0,0.0,0.0,0.0,0.0,0.0,0.0,7.3512,7.7227,8.5484,8.8521,8.586,7.6855,7.0638,0.0,0.0,0.0,0.0,0.0,0.0,0.0,0.0,0.0,0.0,0.0,0.0,0.0,0.0,0.0,0.0,0.0,0.0,0.0,0.0,0.0,0.0,0.0,0.0,0.0,0.0,0.0,0.0,0.0,0.0,0.0,0.0,0.0,0.0,0.0,0.0,0.0,0.0,0.0,0.0,0.0,0.0,0.0,0.0,0.0,0.0,0.0,0.0,0.0,0.0,0.0,0.0,0.0,0.0,0.0,0.0,0.0,0.0,0.0,0.0,0.0,0.0,0.0,0.0,0.0,0.0,0.0,0.0,0.0,0.0,0.0,0.0,0.0,0.0,0.0,0.0,0.0,0.0,0.0,0.0,0.0,0.0,0.0,0.0,0.0,0.0,0.0,0.0,0.0,0.0,0.0,0.0,0.0,0.0,0.0,0.0,0.0,0.0,0.0,0.0,0.0,0.0,0.0,0.0,0.0,0.0,0.0,0.0,7.7627,7.9851,8.9593,9.5129,9.5511,8.48,7.5845,0.0,0.0,0.0,0.0,0.0,0.0,0.0,0.0,0.0,0.0,0.0,0.0,0.0,0.0,0.0,0.0,0.0,0.0,0.0,0.0,0.0,0.0,0.0,0.0,0.0,0.0,0.0,0.0,0.0,0.0,0.0,0.0,0.0,0.0,0.0,0.0,0.0,0.0,0.0,0.0,0.0,0.0,0.0,0.0,0.0,0.0,0.0,0.0,0.0,0.0,0.0,0.0,0.0,0.0,0.0,0.0,0.0,0.0,0.0,0.0,0.0,0.0,0.0,0.0,0.0,0.0,0.0,0.0,0.0,0.0,0.0,0.0,0.0,0.0,0.0,0.0,0.0,0.0,0.0,0.0,0.0,0.0,0.0,0.0,0.0,0.0,0.0,0.0,0.0,0.0,0.0,0.0,0.0,0.0,0.0,0.0,0.0,0.0,0.0,0.0,0.0,0.0,0.0,0.0,0.0,0.0,0.0,0.0,8.1727,8.6834,9.3704,9.7383,9.7498,8.5942,7.8373,0.0,0.0,0.0,0.0,0.0,0.0,0.0,0.0,0.0,0.0,0.0,0.0,0.0,0.0,0.0,0.0,0.0,0.0,0.0,0.0,0.0,0.0,0.0,0.0,0.0,0.0,0.0,0.0,0.0,0.0,0.0,0.0,0.0,0.0,0.0,0.0,0.0,0.0,0.0,0.0,0.0,0.0,0.0,0.0,0.0,0.0,0.0,0.0,6.5666,0.0,0.0,0.0,0.0,0.0,0.0,0.0,0.0,0.0,0.0,0.0,0.0,0.0,0.0,0.0,0.0,0.0,0.0,0.0,0.0,0.0,0.0,0.0,0.0,0.0,0.0,0.0,0.0,0.0,0.0,0.0,0.0,0.0,0.0,0.0,0.0,0.0,0.0,0.0,0.0,0.0,0.0,0.0,0.0,0.0,0.0,0.0,0.0,0.0,0.0,0.0,0.0,0.0,0.0,0.0,0.0,0.0,0.0,0.0,8.3726,9.0165,9.5826,9.8884,9.8949,9.06,8.3444,0.0,0.0,0.0,0.0,0.0,0.0,0.0,0.0,0.0,0.0,0.0,0.0,0.0,0.0,0.0,0.0,0.0,0.0,0.0,0.0,0.0,0.0,0.0,0.0,0.0,0.0,0.0,0.0,0.0,0.0,0.0,0.0,0.0,0.0,0.0,0.0,0.0,0.0,0.0,0.0,0.0,0.0,0.0,0.0,0.0,0.0,0.0,0.0,0.0,0.0,0.0,0.0,0.0,0.0,0.0,0.0,0.0,0.0,0.0,0.0,0.0,0.0,0.0,0.0,0.0,0.0,0.0,0.0,0.0,0.0,0.0,0.0,0.0,0.0,0.0,0.0,0.0,0.0,0.0,0.0,0.0,0.0,0.0,0.0,0.0,0.0,0.0,0.0,0.0,0.0,0.0,0.0,0.0,0.0,0.0,0.0,0.0,0.0,0.0,0.0,0.0,0.0,0.0,0.0,0.0,0.0,0.0,7.8245,8.5029,9.2741,9.7207,9.9772,10.0333,9.5353,8.815,7.8806,0.0,0.0,0.0,0.0,0.0,0.0,0.0,0.0,0.0,0.0,0.0,0.0,0.0,0.0,0.0,0.0,0.0,0.0,0.0,0.0,0.0,0.0,0.0,0.0,0.0,0.0,0.0,0.0,0.0,0.0,0.0,0.0,0.0,0.0,0.0,0.0,0.0,0.0,6.0241,6.1769,0.0,0.0,0.0,0.0,0.0,0.0,0.0,0.0,6.7376,0.0,0.0,0.0,0.0,0.0,0.0,0.0,0.0,0.0,0.0,0.0,0.0,0.0,0.0,0.0,0.0,0.0,0.0,0.0,0.0,0.0,0.0,0.0,0.0,0.0,0.0,0.0,0.0,0.0,0.0,0.0,0.0,0.0,0.0,0.0,0.0,0.0,0.0,0.0,0.0,0.0,0.0,0.0,0.0,0.0,0.0,0.0,0.0,0.0,0.0,0.0,0.0,0.0,0.0,0.0,0.0,7.9301,8.0634,8.7035,9.875,9.9442,9.9716,9.9703,9.4516,8.7541,7.9016,0.0,0.0,0.0,0.0,0.0,0.0,0.0,0.0,0.0,0.0,0.0,0.0,0.0,0.0,0.0,0.0,0.0,0.0,0.0,0.0,0.0,0.0,0.0,0.0,0.0,0.0,0.0,0.0,0.0,0.0,0.0,0.0,0.0,0.0,0.0,0.0,0.0,0.0,0.0,6.7617,6.7996,0.0,0.0,0.0,0.0,0.0,0.0,0.0,0.0,7.1522,0.0,0.0,0.0,0.0,0.0,0.0,0.0,0.0,0.0,0.0,0.0,0.0,0.0,0.0,0.0,0.0,0.0,0.0,0.0,0.0,0.0,0.0,0.0,0.0,0.0,0.0,0.0,0.0,0.0,0.0,0.0,0.0,0.0,0.0,0.0,0.0,0.0,0.0,0.0,0.0,0.0,0.0,0.0,0.0,0.0,0.0,0.0,0.0,0.0,0.0,0.0,0.0,0.0,0.0,0.0,8.0769,8.517,9.1994,10.1547,10.1673,10.1317,10.0833,9.483,8.7688,0.0,0.0,0.0,0.0,0.0,0.0,0.0,0.0,0.0,0.0,0.0,0.0,0.0,0.0,0.0,0.0,0.0,0.0,0.0,0.0,0.0,0.0,0.0,0.0,0.0,0.0,0.0,0.0,0.0,0.0,0.0,0.0,0.0,0.0,0.0,0.0,0.0,0.0,0.0,0.0,7.0249,7.1185,7.5944,0.0,0.0,0.0,0.0,0.0,0.0,7.3209,7.2625,0.0,0.0,0.0,0.0,0.0,0.0,0.0,0.0,0.0,0.0,0.0,0.0,0.0,0.0,0.0,0.0,0.0,0.0,0.0,0.0,0.0,0.0,0.0,0.0,0.0,0.0,0.0,0.0,0.0,0.0,0.0,0.0,0.0,0.0,0.0,0.0,0.0,0.0,0.0,0.0,0.0,0.0,0.0,0.0,0.0,0.0,0.0,0.0,0.0,0.0,0.0,0.0,0.0,0.0,0.0,8.1344,8.876,9.5962,10.2612,10.2715,10.2308,10.1563,9.4108,8.6795,0.0,0.0,0.0,0.0,0.0,0.0,0.0,0.0,0.0,0.0,0.0,0.0,0.0,0.0,0.0,0.0,0.0,0.0,0.0,0.0,0.0,0.0,0.0,0.0,0.0,0.0,0.0,0.0,0.0,0.0,0.0,0.0,0.0,0.0,0.0,0.0,0.0,0.0,0.0,0.0,0.0,7.441,7.9335,7.6184,0.0,0.0,0.0,0.0,7.5185,7.566,0.0,0.0,0.0,0.0,0.0,0.0,0.0,0.0,0.0,0.0,0.0,0.0,0.0,0.0,0.0,0.0,0.0,0.0,0.0,0.0,0.0,0.0,0.0,0.0,0.0,0.0,0.0,0.0,0.0,0.0,0.0,0.0,0.0,0.0,0.0,0.0,0.0,0.0,0.0,0.0,0.0,0.0,0.0,0.0,0.0,0.0,0.0,0.0,0.0,0.0,0.0,0.0,0.0,0.0,0.0,0.0,8.1915,8.8558,9.528,10.1757,10.111,10.0398,10.018,9.0191,8.3001,0.0,0.0,0.0,0.0,0.0,0.0,0.0,0.0,0.0,0.0,0.0,0.0,0.0,0.0,0.0,0.0,0.0,0.0,0.0,0.0,0.0,0.0,0.0,0.0,0.0,0.0,0.0,0.0,0.0,0.0,0.0,0.0,0.0,0.0,0.0,0.0,0.0,0.0,0.0,0.0,0.0,7.7757,8.1321,7.8168,7.5927,0.0,0.0,8.1668,8.3267,8.5387,0.0,0.0,0.0,0.0,0.0,0.0,0.0,0.0,0.0,0.0,0.0,0.0,0.0,0.0,0.0,0.0,0.0,0.0,0.0,0.0,0.0,0.0,0.0,0.0,0.0,0.0,0.0,0.0,0.0,0.0,0.0,0.0,0.0,0.0,0.0,0.0,0.0,0.0,0.0,0.0,0.0,0.0,0.0,0.0,0.0,0.0,0.0,0.0,0.0,0.0,0.0,0.0,0.0,0.0,0.0,7.882,8.304,9.3464,10.044,10.3383,10.2931,10.2352,10.1674,9.0103,8.2671,0.0,0.0,0.0,0.0,0.0,0.0,0.0,0.0,0.0,0.0,0.0,0.0,0.0,0.0,0.0,0.0,0.0,0.0,0.0,0.0,0.0,0.0,0.0,0.0,0.0,0.0,0.0,0.0,0.0,0.0,0.0,0.0,0.0,0.0,0.0,0.0,0.0,0.0,0.0,0.0,0.0,0.0,8.3324,8.2793,0.0,0.0,0.0,8.4289,8.2195,0.0,0.0,0.0,0.0,0.0,0.0,0.0,0.0,0.0,0.0,0.0,0.0,0.0,0.0,0.0,0.0,0.0,0.0,0.0,0.0,0.0,0.0,0.0,0.0,0.0,0.0,0.0,0.0,0.0,0.0,0.0,0.0,0.0,0.0,0.0,0.0,0.0,0.0,0.0,0.0,0.0,0.0,0.0,0.0,0.0,0.0,0.0,0.0,0.0,0.0,0.0,0.0,0.0,0.0,0.0,0.0,0.0,8.3588,9.6929,10.4003,10.4078,10.3978,10.3484,10.2478,9.2116,0.0,0.0,0.0,0.0,0.0,0.0,0.0,0.0,0.0,0.0,0.0,0.0,0.0,0.0,0.0,0.0,0.0,0.0,0.0,0.0,0.0,0.0,0.0,0.0,0.0,0.0,0.0,6.2985,0.0,0.0,0.0,0.0,0.0,0.0,0.0,0.0,0.0,0.0,0.0,0.0,0.0,0.0,8.3365,8.4886,8.6244,8.7418,0.0,0.0,8.6336,8.4187,8.925,9.0003,0.0,0.0,0.0,0.0,0.0,0.0,0.0,0.0,0.0,0.0,0.0,0.0,0.0,0.0,0.0,0.0,0.0,0.0,0.0,0.0,0.0,0.0,0.0,0.0,0.0,0.0,0.0,0.0,0.0,0.0,0.0,0.0,0.0,0.0,0.0,0.0,0.0,0.0,0.0,0.0,0.0,0.0,0.0,0.0,0.0,0.0,0.0,0.0,0.0,0.0,0.0,0.0,0.0,0.0,8.2658,8.361,9.6079,10.275,10.2735,10.2258,10.1951,10.178,9.637,8.9384,0.0,0.0,0.0,0.0,0.0,0.0,0.0,0.0,0.0,0.0,0.0,0.0,0.0,0.0,0.0,0.0,0.0,0.0,0.0,0.0,0.0,0.0,0.0,0.0,0.0,0.0,0.0,0.0,0.0,0.0,0.0,0.0,0.0,0.0,0.0,0.0,0.0,0.0,0.0,0.0,0.0,8.4973,8.5643,8.6696,8.9111,0.0,9.0511,8.9225,9.4494,9.7233,9.5807,8.6894,0.0,0.0,0.0,0.0,0.0,0.0,0.0,0.0,0.0,0.0,0.0,0.0,0.0,0.0,0.0,0.0,0.0,0.0,0.0,0.0,0.0,0.0,0.0,0.0,0.0,0.0,0.0,0.0,0.0,0.0,0.0,0.0,0.0,0.0,0.0,0.0,0.0,0.0,0.0,0.0,0.0,0.0,0.0,0.0,0.0,0.0,0.0,0.0,0.0,0.0,0.0,0.0,0.0,8.2603,8.3574,9.6495,10.3067,10.2808,10.2573,10.2371,10.2144,9.6942,9.0202,0.0,0.0,0.0,0.0,0.0,0.0,0.0,0.0,0.0,0.0,0.0,0.0,0.0,0.0,0.0,0.0,0.0,0.0,0.0,0.0,0.0,0.0,0.0,0.0,0.0,0.0,0.0,0.0,7.717,7.7168,7.4358,0.0,0.0,0.0,0.0,0.0,0.0,0.0,0.0,0.0,0.0,8.8112,9.207,9.3719,0.0,0.0,9.5582,9.4182,9.3297,9.5251,9.3736,8.4555,8.1843,0.0,0.0,0.0,0.0,0.0,0.0,0.0,0.0,0.0,0.0,0.0,0.0,0.0,0.0,0.0,0.0,0.0,0.0,0.0,0.0,0.0,0.0,0.0,0.0,0.0,0.0,0.0,0.0,0.0,0.0,0.0,0.0,0.0,0.0,0.0,0.0,0.0,0.0,0.0,0.0,0.0,0.0,0.0,0.0,0.0,0.0,0.0,0.0,0.0,0.0,0.0,0.0,8.2539,8.341,9.635,10.291,10.2683,10.27,10.2629,10.2315,9.8662,9.3074,0.0,0.0,0.0,0.0,0.0,0.0,0.0,0.0,0.0,0.0,0.0,0.0,0.0,0.0,0.0,0.0,0.0,0.0,0.0,0.0,0.0,0.0,0.0,0.0,0.0,0.0,0.0,0.0,7.9838,7.9121,7.4988,0.0,0.0,0.0,0.0,0.0,0.0,0.0,0.0,0.0,0.0,9.1735,9.5134,9.6306,9.6731,9.6447,9.5538,9.4137,9.2038,9.3156,9.1895,8.4963,0.0,0.0,0.0,0.0,0.0,0.0,0.0,0.0,0.0,0.0,0.0,0.0,0.0,0.0,0.0,0.0,0.0,0.0,0.0,0.0,0.0,0.0,0.0,0.0,0.0,0.0,0.0,6.7118,0.0,0.0,6.587,0.0,0.0,0.0,0.0,0.0,0.0,0.0,0.0,0.0,0.0,0.0,0.0,0.0,0.0,0.0,0.0,0.0,0.0,0.0,0.0,0.0,0.0,8.26,8.297,9.5421,10.1969,10.2142,10.2332,10.2426,10.2463,10.2463,9.9096,9.1822,0.0,0.0,0.0,0.0,0.0,0.0,0.0,0.0,0.0,0.0,0.0,0.0,0.0,0.0,0.0,0.0,0.0,0.0,0.0,0.0,0.0,0.0,0.0,0.0,0.0,0.0,7.0821,7.4476,7.67,0.0,0.0,0.0,0.0,0.0,0.0,0.0,0.0,0.0,8.1223,9.0165,9.5664,9.3159,9.231,9.2465,9.3015,8.9021,8.7448,9.2335,9.2367,9.1484,0.0,0.0,0.0,0.0,0.0,0.0,0.0,0.0,0.0,0.0,0.0,0.0,0.0,0.0,0.0,0.0,0.0,0.0,0.0,0.0,0.0,0.0,0.0,0.0,0.0,0.0,0.0,7.4312,7.3202,0.0,0.0,0.0,0.0,0.0,0.0,0.0,0.0,0.0,0.0,0.0,8.1594,8.1766,0.0,0.0,0.0,0.0,0.0,0.0,0.0,0.0,0.0,0.0,0.0,0.0,8.2822,8.3611,9.5546,10.2362,10.3127,10.324,10.3594,10.4207,10.4732,10.1501,9.4149,0.0,0.0,0.0,0.0,0.0,0.0,0.0,0.0,0.0,0.0,0.0,0.0,0.0,0.0,0.0,0.0,0.0,0.0,0.0,0.0,0.0,0.0,0.0,0.0,0.0,7.6284,0.0,0.0,0.0,0.0,0.0,0.0,0.0,0.0,0.0,0.0,0.0,8.4804,8.8135,9.0447,9.2748,9.5298,9.5364,9.6068,0.0,0.0,0.0,0.0,0.0,0.0,0.0,0.0,0.0,0.0,0.0,0.0,0.0,0.0,8.6843,7.9738,7.9412,8.051,8.1322,0.0,0.0,0.0,0.0,0.0,0.0,0.0,0.0,0.0,0.0,0.0,0.0,0.0,0.0,8.0061,7.7873,7.8701,0.0,0.0,0.0,0.0,0.0,0.0,0.0,0.0,8.5408,8.8353,8.906,8.9427,8.9481,0.0,8.6682,8.0806,0.0,0.0,0.0,0.0,0.0,0.0,0.0,0.0,8.3641,8.4651,9.6647,10.3443,10.4207,10.4411,10.4834,10.5482,10.6131,10.4279,9.9655,9.3122,8.7065,0.0,0.0,0.0,0.0,0.0,0.0,0.0,0.0,0.0,0.0,0.0,0.0,0.0,0.0,0.0,0.0,0.0,0.0,0.0,0.0,0.0,0.0,0.0,7.8746,0.0,0.0,0.0,0.0,0.0,0.0,0.0,0.0,0.0,7.9791,8.4786,8.9639,9.268,9.3769,9.4655,9.5585,0.0,0.0,0.0,0.0,0.0,0.0,0.0,8.8682,8.7107,8.7187,8.8204,9.0416,9.2873,9.4583,9.4807,0.0,0.0,8.7974,8.7345,8.8376,8.9189,8.8478,8.8098,8.9444,8.952,8.952,0.0,0.0,0.0,0.0,8.0273,0.0,0.0,0.0,8.6904,8.4736,0.0,8.5069,0.0,0.0,0.0,0.0,7.7294,8.3547,0.0,0.0,9.9291,10.2406,9.7115,9.6936,9.7344,9.7626,9.1554,8.869,8.8757,8.5546,0.0,0.0,0.0,0.0,0.0,0.0,8.5068,8.675,9.8617,10.5042,10.5322,10.5885,10.6197,10.6283,10.6897,10.7427,10.7711,10.1418,9.7638,9.6984,8.4715,0.0,0.0,0.0,0.0,0.0,0.0,0.0,0.0,0.0,0.0,0.0,0.0,0.0,0.0,0.0,0.0,0.0,0.0,0.0,0.0,7.9554,0.0,0.0,0.0,0.0,0.0,0.0,0.0,0.0,0.0,0.0,8.3273,8.8976,9.388,9.4521,0.0,0.0,0.0,0.0,9.4982,8.9272,8.6993,8.6553,8.7508,9.0171,9.3315,9.6455,0.0,0.0,10.1176,9.9048,9.7435,9.6358,10.0348,10.2361,9.9026,9.6253,9.4917,9.5591,9.465,9.3686,9.4322,9.5503,9.5922,9.0078,0.0,0.0,0.0,0.0,8.6714,8.9598,9.4704,9.4704,9.3381,9.1277,9.24,0.0,0.0,0.0,0.0,0.0,0.0,9.1216,9.4822,9.9749,10.2741,10.4081,10.4621,10.4748,10.4333,10.2978,10.2373,10.2486,10.1496,9.2401,7.5802,0.0,0.0,0.0,0.0,8.8143,9.361,10.1591,10.6276,10.7396,10.7561,10.8181,10.9205,10.9421,10.9544,10.9546,10.762,10.3995,9.8586,9.4627,0.0,0.0,0.0,0.0,0.0,0.0,0.0,0.0,0.0,0.0,0.0,0.0,0.0,0.0,0.0,0.0,0.0,0.0,0.0,8.0323,8.4939,8.5223,0.0,0.0,0.0,0.0,0.0,0.0,0.0,0.0,0.0,9.2114,9.3283,9.4114,0.0,0.0,9.2696,9.061,9.3166,9.5491,9.6187,9.6448,0.0,9.8626,9.7608,9.6964,9.7922,10.1548,10.4289,10.4446,10.573,10.669,10.6347,10.7558,10.822,10.7252,10.5496,10.4237,10.4416,10.4084,10.3855,10.4072,10.4339,10.4416,9.9056,9.5347,9.0852,9.0623,9.3225,9.2768,9.581,10.1056,10.1056,9.9552,9.7268,9.917,9.5536,8.786,8.7517,0.0,0.0,0.0,9.6837,10.2087,10.3079,10.4835,10.7065,10.7542,10.7554,10.7175,10.7335,10.7697,10.8233,10.5572,9.7983,8.569,0.0,0.0,8.0719,8.6937,9.2576,9.7515,10.3808,10.7639,10.8741,10.904,10.9743,11.0824,11.0886,11.0836,11.0741,11.0714,10.8598,10.4059,10.1212,9.5826,0.0,0.0,0.0,0.0,0.0,0.0,0.0,0.0,0.0,0.0,0.0,7.6361,7.2514,0.0,0.0,0.0,8.4939,8.5769,8.6928,8.8927,0.0,0.0,0.0,0.0,0.0,0.0,0.0,8.7342,9.3389,9.7958,9.8406,9.8257,9.8072,9.796,9.6835,9.5508,9.4116,0.0,9.9937,10.0648,10.1454,10.2396,10.3458,10.3074,10.3046,10.4471,10.6595,10.8397,10.8953,11.0721,11.1835,11.1862,11.1812,11.1774,11.1774,11.0882,10.9927,10.9354,10.9201,10.9201,10.9201,10.9163,10.9201,10.5909,10.5184,9.579,9.4512,9.8551,9.8604,10.1361,10.5711,10.5788,10.3708,10.0615,10.497,10.1838,9.3126,9.2188,0.0,10.0107,10.0145,10.3049,10.8284,10.836,10.7998,10.7213,10.7295,10.7326,10.7293,10.6676,10.7177,10.838,10.2437,9.9172,9.8883,9.7829,9.3914,8.7807,9.3041,9.7134,9.9313,10.5193,10.8764,10.9836,11.0457,11.1066,11.1692,11.1742,11.178,11.1703,11.1742,11.1791,11.1511,10.5664,10.2048,10.101,0.0,0.0,0.0,0.0,0.0,0.0,0.0,0.0,0.0,0.0,0.0,0.0,0.0,0.0,0.0,9.3172,0.0,9.652,9.2506,0.0,0.0,0.0,9.0215,9.2718,9.6691,9.8838,9.7841,0.0,0.0,10.2829,10.3519,10.4434,10.5578,10.5875,10.4823,10.1656,10.4609,10.6457,10.3366,10.3826,10.4489,10.5213,10.7187,10.9798,11.2489,11.3973,11.3598,11.3508,11.3577,11.3696,11.3512,11.348,11.3354,11.3393,11.3151,11.2742,11.1175,11.0895,11.0882,11.0882,11.0882,11.0882,10.5901,10.5783,10.4044,10.3577,10.4009,10.394,10.4935,10.6564,10.6603,10.6424,10.6219,10.7379,10.6526,10.4272,10.4057,10.4744,10.6144,10.6755,10.7736,10.9112,10.9812,10.9429,10.8215,10.8727,10.8425,10.746,10.7766,10.8748,11.0202,10.8714,10.5996,10.2455,10.2052,9.7602,8.9534,9.1463,9.5639,10.1667,10.4043,10.7762,11.2745,11.3105,11.3257,11.3396,11.4022,11.4099,11.3445,11.406,11.406,11.3407,11.1868,10.8329,10.252,9.3364,0.0,0.0,0.0,0.0,0.0,0.0,0.0,0.0,0.0,8.0083,7.3459,0.0,8.5107,0.0,9.7049,10.2741,10.1183,10.1106,0.0,0.0,9.6799,9.6903,9.8744,10.2749,10.4247,10.1409,10.4725,10.7274,10.7274,10.7417,10.8651,11.1314,10.74,10.3826,10.3076,10.6079,10.8218,10.7658,10.9595,11.1495,11.1407,11.216,11.2989,11.3857,11.3944,11.3838,11.3804,11.3722,11.3625,11.3601,11.3565,11.3541,11.3579,11.3516,11.3378,11.2857,11.2679,11.2588,11.2601,11.2601,11.2601,10.676,10.72,10.7672,10.7561,10.707,10.6978,10.711,10.7481,10.7481,10.7749,10.8207,10.8589,10.8972,10.9315,10.9315,10.9315,10.9354,10.9774,11.0003,10.999,11.0136,10.9575,10.8534,10.8961,10.8535,10.7505,10.8272,10.91,10.995,11.0285,10.9111,10.6632,10.6942,10.3409,9.6295,9.3761,9.4767,9.9175,10.317,10.825,11.428,11.4907,11.3522,11.0214,11.0483,10.8916,10.5136,10.5443,10.5443,10.502,10.4982,10.3212,9.9327,9.2364,8.6742,0.0,0.0,0.0,0.0,0.0,0.0,0.0,0.0,0.0,0.0,0.0,9.0136,9.0508,10.0509,10.5615,10.2268,10.3152,10.368,10.3209,10.314,10.4107,10.6517,10.926,11.0243,10.8344,11.0529,11.2214,11.2214,11.2214,11.3044,11.5357,11.2357,10.9436,10.8564,11.026,11.1715,11.1792,11.3643,11.5099,11.5099,11.5099,11.5099,11.5138,11.5055,11.4998,11.4998,11.4952,11.4868,11.4868,11.4859,11.4812,11.4812,11.4764,11.4703,11.4629,11.4554,11.4158,11.3379,11.32,11.32,10.7943,10.8712,10.8737,10.8807,10.8769,10.8755,10.8585,10.836,10.836,10.8437,10.8551,10.9277,11.0003,11.0691,11.0691,11.0691,11.0691,11.0691,11.0742,11.0818,11.0218,10.9552,10.8936,10.8912,10.8558,10.7946,10.8533,10.89,10.9102,10.9761,11.0013,10.9927,11.0611,10.8415,10.3338,9.7664,9.5084,9.5755,10.2961,10.9252,11.4302,11.4302,11.0994,10.4569,10.4261,10.1019,9.4249,9.4172,9.4249,9.4057,9.4249,9.5057,9.6336,9.0154,8.7133,0.0,8.1542,0.0,0.0,0.0,0.0,0.0,0.0,0.0,0.0,9.6152,9.6962,9.7414,10.3839,10.6602,10.3396,10.3849,10.5841,10.9493,11.0059,11.127,11.4232,11.5359,11.5909,11.5909,11.6473,11.6891,11.6759,11.6847,11.71,11.7677,11.755,11.6423,11.5088,11.5138,11.5638,11.5792,11.638,11.683,11.683,11.6841,11.6841,11.6841,11.683,11.6841,11.683,11.683,11.683,11.6819,11.6739,11.667,11.667,11.6575,11.6502,11.6478,11.6465,11.5854,11.4222,11.3724,11.3531,10.848,10.8772,10.9441,10.9737,10.9803,11.0341,11.0036,10.915,10.915,10.9583,11.0232,11.0385,11.0538,11.0691,11.0691,11.0691,11.0691,11.0691,11.1073,11.1761,11.1618,11.1477,11.1384,11.0832,11.0162,10.949,10.9014,10.944,11.0656,11.1012,10.9718,10.6983,10.7268,10.518,10.076,0.0,0.0,0.0,10.5267,10.8983,10.9867,10.4866,10.1135,9.9019,9.9635,0.0,9.5066,9.6749,9.7211,9.5942,9.7096,0.0,0.0,0.0,0.0,0.0,0.0,0.0,0.0,0.0,0.0,0.0,9.7398,9.6869,9.6413,9.811,10.0759,10.4443,10.7423,11.0256,11.3024,11.4055,11.4869,11.5684,11.6414,11.7112,11.7779,11.8563,11.9113,11.9106,11.9016,11.8932,11.8875,11.8737,11.8661,11.8849,11.8869,11.8677,11.8211,11.8172,11.8331,11.8407,11.8369,11.8561,11.86,11.8523,11.8446,11.86,11.86,11.8561,11.8523,11.8523,11.8561,11.8523,11.8615,11.8527,11.8527,11.8542,11.8369,11.8362,11.8338,11.7803,11.5956,11.5447,11.5409,10.9482,10.9911,11.0303,11.0433,0.0,11.08,11.055,11.0041,11.0041,11.0309,11.0691,11.0691,11.0691,11.0691,11.0691,11.0971,11.134,11.134,11.1799,11.255,11.223,11.2047,11.2099,11.1805,11.1458,11.1077,11.1167,11.1597,11.2383,11.2955,11.2352,11.0599,11.1111,11.0439,10.8778,11.0017,10.8878,10.5146,10.8444,11.1829,11.4868,11.2252,10.8867,10.5213,10.5405,0.0,0.0,0.0,0.0,0.0,0.0,0.0,0.0,9.997,0.0,10.3023,9.9848,9.954,10.3314,10.3286,10.4899,10.9093,10.9754,10.796,10.3509,10.6828,11.0134,11.2413,11.387,11.5558,11.775,11.8423,11.8695,11.8695,11.9084,11.9356,11.9395,11.9712,11.9984,11.9978,11.9849,11.9742,11.978,11.9631,11.9731,12.007,12.0147,12.0283,12.0565,11.9771,11.91,11.91,11.91,11.91,11.91,11.91,11.9138,11.91,11.91,11.91,11.91,11.91,11.91,11.91,11.91,11.91,11.91,11.91,11.9077,11.9031,11.9007,11.8765,11.7721,11.741,11.7119,11.0963,11.1565,11.1344,11.1219,11.1207,11.0907,11.0818,11.092,11.078,0.0,0.0,11.0857,11.092,11.092,11.1073,11.1531,11.2181,11.2219,11.264,11.3416,11.2794,11.2599,11.2721,11.2753,11.272,11.2775,11.3411,11.3729,11.3764,11.4495,11.5074,11.5481,11.6085,11.7107,11.8511,12.0869,11.8946,11.2983,11.2175,11.4638,12.0023,11.9815,11.6825,11.1092,11.0959,10.7852,10.1433,10.0779,10.048,10.0134,9.9091,9.9329,10.1112,10.1309,10.2333,10.4339,10.5238,10.7912,11.2883,11.3321,11.5445,12.0471,12.0619,11.7979,11.2061,11.6131,11.8949,11.8994,11.9668,12.0076,12.0125,12.0131,12.0125,12.0164,12.028,12.0364,12.0403,12.0559,12.0738,12.0591,12.0645,12.0523,12.0595,12.0542,12.0638,12.1246,12.1391,12.1673,12.2121,12.0937,11.9898,11.984,11.9867,11.9697,11.9584,11.9638,11.9523,11.9677,11.9638,11.9523,11.9523,11.9523,11.9523,11.9715,11.9562,11.96,11.96,11.9677,11.9523,11.9562,11.9523,11.9523,11.9512,11.9371,11.8879,11.3467,11.3516,11.2764,11.2445,11.2385,11.1438,11.1325,11.1761,11.1035,11.0691,11.0729,11.1493,11.1799,11.1875,11.2525,11.2932,11.3022,11.3022,11.348,11.4321,11.4202,11.4505,11.5165,11.4708,11.4466,11.4435,11.4054,11.3878,11.3911,11.4211,11.4975,11.6226,11.6613,11.8192,12.095,12.287,12.3216,12.2062,11.6522,11.4099,11.4945,10.9548,10.591,10.434,10.4587,10.3185,10.0685,10.2027,10.1834,10.0492,10.1671,10.4446,10.8849,10.9505,11.213,11.7164,11.7986,11.8619,11.9412,11.949,11.9883,12.0668,12.0774,12.0167,11.9114,11.9457,11.9926,12.0117,12.0337,12.0444,12.0645,12.0732,12.0762,12.0771,12.1399,12.1792,12.178,12.2365,12.2752,12.2749,12.2653,12.2436,12.2343,12.2199,12.2078,12.2277,12.2273,12.2361,12.2453,12.2269,12.1919,12.1665,12.1599,12.1488,12.1199,12.1239,12.1154,12.1216,12.1147,12.1081,12.1054,12.1047,12.1035,12.1189,12.1073,12.1112,12.115,12.1254,12.1112,12.1062,12.1035,12.1062,12.1062,12.1027,12.0545,11.3884,11.3911,11.3892,11.3907,11.3858,11.3356,11.3008,11.2756,11.2335,11.2131,11.2105,11.2487,11.2678,11.2678,11.3009,11.348,11.39,11.3939,11.4359,11.5123,11.5123,11.5392,11.5751,11.5525,11.5432,11.5501,11.529,11.522,11.5273,11.5831,11.6504,11.7272,11.8651,12.0386,12.2281,12.3947,12.506,12.5466,12.1558,11.975,12.0241,11.7292,11.5787,11.5887,11.5947,11.562,11.4858,11.5118,11.4963,11.4384,11.3809,11.47,11.719,11.6731,11.7644,12.0464,12.1197,12.1519,12.1508,12.1966,12.2198,12.2208,12.2198,12.2174,12.204,12.146,12.1175,12.1321,12.1721,12.2056,12.2186,12.2191,12.2191,12.223,12.2581,12.2776,12.2855,12.3128,12.3362,12.3399,12.3278,12.3161,12.3161,12.3059,12.3008,12.2965,12.2965,12.3004,12.296,12.296,12.2807,12.2387,12.2262,12.2243,12.2116,12.2089,12.2098,12.2098,12.1937,12.1854,12.1802,12.175,12.1597,12.1612,12.1574,12.1612,12.1612,12.1574,12.1612,12.1612,12.1612,12.1612,12.1612,12.1612,12.1127,11.481,11.5068,11.5397,11.5414,11.5236,11.5428,11.4933,11.4081,11.4197,11.4082,11.38,11.3608,11.3493,11.3558,11.3711,11.4195,11.4795,11.4885,11.5191,11.5751,11.5789,11.5855,11.5945,11.597,11.6046,11.6157,11.6277,11.6412,11.6693,11.7439,11.8023,11.86,12.0908,12.2535,12.3213,12.488,12.6093,12.6699,12.5474,12.5116,12.5862,12.5935,12.631,12.6966,12.696,12.7101,12.7116,12.6508,12.6199,12.6129,12.4152,12.3102,12.3236,12.1912,12.118,12.1503,12.2053,12.2399,12.2425,12.3036,12.3386,12.34,12.3388,12.3375,12.3332,12.2785,12.2391,12.2464,12.2967,12.3321,12.3284,12.3323,12.3401,12.3401,12.3401,12.3323,12.3362,12.3401,12.3401,12.3401,12.3401,12.3399,12.3401,12.3401,12.3352,12.335,12.3401,12.3401,12.3401,12.3401,12.3194,12.2878,12.2667,12.2537,12.251,12.2461,12.2454,12.2482,12.2278,12.2166,12.2077,12.1877,12.17,12.1678,12.1631,12.1585,12.1612,12.1612,12.1612,12.1612,12.1612,12.1612,12.1612,12.1612,12.142,11.7846,11.8423,11.7796,11.7008,11.6339,11.7018,11.6755,11.598,11.6545,11.6404,11.5498,11.4756,11.4476,11.4656,11.5268,11.5715,11.5893,11.5956,11.5982,11.602,11.6058,11.6071,11.6095,11.6205,11.6265,11.6289,11.6443,11.6923,11.7527,11.7819,11.86,12.0177,12.2639,12.3891,12.433,12.5817,12.676,12.6961,12.6795,12.6795,12.6884,12.6981,12.7122,12.7171,12.7311,12.7455,12.7604,12.7557,12.7268,12.6671,12.582,12.5046,12.4375,12.3564,12.3116,12.3118,12.3229,12.3261,12.3299,12.3337,12.3374,12.3377,12.3376,12.3408,12.3395,12.3315,12.3267,12.3252,12.3325,12.3362,12.3401,12.3401,12.3401,12.3401,12.3401,12.3401,12.3401,12.3401,12.3401,12.3401,12.3401,12.3401,12.3401,12.3401,12.3401,12.3401,12.3401,12.3401,12.3401,12.3401,12.3399,12.3269,12.3067,12.2807,12.261,12.2496,12.2564,12.2576,12.2482,12.2446,12.2387,12.2179,12.1937,12.1957,12.1749,12.1666,12.162,12.1612,12.1612,12.1612,12.1612,12.1612,12.1612,12.1612,12.1497,11.8754,11.91,11.9215,11.9077,11.8723,11.9069,11.8345,11.7062,11.7207,11.6838,11.6008,11.5536,11.5357,11.5422,11.583,11.6046,11.6095,11.6095,11.6095,11.6095,11.6095,11.6145,11.6217,11.6265,11.6335,11.6482,11.6962,11.7446,11.7919,11.886,12.001,12.1215,12.2812,12.3842,12.4426,12.5583,12.6459,12.7118,12.7216,12.7327,12.741,12.7401,12.7419,12.7497,12.7665,12.7788,12.7856,12.7868,12.7783,12.757,12.642,12.5611,12.5377,12.4176,12.3437,12.3475,12.3432,12.343,12.3434,12.3426,12.3382,12.3388,12.3383,12.3376,12.3372,12.337,12.3406,12.3398,12.338,12.3401,12.3401,12.3401,12.3401,12.3401,12.3401,12.3401,12.3401,12.3401,12.3401,12.3401,12.3401,12.3401,12.3401,12.3401,12.3401,12.3401,12.3401,12.3401,12.3401,12.3401,12.3401,12.3396,12.3281,12.3158,12.3034,12.3034,12.3026,12.3013,12.2849,12.273,12.2695,12.2503,12.2294,12.2286,12.2013,12.1846,12.1846,12.1684,12.1612,12.1612,12.1612,12.1612,12.1612,12.1612,12.1612,11.9562,11.9831,12.0408,12.0639,12.0639,12.0639,11.9784,11.8422,11.8213,11.755,11.6528,11.6403,11.6251,11.6072,11.612,11.6284,11.6551,11.6551,11.6704,11.6908,11.6908,11.6879,11.6731,11.6731,11.6624,11.6665,11.7369,11.8034,11.8656,12.0077,12.121,12.1887,12.2724,12.3545,12.4295,12.5068,12.5882,12.6635,12.7084,12.7338,12.7425,12.7613,12.773,12.7801,12.7924,12.8036,12.8089,12.8089,12.8165,12.8352,12.6716,12.5839,12.5937,12.4414,12.3515,12.3515,12.3475,12.3436,12.3515,12.3472,12.343,12.3434,12.343,12.3426,12.3423,12.3384,12.3382,12.3377,12.3397,12.3382,12.3373,12.3406,12.3401,12.3401,12.3401,12.3401,12.3401,12.3401,12.3401,12.3401,12.3401,12.3401,12.3401,12.3401,12.3401,12.3401,12.3401,12.3401,12.3401,12.3401,12.3401,12.3401,12.3401,12.3399,12.3401,12.3345,12.3401,12.335,12.3155,12.3059,12.3004,12.2802,12.261,12.2538,12.2279,12.2136,12.2131,12.1947,12.1639,12.1608,12.1574,12.1574,12.1612,12.1612,12.1612,12.0716,12.1408,12.1497,12.1485,12.1535,12.1497,12.0985,12.0,11.9959,11.9015,11.7633,11.7506,11.7083,11.638,11.6469,11.6847,11.7593,11.7669,11.8104,11.8758,11.8835,11.8462,11.7781,11.7704,11.7319,11.6841,11.7534,11.8717,12.0302,12.1335,12.1868,12.1938,12.2783,12.3368,12.3838,12.4584,12.5113,12.5627,12.636,12.6741,12.6843,12.7687,12.8041,12.7875,12.8017,12.8118,12.8257,12.8273,12.8354,12.8554,12.6953,12.6015,12.5898,12.4453,12.3554,12.3515,12.3515,12.3476,12.3515,12.3476,12.3515,12.3515,12.3476,12.3476,12.3433,12.3393,12.339,12.342,12.3378,12.337,12.3397,12.338,12.3406,12.3403,12.3403,12.3401,12.3401,12.3401,12.3401,12.3401,12.3401,12.3401,12.3401,12.3401,12.3401,12.3401,12.3401,12.3401,12.3401,12.3401,12.3401,12.3401,12.3401,12.3401,12.3401,12.3401,12.3401,12.3357,12.3347,12.3342,12.3272,12.3147,12.2987,12.2805,12.2622,12.2482,12.2417,12.2226,12.1897,12.1744,12.1631,12.1624,12.1612,12.1612,12.1612,12.1222,12.1612,12.1612,12.1612,12.1612,12.1612,12.11,12.0281,12.0163,11.9548,11.8661,11.8449,11.8307,11.8069,11.8108,11.7977,11.7858,11.8369,11.8792,11.91,11.91,11.8946,11.86,11.81,11.7984,11.8226,11.8536,11.9708,12.1442,12.2054,12.2293,12.2446,12.2821,12.3303,12.3896,12.4258,12.4709,12.5392,12.5852,12.6065,12.6114,12.6561,12.6816,12.6797,12.7811,12.8408,12.8465,12.8505,12.851,12.8593,12.7461,12.6836,12.6679,12.5234,12.4062,12.3554,12.3515,12.3515,12.3515,12.3515,12.3515,12.3515,12.3515,12.3476,12.3476,12.3476,12.3475,12.3474,12.3431,12.3388,12.3382,12.3403,12.3384,12.3384,12.3371,12.3403,12.3401,12.3401,12.3401,12.3401,12.3401,12.3401,12.3401,12.3401,12.3401,12.3401,12.3401,12.3401,12.3401,12.3401,12.3401,12.3401,12.3401,12.3401,12.3401,12.3401,12.3401,12.3401,12.3396,12.3355,12.3339,12.3295,12.3165,12.3098,12.2937,12.2741,12.2671,12.2348,12.2087,12.1918,12.1802,12.165,12.1612,12.1608,12.1597,12.153,12.16,12.1612,12.1612,12.1612,12.1612,12.1266,12.0716,12.0633,12.0184,11.9577,11.9403,11.9261,11.9165,11.9369,11.9177,11.8677,11.9254,11.9638,11.9908,11.9908,11.9754,11.9369,11.8638,11.8546,11.9136,11.9644,12.0702,12.2184,12.2517,12.2647,12.2761,12.285,12.3207,12.3718,12.3804,12.4175,12.4745,12.5208,12.5392,12.5439,12.5815,12.6015,12.6172,12.7187,12.789,12.8164,12.8164,12.8359,12.8437,12.7773,12.707,12.6445,12.5156,12.414,12.3593,12.3515,12.3515,12.3515,12.3515,12.3515,12.3515,12.3515,12.3515,12.3515,12.3515,12.3515,12.3476,12.3476,12.3435,12.3434,12.3385,12.337,12.3403,12.3388,12.3375,12.3373,12.3406,12.3401,12.3401,12.3401,12.3401,12.3401,12.3401,12.3401,12.3401,12.3401,12.3401,12.3401,12.3401,12.3401,12.3401,12.3713,12.383,12.4065,12.426,12.3791,12.3713,12.3635,12.3557,12.3596,12.3557,12.3516,12.3425,12.3269,12.3071,12.2805,12.2519,12.2357,12.2209,12.1986,12.1823,12.1733,12.1627,12.1639,12.16,12.1612,12.1612,12.1612,12.1612,12.1689,12.1651,12.16,12.1639,12.1293,12.0716,12.0473,12.0204,11.96,12.0216,12.0331,12.0254,12.0292,12.0677,12.1304,12.1381,12.0946,12.0177,11.9458,11.9196,11.9445,12.0518,12.1637,12.2662,12.2835,12.2912,12.2921,12.2956,12.3116,12.3245,12.3328,12.3363,12.375,12.4414,12.4765,12.4883,12.5429,12.5742,12.582,12.5937,12.6367,12.7187,12.7265,12.7617,12.8242,12.7656,12.6484,12.5156,12.4179,12.3554,12.3554,12.3515,12.3515,12.3515,12.3515,12.3515,12.3515,12.3515,12.3515,12.3515,12.3515,12.3515,12.3515,12.3476,12.3515,12.3476,12.3435,12.3389,12.3381,12.3406,12.3397,12.3393,12.3417,12.3403,12.3521,12.3638,12.3479,12.3479,12.3713,12.3791,12.3752,12.3713,12.3752,12.383,12.383,12.3557,12.3713,12.4221,12.4689,12.5002,12.5236,12.4572,12.4065,12.3987,12.3948,12.4104,12.4143,12.4221,12.4175,12.4175,12.3994,12.3461,12.3168,12.2821,12.2627,12.2315,12.2061,12.1995,12.1937,12.1755,12.1612,12.1612,12.1612,12.1612,12.1689,12.2216,12.2485,12.2562,12.3062,12.3139,12.2947,12.2908,12.2485,12.187,12.1985,12.1754,12.1227,12.1177,12.1343,12.1535,12.1612,12.1139,12.0392,12.0153,12.0223,12.0634,12.1669,12.2465,12.2952,12.3106,12.3189,12.3281,12.332,12.3339,12.3398,12.3392,12.3435,12.3515,12.375,12.3906,12.3906,12.414,12.4297,12.4297,12.4297,12.4687,12.5547,12.6093,12.6523,12.6836,12.6562,12.5898,12.4961,12.4531,12.4101,12.3593,12.3515,12.3515,12.3515,12.3515,12.3515,12.3515,12.3515,12.3515,12.3515,12.3515,12.3515,12.3515,12.3515,12.3515,12.3515,12.3476,12.3513,12.343,12.3381,12.3451,12.3605,12.3943,12.4247,12.436,12.4816,12.516,12.5158,12.5158,12.5043,12.5041,12.508,12.508,12.5119,12.5002,12.5197,12.5275,12.5587,12.5587,12.5782,12.6017,12.5821,12.5275,12.5002,12.465,12.4767,12.4806,12.4885,12.4924,12.4963,12.4752,12.4231,12.3898,12.3609,12.3069,12.2752,12.2548,12.2388,12.2226,12.2043,12.1612,12.1612,12.1612,12.1612,12.1727,12.2524,12.2908,12.3024,12.3755,12.4101,12.4024,12.3755,12.337,12.2897,12.2601,12.21,12.1612,12.1612,12.1612,12.1612,12.1612,12.1124,12.0495,12.0601,12.0871,12.1346,12.2358,12.3019,12.3288,12.3331,12.3385,12.3476,12.3515,12.3515,12.3515,12.3515,12.3515,12.3515,12.3515,12.3515,12.3515,12.3515,12.3515,12.3515,12.3515,12.3789,12.4336,12.4804,12.539,12.582,12.5742,12.5312,12.4843,12.4492,12.4062,12.3672,12.3515,12.3515,12.3515,12.3515,12.3515,12.3515,12.3515,12.3515,12.3515,12.3515,12.3515,12.3515,12.3515,12.3633,12.3906,12.3984,12.4062,12.4334,12.4094,12.4087,12.4317,12.4817,12.5123,12.5276,12.5622,12.5924,12.5993,12.5991,12.6026,12.6021,12.6017,12.6017,12.6017,12.5978,12.6056,12.6173,12.629,12.6329,12.6446,12.668,12.6954,12.6602,12.6251,12.5821,12.5587,12.5587,12.5626,12.5587,12.5587,12.5509,12.5082,12.5021,12.4767,12.4056,12.3462,12.3341,12.3251,12.2599,12.2349,12.1612,12.1612,12.1612,12.1651,12.1843,12.2678,12.3139,12.3255,12.4024,12.4409,12.4255,12.3716,12.3166,12.287,12.2331,12.1843,12.1612,12.1612,12.1624,12.1585,12.1493,12.1099,12.0704,12.0806,12.1113,12.1778,12.2719,12.3288,12.3476,12.3476,12.3515,12.3515,12.3515,12.3515,12.3515,12.3515,12.3515,12.3515,12.3515,12.3515,12.3515,12.3515,12.3515,12.3515,12.3515,12.3554,12.3633,12.375,12.4375,12.5508,12.5039,12.4687,12.4531,12.3945,12.3554,12.3515,12.3515,12.3515,12.3515,12.3515,12.3515,12.3515,12.3515,12.3515,12.3515,12.3515,12.3593,12.3711,12.3711,12.3984,12.4648,12.4843,12.5195,12.5781,12.5232,12.5149,12.5805,12.5959,12.6075,12.6114,12.6113,12.6186,12.6405,12.6403,12.6357,12.6384,12.6416,12.6492,12.649,12.6609,12.6292,12.6524,12.7071,12.7188,12.7344,12.7461,12.7695,12.7539,12.7266,12.6954,12.6602,12.6563,12.6602,12.6524,12.6368,12.6212,12.6051,12.5952,12.579,12.5291,12.4806,12.4472,12.4091,12.3653,12.3147,12.1612,12.1612,12.1612,12.1985,12.2639,12.3447,12.4139,12.4793,12.5601,12.587,12.5755,12.5101,12.4255,12.3716,12.287,12.2216,12.1727,12.1612,12.1658,12.1611,12.1045,12.0901,12.0814,12.0607,12.1277,12.256,12.3128,12.3435,12.3515,12.3515,12.3515,12.3515,12.3515,12.3515,12.3515,12.3515,12.3515,12.3515,12.3515,12.3515,12.3515,12.3515,12.3515,12.3515,12.3515,12.3476,12.3515,12.3515,12.3633,12.4062,12.3984,12.3828,12.3867,12.3633,12.3515,12.3515,12.3515,12.3515,12.3515,12.3515,12.3515,12.3515,12.3515,12.3515,12.3515,12.3515,12.3828,12.4258,12.4453,12.4804,12.5468,12.5703,12.6133,12.6679,12.6211,12.582,12.6131,12.6597,12.6984,12.6984,12.7487,12.7716,12.7751,12.7749,12.7785,12.7779,12.7731,12.7761,12.7564,12.7594,12.7436,12.7737,12.8086,12.8125,12.8203,12.832,12.8398,12.832,12.8164,12.8047,12.7851,12.7812,12.7891,12.7891,12.7578,12.7383,12.7071,12.6829,12.6602,12.6407,12.5915,12.5434,12.5493,12.5229,12.4559,12.1612,12.1612,12.1612,12.21,12.2947,12.3793,12.4601,12.5447,12.6294,12.646,12.6024,12.5216,12.4409,12.3562,12.2716,12.21,12.1651,12.1658,12.1523,12.1095,12.0496,12.0574,12.0925,12.0915,12.1721,12.3052,12.343,12.3515,12.3515,12.3515,12.3515,12.3515,12.3515,12.3515,12.3515,12.3515,12.3515,12.3515,12.3515,12.3515,12.3515,12.3515,12.3437,12.3398,12.3385,12.3385,12.3398,12.3476,12.3515,12.3515,12.3515,12.3515,12.3515,12.3515,12.3515,12.3515,12.3515,12.3515,12.3515,12.3515,12.3515,12.3515,12.3515,12.3515,12.3593,12.3789,12.4336,12.4687,12.5078,12.5703,12.6406,12.6792,12.7221,12.7655,12.73,12.6985,12.707,12.7577,12.7811,12.8008,12.8277,12.8625,12.8621,12.8621,12.8619,12.8575,12.8449,12.8446,12.8443,12.8588,12.8542,12.854,12.8531,12.8455,12.8412,12.8488,12.8522,12.8481,12.8515,12.8515,12.8515,12.8515,12.8476,12.8398,12.8476,12.8398,12.793,12.7656,12.7656,12.7344,12.6836,12.6524,12.6524,12.6407,12.5772,12.1612,12.1612,12.1612,12.2139,12.3101,12.3793,12.4678,12.5601,12.6371,12.6217,12.5409,12.4524,12.3793,12.2858,12.2177,12.1651,12.1635,12.1727,12.1282,12.0826,12.0438,12.0614,12.128,12.1593,12.2267,12.3161,12.3433,12.3476,12.3515,12.3515,12.3515,12.3515,12.3515,12.3515,12.3515,12.3515,12.3515,12.3476,12.3476,12.3437,12.3437,12.3398,12.3281,12.3201,12.3152,12.315,12.321,12.3328,12.3398,12.3437,12.3476,12.3515,12.3515,12.3515,12.3476,12.3437,12.3398,12.3398,12.3476,12.3437,12.3476,12.3476,12.3593,12.3593,12.3828,12.4414,12.5039,12.5273,12.5703,12.6445,12.7187,12.7839,12.812,12.8304,12.8244,12.8368,12.8554,12.8593,12.8593,12.8593,12.8593,12.8593,12.8592,12.8593,12.8627,12.8626,12.862,12.8616,12.8613,12.8608,12.8566,12.8605,12.8599,12.859,12.8546,12.854,12.8533,12.8527,12.8518,12.8515,12.8515,12.8515,12.8515,12.8515,12.8515,12.8515,12.8398,12.832,12.832,12.8164,12.7617,12.7422,12.7305,12.711,12.6651,12.1612,12.1612,12.1612,12.2485,12.3716,12.4062,12.4986,12.6383,12.6614,12.6178,12.5332,12.4486,12.3639,12.2793,12.1997,12.1658,12.1711,12.1722,12.1499,12.1092,12.1394,12.1506,12.1757,12.1915,12.2463,12.3203,12.3476,12.3515,12.3515,12.3515,12.3515,12.3515,12.3515,12.3515,12.3515,12.3476,12.3515,12.3476,12.334,12.3233,12.3217,12.3122,12.3016,12.2961,12.2961,12.2965,12.2965,12.2997,12.3016,12.3109,12.332,12.3476,12.3437,12.3337,12.3276,12.3223,12.3128,12.3116,12.3219,12.3274,12.3274,12.3395,12.4048,12.4449,12.4376,12.5148,12.5927,12.6374,12.6707,12.7112,12.7668,12.7954,12.8159,12.8276,12.8325,12.8342,12.8554,12.8593,12.8593,12.8593,12.8593,12.8593,12.8593,12.8593,12.8593,12.8593,12.8593,12.8593,12.8593,12.8593,12.8621,12.8621,12.8615,12.8609,12.8606,12.856,12.8551,12.8544,12.8536,12.8525,12.8522,12.852,12.8522,12.852,12.8515,12.8515,12.8515,12.8515,12.8437,12.8359,12.832,12.8125,12.7891,12.7734,12.7578,12.1612,12.1612,12.1612,12.2331,12.3485,12.3947,12.487,12.5986,12.6575,12.5986,12.4909,12.4255,12.3471,12.2413,12.1924,12.1749,12.1644,12.1106,12.0817,12.0786,12.1123,12.1547,12.2166,12.2481,12.3008,12.3476,12.3515,12.3515,12.3515,12.3515,12.3515,12.3515,12.3515,12.3515,12.3476,12.343,12.3359,12.3281,12.3094,12.2973,12.295,12.279,12.2691,12.2689,12.2728,12.2746,12.2746,12.2864,12.2898,12.2952,12.3106,12.3215,12.3213,12.3122,12.3087,12.3023,12.2977,12.2939,12.3062,12.3389,12.3662,12.3623,12.4513,12.4848,12.5132,12.5801,12.6387,12.6846,12.7208,12.7642,12.7939,12.7885,12.7977,12.8089,12.8081,12.8114,12.8278,12.8476,12.8593,12.8593,12.8593,12.8593,12.8593,12.8593,12.8593,12.8593,12.8593,12.8593,12.8593,12.8593,12.8593,12.8629,12.8625,12.8621,12.8621,12.8615,12.8608,12.8603,12.8599,12.8587,12.8579,12.8533,12.8529,12.8522,12.8515,12.8515,12.8515,12.8515,12.8515,12.8476,12.8437,12.8476,12.8437,12.8164,12.8047,12.1612,12.1612,12.1612,12.21,12.2985,12.3755,12.4639,12.5486,12.614,12.5563,12.4293,12.3997,12.3079,12.203,12.1844,12.1815,12.1416,12.0688,12.0268,12.0847,12.1083,12.1699,12.2422,12.3047,12.3398,12.3515,12.3515,12.3515,12.3515,12.3515,12.3515,12.3515,12.3437,12.3437,12.3398,12.3272,12.3139,12.3074,12.2834,12.2646,12.2611,12.2487,12.2354,12.2365,12.2403,12.2434,12.248,12.2603,12.2718,12.2752,12.2802,12.2807,12.2812,12.2849,12.2854,12.2849,12.2941,12.3091,12.3335,12.3784,12.4251,12.429,12.5119,12.5528,12.5752,12.6332,12.6887,12.7105,12.7407,12.779,12.7885,12.7741,12.7755,12.7868,12.7801,12.7821,12.8017,12.8336,12.8515,12.8515,12.8554,12.8593,12.8593,12.8593,12.8593,12.8593,12.8593,12.8593,12.8593,12.8593,12.8593,12.8593,12.8591,12.859,12.8629,12.8624,12.8619,12.8616,12.8614,12.8605,12.8595,12.8594,12.8548,12.8525,12.8515,12.8518,12.8518,12.8515,12.8515,12.8515,12.8515,12.8515,12.8515,12.8515,12.8437,12.1612,12.1612,12.1612,12.21,12.2947,12.3755,12.4562,12.5332,12.5563,12.5063,12.4113,12.3475,12.2751,12.2009,12.1854,12.1667,12.123,12.0561,12.0674,12.1413,12.1758,12.2304,12.3047,12.3359,12.3515,12.3515,12.3476,12.3476,12.3515,12.3515,12.3476,12.3437,12.3334,12.3268,12.3201,12.308,12.2882,12.2742,12.2551,12.241,12.2271,12.2158,12.2024,12.2044,12.2092,12.2053,12.2073,12.2168,12.2232,12.2241,12.2351,12.2403,12.2588,12.2687,12.2777,12.2835,12.3234,12.3529,12.376,12.4455,12.4844,12.5131,12.5859,12.6338,12.6523,12.7044,12.741,12.7455,12.7448,12.7544,12.75,12.7509,12.7544,12.7689,12.7745,12.7734,12.7962,12.8151,12.8327,12.8327,12.8437,12.8593,12.8593,12.8593,12.8593,12.8593,12.8593,12.8593,12.8593,12.8593,12.8593,12.8593,12.8593,12.8593,12.8593,12.8591,12.8626,12.8625,12.8623,12.8618,12.8612,12.861,12.8563,12.8544,12.8529,12.8525,12.8522,12.852,12.8515,12.8518,12.8515,12.8515,12.8515,12.8515,12.8515,12.1612,12.1612,12.1612,12.1831,12.2408,12.3562,12.4332,12.4755,12.5178,12.4945,12.4157,12.3378,12.2631,12.21,12.198,12.1711,12.1154,12.0691,12.1041,12.1781,12.2148,12.2656,12.3437,12.3515,12.3515,12.3476,12.3398,12.3392,12.3476,12.3398,12.3341,12.3285,12.3136,12.3023,12.2926,12.2763,12.2583,12.2397,12.2235,12.2092,12.2005,12.1868,12.1843,12.1832,12.1886,12.1879,12.1889,12.1959,12.2041,12.2217,12.2604,12.2836,12.3047,12.3349,12.3525,12.3337,12.3778,12.4197,12.4444,12.5106,12.5563,12.5735,12.6525,12.6936,12.7012,12.7316,12.7627,12.7544,12.7491,12.7419,12.741,12.7419,12.7447,12.7488,12.7557,12.761,12.7709,12.7873,12.7988,12.8085,12.8359,12.8515,12.8593,12.8593,12.8593,12.8593,12.8593,12.8593,12.8593,12.8593,12.8593,12.8593,12.8593,12.8593,12.8593,12.8593,12.8593,12.8593,12.8629,12.8626,12.8623,12.8622,12.8576,12.8563,12.8551,12.8549,12.8538,12.8577,12.8529,12.852,12.8518,12.8518,12.8515,12.8515,12.8515,12.1385,12.1381,12.1535,12.1612,12.1843,12.3216,12.3882,12.4021,12.4572,12.4526,12.3985,12.3036,12.2303,12.1898,12.152,12.1255,12.1088,12.0714,12.1139,12.1922,12.2383,12.289,12.332,12.3515,12.3476,12.332,12.3242,12.3278,12.3339,12.3221,12.3142,12.3054,12.2935,12.2763,12.2632,12.2424,12.2246,12.2098,12.1905,12.1832,12.1788,12.1788,12.1788,12.1788,12.1799,12.1804,12.1821,12.1864,12.2131,12.2484,12.297,12.3483,12.3842,12.4596,12.4712,12.4286,12.4712,12.4982,12.5272,12.5862,12.6403,12.6413,12.7023,12.7284,12.7371,12.736,12.7439,12.7419,12.7419,12.7419,12.7419,12.7419,12.7429,12.74,12.7419,12.7429,12.7491,12.7604,12.7748,12.7951,12.826,12.8398,12.8476,12.8593,12.8593,12.8593,12.8593,12.8593,12.8593,12.8593,12.8593,12.8593,12.8593,12.8593,12.8593,12.8593,12.8593,12.8593,12.8593,12.8592,12.8591,12.8591,12.8593,12.8593,12.8581,12.858,12.8608,12.8592,12.8587,12.854,12.8529,12.852,12.8518,12.8515,12.8515,12.0732,12.0535,12.1304,12.1612,12.1739,12.2651,12.3094,12.3159,12.3258,12.333,12.319,12.2006,12.1339,12.1052,12.0047,12.0033,12.0518,12.0856,12.1337,12.2261,12.289,12.3281,12.3476,12.3515,12.332,12.3137,12.3013,12.3113,12.3097,12.2993,12.293,12.284,12.2622,12.2424,12.2357,12.2125,12.1931,12.1864,12.1816,12.1727,12.1658,12.1647,12.1647,12.1647,12.1658,12.1643,12.1704,12.1849,12.2245,12.2931,12.3267,12.3831,12.4576,12.5485,12.5833,12.5833,12.5911,12.5949,12.6065,12.6646,12.711,12.7071,12.7342,12.7419,12.7419,12.7419,12.7419,12.7419,12.7419,12.7419,12.7419,12.7419,12.7419,12.7419,12.7419,12.7419,12.7439,12.7473,12.7588,12.7717,12.7998,12.8148,12.8242,12.8437,12.8593,12.8593,12.8593,12.8593,12.8593,12.8593,12.8593,12.8593,12.8593,12.8593,12.8593,12.8593,12.8593,12.8593,12.8593,12.8593,12.8593,12.8593,12.8593,12.8593,12.8593,12.8593,12.8621,12.8612,12.8603,12.8595,12.8587,12.8533,12.8518,12.8518,12.852,12.0215,12.0821,12.1057,12.1419,12.1851,12.2179,12.2344,12.2352,12.1967,12.1938,12.1961,12.104,12.0561,12.0466,12.0041,12.0459,12.118,12.1416,12.2031,12.2734,12.3281,12.3515,12.3437,12.332,12.3125,12.2983,12.2728,12.2543,12.26,12.2569,12.2519,12.2471,12.226,12.2101,12.212,12.1921,12.1788,12.1727,12.1681,12.1658,12.1585,12.1612,12.1612,12.1612,12.1612,12.1612,12.1701,12.2186,12.2547,12.3286,12.3934,12.4899,12.5503,12.6259,12.68,12.6839,12.68,12.6839,12.6878,12.7226,12.7342,12.7419,12.7419,12.7419,12.7419,12.7419,12.7419,12.7419,12.7419,12.7419,12.7419,12.7419,12.7419,12.7419,12.7419,12.7419,12.74,12.7438,12.7514,12.7626,12.7702,12.7862,12.8054,12.8242,12.8437,12.8554,12.8554,12.8593,12.8593,12.8593,12.8593,12.8593,12.8593,12.8593,12.8593,12.8593,12.8593,12.8593,12.8593,12.8593,12.8593,12.8593,12.8593,12.8593,12.8593,12.8593,12.8593,12.8625,12.8619,12.8612,12.8603,12.8592,12.8542,12.8575,12.8575,11.9528,12.0442,12.0533,12.094,12.1452,12.1387,12.1413,12.1417,12.0991,12.0866,12.0844,12.0307,11.9989,12.0112,12.0315,12.078,12.1955,12.2145,12.2734,12.3242,12.3515,12.3476,12.3391,12.319,12.2976,12.2845,12.2447,12.2215,12.2092,12.2087,12.2066,12.2092,12.2005,12.1896,12.1816,12.1761,12.1693,12.1635,12.1624,12.1612,12.1612,12.1612,12.1612,12.1612,12.1612,12.1612,12.1716,12.2408,12.2902,12.3632,12.4724,12.5643,12.6254,12.6827,12.7197,12.7255,12.7265,12.7303,12.7303,12.7381,12.7419,12.7419,12.7419,12.7419,12.7419,12.7419,12.7419,12.7419,12.7419,12.7419,12.7419,12.7419,12.7419,12.7419,12.7419,12.7419,12.7429,12.7448,12.7438,12.7491,12.76,12.7651,12.7833,12.8007,12.8203,12.8437,12.8554,12.8553,12.8593,12.8593,12.8593,12.8593,12.8593,12.8593,12.8593,12.8593,12.8593,12.8593,12.8593,12.8593,12.8593,12.8593,12.8593,12.8593,12.8593,12.8593,12.8593,12.8593,12.8628,12.8623,12.8616,12.861,12.8603,12.8595,12.8587,11.839,11.8598,11.952,11.9957,12.0082,12.0037,12.0141,12.0294,12.0161,12.018,12.018,11.9696,11.9444,11.9687,12.0,12.0779,12.2187,12.2187,12.2773,12.3242,12.3435,12.339,12.3247,12.3047,12.2786,12.253,12.2191,12.1908,12.1733,12.1755,12.1787,12.1907,12.1832,12.1805,12.1749,12.1681,12.1647,12.1612,12.1612,12.1612,12.1612,12.1612,12.1612,12.1612,12.1612,12.1612,12.1639,12.2524,12.329,12.4022,12.5196,12.6095,12.6749,12.7075,12.7291,12.7341,12.741,12.7419,12.7419,12.7419,12.7419,12.7419,12.7419,12.7419,12.7419,12.7419,12.7419,12.7419,12.7419,12.7419,12.7419,12.7419,12.7419,12.7419,12.7419,12.7419,12.7419,12.7419,12.7448,12.7429,12.7456,12.7532,12.7577,12.7748,12.8081,12.8334,12.8506,12.8515,12.8593,12.8593,12.8593,12.8593,12.8593,12.8593,12.8593,12.8593,12.8593,12.8593,12.8593,12.8593,12.8593,12.8593,12.8593,12.8593,12.8593,12.8593,12.8593,12.8593,12.8593,12.8593,12.8626,12.8622,12.8614,12.8605,12.8597,11.6705,11.6738,11.7175,11.813,11.9411,11.931,11.9338,11.9394,11.9002,11.8915,11.9062,11.8849,11.9019,11.9609,12.0273,12.1015,12.2186,12.2771,12.3121,12.3225,12.3281,12.3171,12.3019,12.2742,12.2369,12.2223,12.1937,12.1738,12.1631,12.1574,12.1597,12.1704,12.1704,12.1681,12.1647,12.1635,12.1612,12.1612,12.1612,12.1612,12.1612,12.1612,12.1612,12.1612,12.1612,12.1612,12.1804,12.2985,12.3675,12.4403,12.5551,12.6386,12.6884,12.7058,12.7181,12.7281,12.7331,12.7371,12.741,12.7419,12.7419,12.7419,12.7419,12.7419,12.7419,12.7419,12.7419,12.7419,12.7419,12.7419,12.7419,12.7419,12.7419,12.7419,12.7419,12.7419,12.7419,12.7419,12.7419,12.7419,12.739,12.7428,12.7455,12.7497,12.7856,12.8224,12.835,12.8515,12.8554,12.8593,12.8593,12.8593,12.8593,12.8593,12.8593,12.8593,12.8593,12.8593,12.8593,12.8593,12.8593,12.8593,12.8593,12.8593,12.8593,12.8593,12.8593,12.8593,12.8593,12.8593,12.8593,12.8592,12.8625,12.8614,12.8609,11.5552,11.5359,11.5606,11.6753,11.8349,11.8375,11.8532,11.8723,11.8356,11.8148,11.8281,11.832,11.8945,11.9921,12.0585,12.1599,12.2493,12.3076,12.3257,12.3223,12.3083,12.2962,12.2706,12.2425,12.2145,12.1985,12.177,12.1574,12.1612,12.1612,12.1585,12.1585,12.1612,12.1612,12.1612,12.1612,12.1612,12.1612,12.1612,12.1612,12.1612,12.1612,12.1612,12.1612,12.1612,12.1612,12.1985,12.3024,12.3909,12.4637,12.5569,12.6591,12.6837,12.6977,12.7086,12.716,12.7261,12.7331,12.7341,12.741,12.7419,12.7419,12.7419,12.7419,12.7419,12.7419,12.7419,12.7419,12.7419,12.7419,12.7419,12.7419,12.7419,12.7419,12.7419,12.7419,12.7419,12.7419,12.7419,12.7419,12.7429,12.74,12.7475,12.7497,12.7748,12.8093,12.8268,12.8437,12.8554,12.8593,12.8593,12.8593,12.8593,12.8593,12.8593,12.8593,12.8593,12.8593,12.8593,12.8593,12.8593,12.8593,12.8593,12.8593,12.8593,12.8593,12.8593,12.8593,12.8593,12.8593,12.8593,12.8593,12.8592,12.8626,12.8621,11.5137,11.4554,11.5266,11.6166,11.706,11.7063,11.7573,11.8359,11.832,11.8281,11.832,11.8398,11.9296,12.0543,12.0933,12.1905,12.2949,12.3294,12.3263,12.3058,12.2843,12.275,12.248,12.2157,12.1937,12.1918,12.1755,12.1612,12.1612,12.1612,12.1612,12.1612,12.1612,12.1612,12.1612,12.1612,12.1612,12.1612,12.1612,12.1612,12.1612,12.1612,12.1612,12.1612,12.1612,12.1612,12.1958,12.3216,12.4024,12.4382,12.5779,12.6647,12.6807,12.6814,12.6894,12.701,12.7118,12.7181,12.723,12.7321,12.741,12.7419,12.7419,12.7419,12.7419,12.7419,12.7419,12.7419,12.7419,12.7419,12.7419,12.7419,12.7419,12.7419,12.7419,12.7419,12.7419,12.7419,12.7419,12.7419,12.7419,12.74,12.7484,12.7536,12.7752,12.7967,12.8162,12.8359,12.8515,12.8593,12.8593,12.8593,12.8593,12.8593,12.8593,12.8593,12.8593,12.8593,12.8593,12.8593,12.8593,12.8593,12.8593,12.8593,12.8593,12.8593,12.8593,12.8593,12.8593,12.8593,12.8593,12.8593,12.8593,12.8593,12.8593,11.3859,11.3625,11.3904,11.4882,11.6171,11.6757,11.75,11.8203,11.8281,11.8281,11.8437,11.8827,11.9724,12.0736,12.1509,12.224,12.3159,12.3164,12.3008,12.2887,12.2583,12.2326,12.2101,12.1928,12.1766,12.17,12.1608,12.1612,12.1612,12.1612,12.1612,12.1612,12.1612,12.1612,12.1612,12.1612,12.1612,12.1612,12.1612,12.1612,12.1612,12.1612,12.1612,12.1612,12.1612,12.1612,12.1689,12.3216,12.3947,12.4255,12.5755,12.6561,12.6736,12.6772,12.6841,12.6871,12.6999,12.7107,12.7181,12.7311,12.741,12.7419,12.7419,12.7419,12.7419,12.7419,12.7419,12.7419,12.7419,12.7419,12.7419,12.7419,12.7419,12.7419,12.7419,12.7419,12.7419,12.7419,12.7419,12.7419,12.7419,12.7419,12.7458,12.7455,12.7619,12.7858,12.8059,12.824,12.8398,12.8554,12.8593,12.8593,12.8593,12.8593,12.8593,12.8593,12.8593,12.8593,12.8593,12.8593,12.8593,12.8593,12.8593,12.8593,12.8593,12.8593,12.8593,12.8593,12.8593,12.8593,12.8593,12.8593,12.8593,12.8593,12.8593,11.3201,11.3201,11.3203,11.4023,11.5351,11.6211,11.7187,11.8124,11.828,11.828,11.8473,11.9211,12.0016,12.0779,12.1619,12.2302,12.3027,12.2921,12.2662,12.2558,12.2238,12.1994,12.1826,12.1717,12.1627,12.1612,12.1612,12.1612,12.1612,12.1612,12.1612,12.1612,12.1612,12.1612,12.1612,12.1612,12.1612,12.1612,12.1612,12.1612,12.1612,12.1612,12.1612,12.1612,12.1612,12.1612,12.1947,12.2793,12.3832,12.4409,12.5293,12.6371,12.6599,12.6751,12.6772,12.6807,12.6849,12.6999,12.7107,12.7261,12.7301,12.7311,12.7351,12.7419,12.7419,12.7419,12.7419,12.7419,12.7419,12.7419,12.7419,12.7419,12.7419,12.7419,12.7419,12.7419,12.7419,12.7419,12.7419,12.7419,12.7419,12.7419,12.7419,12.7419,12.7473,12.7709,12.793,12.8106,12.8315,12.8476,12.8593,12.8593,12.8593,12.8593,12.8593,12.8593,12.8593,12.8593,12.8593,12.8593,12.8593,12.8593,12.8593,12.8593,12.8593,12.8593,12.8593,12.8593,12.8593,12.8593,12.8593,12.8593,12.8593,12.8593,12.8593,11.3164,11.3203,11.3203,11.3711,11.4609,11.5508,11.6794,11.8237,11.8276,11.8272,11.8336,11.9231,11.9961,12.0494,12.1362,12.2075,12.2454,12.2531,12.2341,12.2119,12.1995,12.1823,12.1706,12.1597,12.1612,12.1612,12.1612,12.1612,12.1612,12.1612,12.1612,12.1612,12.1612,12.1612,12.1612,12.1612,12.1612,12.1612,12.1612,12.1612,12.1612,12.1612,12.1612,12.1612,12.1612,12.1612,12.1908,12.2562,12.337,12.4139,12.4986,12.5832,12.6383,12.669,12.6729,12.6727,12.6745,12.686,12.6999,12.7118,12.7171,12.7191,12.7311,12.7351,12.7419,12.7419,12.7419,12.7419,12.7419,12.7419,12.7419,12.7419,12.7419,12.7419,12.7419,12.7419,12.7419,12.7419,12.7419,12.7419,12.7419,12.7419,12.7419,12.74,12.7439,12.7557,12.7768,12.8007,12.8221,12.8476,12.8593,12.8593,12.8593,12.8593,12.8593,12.8593,12.8593,12.8593,12.8593,12.8593,12.8593,12.8593,12.8593,12.8593,12.8593,12.8593,12.8593,12.8593,12.8593,12.8593,12.8593,12.8593,12.8593,12.8593,12.8593,11.2656,11.3164,11.3202,11.367,11.4565,11.5811,11.7106,11.8236,11.8271,11.8206,11.8096,11.9553,12.0106,12.0261,12.1609,12.2221,12.2354,12.2262,12.2149,12.1976,12.1833,12.1695,12.162,12.1612,12.1612,12.1612,12.1612,12.1612,12.1612,12.1612,12.1612,12.1612,12.1612,12.1612,12.1612,12.1612,12.1612,12.1612,12.1612,12.1612,12.1612,12.1612,12.1612,12.1612,12.1612,12.1612,12.1793,12.237,12.3178,12.4024,12.4909,12.5794,12.6601,12.6717,12.6729,12.6703,12.676,12.6814,12.6899,12.6999,12.7065,12.7086,12.7171,12.7311,12.7351,12.741,12.741,12.7419,12.7419,12.7419,12.7419,12.7419,12.7419,12.7419,12.7419,12.7419,12.7419,12.7419,12.7419,12.7419,12.7419,12.7419,12.7419,12.7419,12.7429,12.7464,12.7604,12.785,12.811,12.8395,12.8593,12.8593,12.8593,12.8593,12.8593,12.8593,12.8593,12.8593,12.8593,12.8593,12.8593,12.8593,12.8593,12.8593,12.8593,12.8593,12.8593,12.8593,12.8593,12.8593,12.8593,12.8593,12.8593,12.8593,12.8593,11.2339,11.2951,11.3016,11.3617,11.4662,11.5526,11.6679,11.777,11.7956,11.7842,11.7892,11.945,12.008,12.0104,12.1418,12.2204,12.2068,12.1956,12.1844,12.1809,12.1684,12.1631,12.1574,12.1612,12.1612,12.1612,12.1612,12.1612,12.1612,12.1612,12.1612,12.1612,12.1612,12.1612,12.1612,12.1612,12.1612,12.1612,12.1612,12.1612,12.1612,12.1612,12.1612,12.1612,12.1612,12.1612,12.1612,12.2254,12.2793,12.3601,12.4447,12.5293,12.6101,12.6447,12.6678,12.6703,12.6739,12.6748,12.6783,12.6876,12.6921,12.6966,12.7054,12.7129,12.7261,12.7311,12.7351,12.7419,12.7419,12.7419,12.7419,12.7419,12.7419,12.7419,12.7419,12.7419,12.7419,12.7419,12.7419,12.7419,12.7419,12.7419,12.7419,12.7419,12.741,12.7466,12.7577,12.7801,12.8036,12.8263,12.8462,12.8593,12.8593,12.8593,12.8593,12.8593,12.8593,12.8593,12.8593,12.8593,12.8593,12.8593,12.8593,12.8593,12.8593,12.8593,12.8593,12.8593,12.8593,12.8593,12.8593,12.8593,12.8593,12.8593,12.8593,11.2027,11.2568,11.2651,11.3494,11.4796,11.4943,11.5839,11.7265,11.7375,11.7336,11.7683,11.9159,11.9719,11.9856,12.1174,12.1818,12.1798,12.1672,12.1661,12.1624,12.1608,12.1612,12.1612,12.1612,12.1612,12.1612,12.1612,12.1612,12.1612,12.1612,12.1612,12.1612,12.1612,12.1612,12.1612,12.1612,12.1612,12.1612,12.1612,12.1612,12.1612,12.1612,12.1612,12.1612,12.1612,12.1612,12.1612,12.1766,12.1985,12.287,12.3716,12.4562,12.564,12.6294,12.6601,12.6729,12.6703,12.6715,12.6739,12.681,12.6807,12.6853,12.6894,12.6988,12.7075,12.7212,12.7311,12.7341,12.7341,12.741,12.7419,12.7419,12.7419,12.7419,12.7419,12.7419,12.7419,12.7419,12.7419,12.7419,12.7419,12.7419,12.7419,12.7419,12.7419,12.7428,12.7497,12.7717,12.7919,12.8137,12.8344,12.8511,12.8593,12.8593,12.8593,12.8593,12.8593,12.8593,12.8593,12.8593,12.8593,12.8593,12.8593,12.8593,12.8593,12.8593,12.8593,12.8593,12.8593,12.8593,12.8593,12.8593,12.8593,12.8593,12.8593,11.0775,11.1549,11.2152,11.335,11.47,11.4615,11.5504,11.7037,11.6827,11.6854,11.739,11.8706,11.9463,11.9529,12.0874,12.1561,12.162,12.1727,12.1612,12.1727,12.1727,12.187,12.1689,12.1881,12.1727,12.1612,12.1612,12.1651,12.1612,12.1612,12.1612,12.1612,12.1612,12.1612,12.1612,12.1612,12.1612,12.1612,12.1612,12.1612,12.1612,12.1612,12.1612,12.1612,12.1612,12.1612,12.1612,12.1612,12.21,12.287,12.3678,12.487,12.6294,12.6563,12.6678,12.6717,12.6717,12.6717,12.6729,12.6727,12.6751,12.6736,12.6795,12.6853,12.6916,12.7118,12.7222,12.7281,12.7311,12.739,12.7419,12.7419,12.7419,12.7419,12.7419,12.7419,12.7419,12.7419,12.7419,12.7419,12.7419,12.7419,12.7419,12.7419,12.7419,12.7429,12.741,12.754,12.7766,12.7967,12.8234,12.8405,12.8553,12.8593,12.8593,12.8593,12.8593,12.8593,12.8593,12.8593,12.8593,12.8593,12.8593,12.8593,12.8593,12.8593,12.8593,12.8593,12.8593,12.8593,12.8593,12.8593,12.8593,12.8593,12.8593,11.0182,11.0958,11.1631,11.2675,11.3791,11.4124,11.5002,11.612,11.6402,11.6599,11.6961,11.807,11.8832,11.915,12.0496,12.1408,12.1639,12.2062,12.2216,12.2254,12.2408,12.2485,12.2447,12.2447,12.2447,12.2331,12.2177,12.21,12.1689,12.1612,12.1612,12.1612,12.1612,12.1612,12.1612,12.1612,12.1612,12.1612,12.1612,12.1612,12.1612,12.1612,12.1612,12.1612,12.1612,12.1612,12.1612,12.1612,12.1881,12.2601,12.3408,12.4947,12.614,12.6678,12.6717,12.6717,12.6717,12.6717,12.6717,12.6717,12.6717,12.6715,12.6727,12.676,12.6772,12.6982,12.7107,12.7139,12.7212,12.7291,12.74,12.7419,12.7419,12.7419,12.7419,12.7419,12.7419,12.7419,12.7419,12.7419,12.7419,12.7419,12.7419,12.7419,12.7419,12.7419,12.7429,12.7455,12.7666,12.7788,12.8054,12.8307,12.8451,12.8554,12.8593,12.8593,12.8593,12.8593,12.8593,12.8593,12.8593,12.8593,12.8593,12.8593,12.8593,12.8593,12.8593,12.8593,12.8593,12.8593,12.8593,12.8593,12.8593,12.8593,12.8593,10.9844,11.0601,11.1238,11.1994,11.2791,11.3648,11.4544,11.5391,11.6149,11.6495,11.6606,11.7337,11.8138,11.9138,11.9946,12.0869,12.1716,12.2408,12.2754,12.3216,12.3639,12.3408,12.3408,12.3601,12.3255,12.2947,12.2754,12.2177,12.1612,12.1612,12.1612,12.1612,12.1612,12.1612,12.1612,12.1612,12.1612,12.1612,12.1612,12.1612,12.1612,12.1612,12.1612,12.1612,12.1612,12.1612,12.1612,12.1612,12.1612,12.2254,12.3216,12.4755,12.5909,12.6563,12.6717,12.6717,12.6717,12.6717,12.6717,12.6717,12.6717,12.6729,12.6717,12.6741,12.6727,12.681,12.6944,12.7043,12.7118,12.7251,12.7321,12.741,12.741,12.7419,12.7419,12.7419,12.7419,12.7419,12.7419,12.7419,12.7419,12.7419,12.7419,12.7419,12.7419,12.7419,12.7458,12.7505,12.7588,12.7702,12.7856,12.8102,12.8315,12.8437,12.8515,12.8593,12.8593,12.8593,12.8593,12.8593,12.8593,12.8593,12.8593,12.8593,12.8593,12.8593,12.8593,12.8593,12.8593,12.8593,12.8593,12.8593,12.8593,12.8593,12.8593,10.8945,11.033,11.1169,11.1983,11.2753,11.3637,11.4484,11.5379,11.6149,11.6484,11.6522,11.6715,11.7561,11.9138,11.9946,12.1023,12.2408,12.2985,12.3447,12.3909,12.4332,12.4101,12.3985,12.4178,12.3601,12.3332,12.3024,12.2408,12.187,12.1689,12.1612,12.1612,12.1612,12.1612,12.1612,12.1612,12.1612,12.1612,12.1612,12.1612,12.1612,12.1612,12.1612,12.1612,12.1612,12.1612,12.1612,12.1612,12.1612,12.21,12.3139,12.4524,12.5563,12.6332,12.664,12.6717,12.6717,12.6717,12.6717,12.6717,12.6717,12.6717,12.6717,12.6729,12.6703,12.6741,12.6845,12.691,12.6999,12.7139,12.7271,12.7341,12.7361,12.741,12.7419,12.7419,12.7419,12.7419,12.7419,12.7419,12.7419,12.7419,12.7419,12.7419,12.7419,12.7419,12.7419,12.7493,12.7491,12.7602,12.7702,12.7885,12.8106,12.8242,12.8359,12.8554,12.8593,12.8593,12.8593,12.8593,12.8593,12.8593,12.8593,12.8593,12.8593,12.8593,12.8593,12.8593,12.8593,12.8593,12.8593,12.8593,12.8593,12.8593,12.8593]}]]